[[{"header":{"parameterUnit":"m.s-1","parameterCategory":1,"la1":30.6,"la2":28.766,"lo1":-90.7593,"lo2":-88.6598,"dy":0.0162,"dx":0.0183,"nx":116,"ny":114,"refTime":"2023-05-17T12:00:00:Z","depth":0,"parameterNumber":2,"parameterNumberName":"U-component_of_WINDS"},"data":[0.0,0.0,0.0,0.0,0.0,0.0,0.0,0.0,0.0,0.0,0.0,0.0,0.0,0.0,0.0,0.0,0.0,0.0,0.0,0.0,0.0,0.0,0.0,0.0,0.0,0.0,0.0,0.0,0.0,0.0,0.0,0.0,0.0,0.0,0.0,0.0,0.0,0.0,0.0,0.0,0.0,0.0,0.0,0.0,0.0,0.0,0.0,0.0,0.0,0.0,0.0,0.0,0.0,0.0,0.0,0.0,0.0,0.0,0.0,0.0,0.0,0.0,0.0,0.0,0.0,0.0,0.0,0.0,0.0,0.0,0.0,0.0,0.0,0.0,0.0,0.0,0.0,0.0,0.0,0.0,0.0,0.0,0.0,0.0,0.0,0.0,0.0,0.0,0.0,0.0,0.0,0.0,0.0,0.0,0.0,0.0,0.0,0.0,0.0,0.0,0.0,0.0,0.0,0.0,0.0,0.0,0.0,0.0,0.0,0.0,0.0,0.0,0.0,0.0,0.0,0.0,0.0,0.0,0.0,0.0,0.0,0.0,0.0,0.0,0.0,0.0,0.0,0.0,0.0,0.0,0.0,0.0,0.0,0.0,0.0,0.0,0.0,0.0,0.0,0.0,0.0,0.0,0.0,0.0,0.0,0.0,0.0,0.0,0.0,0.0,0.0,0.0,0.0,0.0,0.0,0.0,0.0,0.0,0.0,0.0,0.0,0.0,0.0,0.0,0.0,0.0,0.0,0.0,0.0,0.0,0.0,0.0,0.0,0.0,0.0,0.0,0.0,0.0,0.0,0.0,0.0,0.0,0.0,0.0,0.0,0.0,0.0,0.0,0.0,0.0,0.0,0.0,0.0,0.0,0.0,0.0,0.0,0.0,0.0,0.0,0.0,0.0,0.0,0.0,0.0,0.0,0.0,0.0,0.0,0.0,0.0,0.0,0.0,0.0,0.0,0.0,0.0,0.0,0.0,0.0,0.0,0.0,0.0,0.0,0.0,0.0,0.0,0.0,0.0,0.0,0.0,0.0,0.0,0.0,0.0,0.0,0.0,0.0,0.0,0.0,0.0,0.0,0.0,0.0,0.0,0.0,0.0,0.0,0.0,0.0,0.0,0.0,0.0,0.0,0.0,0.0,0.0,0.0,0.0,0.0,0.0,0.0,0.0,0.0,0.0,0.0,0.0,0.0,0.0,0.0,0.0,0.0,0.0,0.0,0.0,0.0,0.0,0.0,0.0,0.0,0.0,0.0,0.0,0.0,0.0,0.0,0.0,0.0,0.0,0.0,0.0,0.0,0.0,0.0,0.0,0.0,0.0,0.0,0.0,0.0,0.0,0.0,0.0,0.0,0.0,0.0,0.0,0.0,0.0,0.0,0.0,0.0,0.0,0.0,0.0,0.0,0.0,0.0,0.0,0.0,0.0,0.0,0.0,0.0,0.0,0.0,0.0,0.0,0.0,0.0,0.0,0.0,0.0,0.0,0.0,0.0,0.0,0.0,0.0,0.0,0.0,0.0,0.0,0.0,0.0,0.0,0.0,0.0,0.0,0.0,0.0,0.0,0.0,0.0,0.0,0.0,0.0,0.0,0.0,0.0,0.0,0.0,0.0,0.0,0.0,0.0,0.0,0.0,0.0,0.0,0.0,0.0,0.0,0.0,0.0,0.0,0.0,0.0,0.0,0.0,0.0,0.0,0.0,0.0,0.0,0.0,0.0,0.0,0.0,0.0,0.0,0.0,0.0,0.0,0.0,0.0,0.0,0.0,0.0,0.0,0.0,0.0,0.0,0.0,0.0,0.0,0.0,0.0,0.0,0.0,0.0,0.0,0.0,0.0,0.0,0.0,0.0,0.0,0.0,0.0,0.0,0.0,0.0,0.0,0.0,0.0,0.0,0.0,0.0,0.0,0.0,0.0,0.0,0.0,0.0,0.0,0.0,0.0,0.0,0.0,0.0,0.0,0.0,0.0,0.0,0.0,0.0,0.0,0.0,0.0,0.0,0.0,0.0,0.0,0.0,0.0,0.0,0.0,0.0,0.0,0.0,0.0,0.0,0.0,0.0,0.0,0.0,0.0,0.0,0.0,0.0,0.0,0.0,0.0,0.0,0.0,0.0,0.0,0.0,0.0,0.0,0.0,0.0,0.0,0.0,0.0,0.0,0.0,0.0,0.0,0.0,0.0,0.0,0.0,0.0,0.0,0.0,0.0,0.0,0.0,0.0,0.0,0.0,0.0,0.0,0.0,0.0,0.0,0.0,0.0,0.0,0.0,0.0,0.0,0.0,0.0,0.0,0.0,0.0,0.0,0.0,0.0,0.0,0.0,0.0,0.0,0.0,0.0,0.0,0.0,0.0,0.0,0.0,0.0,0.0,0.0,0.0,0.0,0.0,0.0,0.0,0.0,0.0,0.0,0.0,0.0,0.0,0.0,0.0,0.0,0.0,0.0,0.0,0.0,0.0,0.0,0.0,0.0,0.0,0.0,0.0,0.0,0.0,0.0,0.0,0.0,0.0,0.0,0.0,0.0,0.0,0.0,0.0,0.0,0.0,0.0,0.0,0.0,0.0,0.0,0.0,0.0,0.0,0.0,0.0,0.0,0.0,0.0,0.0,0.0,0.0,0.0,0.0,0.0,0.0,0.0,0.0,0.0,0.0,0.0,0.0,0.0,0.0,0.0,0.0,0.0,0.0,0.0,0.0,0.0,0.0,0.0,0.0,0.0,0.0,0.0,0.0,0.0,0.0,0.0,0.0,0.0,0.0,0.0,0.0,0.0,0.0,0.0,0.0,0.0,0.0,0.0,0.0,0.0,0.0,0.0,0.0,0.0,0.0,0.0,0.0,0.0,0.0,0.0,0.0,0.0,0.0,0.0,0.0,0.0,0.0,0.0,0.0,0.0,0.0,0.0,0.0,0.0,0.0,0.0,0.0,0.0,0.0,0.0,0.0,0.0,0.0,0.0,0.0,0.0,0.0,0.0,0.0,0.0,0.0,0.0,0.0,0.0,0.0,0.0,0.0,0.0,0.0,0.0,0.0,0.0,0.0,0.0,0.0,0.0,0.0,0.0,0.0,0.0,0.0,0.0,0.0,0.0,0.0,0.0,0.0,0.0,0.0,0.0,0.0,0.0,0.0,0.0,0.0,0.0,0.0,0.0,0.0,0.0,0.0,0.0,0.0,0.0,0.0,0.0,0.0,0.0,0.0,0.0,0.0,0.0,0.0,0.0,0.0,0.0,0.0,0.0,0.0,0.0,0.0,0.0,0.0,0.0,0.0,0.0,0.0,0.0,0.0,0.0,0.0,0.0,0.0,0.0,0.0,0.0,0.0,0.0,0.0,0.0,0.0,0.0,0.0,0.0,0.0,0.0,0.0,0.0,0.0,0.0,0.0,0.0,0.0,0.0,0.0,0.0,0.0,0.0,0.0,0.0,0.0,0.0,0.0,0.0,0.0,0.0,0.0,0.0,0.0,0.0,0.0,0.0,0.0,0.0,0.0,0.0,0.0,0.0,0.0,0.0,0.0,0.0,0.0,0.0,0.0,0.0,0.0,0.0,0.0,0.0,0.0,0.0,0.0,0.0,0.0,0.0,0.0,0.0,0.0,0.0,0.0,0.0,0.0,0.0,0.0,0.0,0.0,0.0,0.0,0.0,0.0,0.0,0.0,0.0,0.0,0.0,0.0,0.0,0.0,0.0,0.0,0.0,0.0,0.0,0.0,0.0,0.0,0.0,0.0,0.0,0.0,0.0,0.0,0.0,0.0,0.0,0.0,0.0,0.0,0.0,0.0,0.0,0.0,0.0,0.0,0.0,0.0,0.0,0.0,0.0,0.0,0.0,0.0,0.0,0.0,0.0,0.0,0.0,0.0,0.0,0.0,0.0,0.0,0.0,0.0,0.0,0.0,0.0,0.0,0.0,0.0,0.0,0.0,0.0,0.0,0.0,0.0,0.0,0.0,0.0,0.0,0.0,0.0,0.0,0.0,0.0,0.0,0.0,0.0,0.0,0.0,0.0,0.0,0.0,0.0,0.0,0.0,0.0,0.0,0.0,0.0,0.0,0.0,0.0,0.0,0.0,0.0,0.0,0.0,0.0,0.0,0.0,0.0,0.0,0.0,0.0,0.0,0.0,0.0,0.0,0.0,0.0,0.0,0.0,0.0,0.0,0.0,0.0,0.0,0.0,0.0,0.0,0.0,0.0,0.0,0.0,0.0,0.0,0.0,0.0,0.0,0.0,0.0,0.0,0.0,0.0,0.0,0.0,0.0,0.0,0.0,0.0,0.0,0.0,0.0,0.0,0.0,0.0,0.0,0.0,0.0,0.0,0.0,0.0,0.0,0.0,0.0,0.0,0.0,0.0,0.0,0.0,0.0,0.0,0.0,0.0,0.0,0.0,0.0,0.0,0.0,0.0,0.0,0.0,0.0,0.0,0.0,0.0,0.0,0.0,0.0,0.0,0.0,0.0,0.0,0.0,0.0,0.0,0.0,0.0,0.0,0.0,0.0,0.0,0.0,0.0,0.0,0.0,0.0,0.0,0.0,0.0,0.0,0.0,0.0,0.0,0.0,0.0,0.0,0.0,0.0,0.0,0.0,0.0,0.0,0.0,0.0,0.0,0.0,0.0,0.0,0.0,0.0,0.0,0.0,0.0,0.0,0.0,0.0,0.0,0.0,0.0,0.0,0.0,0.0,0.0,0.0,0.0,0.0,0.0,0.0,0.0,0.0,0.0,0.0,0.0,0.0,0.0,0.0,0.0,0.0,0.0,0.0,0.0,0.0,0.0,0.0,0.0,0.0,0.0,0.0,0.0,0.0,0.0,0.0,0.0,0.0,0.0,0.0,0.0,0.0,0.0,0.0,0.0,0.0,0.0,0.0,0.0,0.0,0.0,0.0,0.0,0.0,0.0,0.0,0.0,0.0,0.0,0.0,0.0,0.0,0.0,0.0,0.0,0.0,0.0,0.0,0.0,0.0,0.0,0.0,0.0,0.0,0.0,0.0,0.0,0.0,0.0,0.0,0.0,0.0,0.0,0.0,0.0,0.0,0.0,0.0,0.0,0.0,0.0,0.0,0.0,0.0,0.0,0.0,0.0,0.0,0.0,0.0,0.0,0.0,0.0,0.0,0.0,0.0,0.0,0.0,0.0,0.0,0.0,0.0,0.0,0.0,0.0,0.0,0.0,0.0,0.0,0.0,0.0,0.0,0.0,0.0,0.0,0.0,0.0,0.0,0.0,0.0,0.0,0.0,0.0,0.0,0.0,0.0,0.0,0.0,0.0,0.0,0.0,0.0,0.0,0.0,0.0,0.0,0.0,0.0,0.0,0.0,0.0,0.0,0.0,0.0,0.0,0.0,0.0,0.0,0.0,0.0,0.0,0.0,0.0,0.0,0.0,0.0,0.0,0.0,0.0,0.0,0.0,0.0,0.0,0.0,0.0,0.0,0.0,0.0,0.0,0.0,0.0,0.0,0.0,0.0,0.0,0.0,0.0,0.0,0.0,0.0,0.0,0.0,0.0,0.0,0.0,0.0,0.0,0.0,0.0,0.0,0.0,0.0,0.0,0.0,0.0,0.0,0.0,0.0,0.0,0.0,0.0,0.0,0.0,0.0,0.0,0.0,0.0,0.0,0.0,0.0,0.0,0.0,0.0,0.0,0.0,0.0,0.0,0.0,0.0,0.0,0.0,0.0,0.0,0.0,0.0,0.0,0.0,0.0,0.0,0.0,0.0,0.0,0.0,0.0,0.0,0.0,0.0,0.0,0.0,0.0,0.0,0.0,0.0,0.0,0.0,0.0,0.0,0.0,0.0,0.0,0.0,0.0,0.0,0.0,0.0,0.0,0.0,0.0,0.0,0.0,0.0,0.0,0.0,0.0,0.0,0.0,0.0,0.0,0.0,0.0,0.0,0.0,0.0,0.0,0.0,0.0,0.0,0.0,0.0,0.0,0.0,0.0,0.0,0.0,0.0,0.0,0.0,0.0,0.0,0.0,0.0,0.0,0.0,0.0,0.0,0.0,0.0,0.0,0.0,0.0,0.0,0.0,0.0,0.0,0.0,0.0,0.0,0.0,0.0,0.0,0.0,0.0,0.0,0.0,0.0,0.0,0.0,-2.3049,-2.2228,0.0,0.0,0.0,0.0,0.0,0.0,0.0,0.0,0.0,0.0,0.0,0.0,0.0,0.0,0.0,0.0,0.0,0.0,0.0,0.0,0.0,0.0,0.0,0.0,0.0,0.0,0.0,0.0,0.0,0.0,0.0,0.0,0.0,0.0,0.0,0.0,0.0,0.0,0.0,0.0,0.0,0.0,0.0,0.0,0.0,0.0,0.0,0.0,0.0,0.0,0.0,0.0,0.0,0.0,0.0,0.0,0.0,0.0,0.0,0.0,0.0,0.0,0.0,0.0,0.0,0.0,0.0,0.0,0.0,0.0,0.0,0.0,0.0,0.0,0.0,0.0,0.0,0.0,0.0,0.0,0.0,0.0,0.0,0.0,0.0,0.0,0.0,0.0,0.0,0.0,0.0,0.0,0.0,0.0,0.0,0.0,0.0,0.0,0.0,0.0,0.0,0.0,0.0,0.0,0.0,0.0,0.0,0.0,0.0,0.0,0.0,0.0,0.0,0.0,-2.4057,-2.3416,0.0,0.0,0.0,0.0,0.0,0.0,0.0,0.0,0.0,0.0,0.0,0.0,0.0,0.0,0.0,0.0,0.0,0.0,0.0,0.0,0.0,0.0,0.0,0.0,0.0,0.0,0.0,0.0,0.0,0.0,0.0,0.0,0.0,0.0,0.0,0.0,0.0,0.0,0.0,0.0,0.0,0.0,0.0,0.0,0.0,0.0,0.0,0.0,0.0,0.0,0.0,0.0,0.0,0.0,0.0,0.0,0.0,0.0,0.0,0.0,0.0,0.0,0.0,0.0,0.0,0.0,0.0,0.0,0.0,0.0,0.0,0.0,0.0,0.0,0.0,0.0,0.0,0.0,0.0,0.0,0.0,0.0,0.0,0.0,0.0,0.0,0.0,0.0,0.0,0.0,0.0,0.0,0.0,0.0,0.0,0.0,0.0,0.0,0.0,0.0,0.0,0.0,0.0,0.0,0.0,0.0,0.0,0.0,-2.5467,-2.5418,-2.534,-2.5292,-2.5226,-2.5135,-2.4799,-2.4538,-2.4318,-2.3456,0.0,0.0,0.0,0.0,0.0,0.0,0.0,0.0,0.0,0.0,0.0,0.0,0.0,0.0,0.0,0.0,0.0,0.0,0.0,0.0,0.0,0.0,0.0,0.0,0.0,0.0,0.0,0.0,0.0,0.0,0.0,0.0,0.0,0.0,0.0,0.0,0.0,0.0,-0.6233,-0.6944,-0.7377,-0.7644,-0.8422,0.0,0.0,0.0,0.0,0.0,0.0,0.0,0.0,0.0,0.0,0.0,0.0,0.0,0.0,0.0,0.0,0.0,0.0,0.0,0.0,0.0,0.0,0.0,0.0,0.0,0.0,0.0,0.0,0.0,0.0,0.0,0.0,0.0,0.0,0.0,0.0,0.0,0.0,0.0,0.0,0.0,0.0,0.0,-2.2721,-2.3342,0.0,0.0,0.0,0.0,0.0,0.0,0.0,0.0,0.0,0.0,0.0,0.0,0.0,-2.5599,-2.5605,-2.5584,-2.5595,-2.5598,-2.5574,-2.5565,-2.5561,-2.5498,-2.5427,-2.5356,-2.5236,0.0,-2.4712,-2.4409,0.0,0.0,0.0,0.0,0.0,0.0,0.0,0.0,0.0,0.0,0.0,0.0,0.0,0.0,0.0,0.0,0.0,0.0,0.0,0.0,0.0,0.0,0.0,0.0,0.0,0.0,0.0,0.0,0.0,0.0,0.0,0.0,0.0,0.0,0.0,0.0,-0.5545,-0.5957,-0.6319,-0.6789,-0.7287,-0.7778,-0.8391,-0.9133,-0.9945,-1.0867,0.0,0.0,0.0,0.0,0.0,0.0,0.0,0.0,0.0,0.0,0.0,0.0,0.0,0.0,0.0,0.0,0.0,0.0,0.0,0.0,0.0,0.0,0.0,0.0,0.0,0.0,0.0,0.0,0.0,0.0,0.0,0.0,0.0,0.0,0.0,0.0,0.0,0.0,0.0,-2.182,-2.2842,-2.3193,-2.3558,-2.3878,0.0,0.0,0.0,0.0,0.0,0.0,0.0,0.0,0.0,-2.5473,-2.5488,-2.5507,-2.5535,-2.5579,-2.5574,-2.5542,-2.5586,-2.5602,-2.5593,-2.5576,-2.5551,-2.5508,-2.5434,-2.5313,-2.5126,-2.4845,-2.4586,-2.4355,0.0,0.0,0.0,0.0,-2.2599,-2.222,0.0,0.0,0.0,0.0,0.0,0.0,0.0,0.0,0.0,0.0,0.0,0.0,0.0,0.0,0.0,-0.3667,0.0,0.0,0.0,0.0,0.0,0.0,0.0,0.0,0.0,0.0,0.0,-0.5285,-0.5545,-0.5886,-0.6299,-0.6643,-0.7151,-0.7747,-0.8285,-0.9019,-0.9875,-1.0789,-1.1469,0.0,0.0,0.0,0.0,0.0,0.0,0.0,0.0,0.0,0.0,0.0,0.0,0.0,0.0,0.0,0.0,0.0,0.0,0.0,0.0,0.0,0.0,0.0,0.0,0.0,0.0,0.0,0.0,0.0,0.0,0.0,0.0,0.0,0.0,0.0,0.0,0.0,0.0,-2.2315,-2.2738,-2.3003,-2.3353,-2.3667,0.0,0.0,0.0,0.0,0.0,0.0,-2.4975,-2.5053,-2.5154,-2.5265,-2.5307,-2.5345,-2.5394,-2.5465,-2.5479,-2.545,-2.5527,-2.5556,-2.5553,-2.5563,-2.5586,-2.5595,-2.5551,-2.5503,-2.5428,-2.5116,-2.4877,-2.4666,-2.4424,-2.4155,-2.3858,-2.3405,-2.3007,-2.2582,0.0,0.0,0.0,0.0,0.0,0.0,0.0,0.0,0.0,0.0,0.0,0.0,0.0,0.0,-0.388,-0.388,-0.388,-0.388,0.0,0.0,0.0,0.0,0.0,0.0,0.0,0.0,0.0,-0.5193,-0.5404,-0.5699,-0.6024,-0.6535,-0.6979,-0.7353,-0.8072,-0.8869,-0.9644,-1.0079,-1.0608,-1.1167,0.0,0.0,0.0,0.0,0.0,0.0,0.0,0.0,0.0,0.0,0.0,0.0,0.0,0.0,0.0,0.0,0.0,0.0,0.0,0.0,0.0,0.0,0.0,0.0,0.0,0.0,0.0,0.0,0.0,0.0,0.0,0.0,0.0,0.0,0.0,0.0,0.0,0.0,0.0,-2.2868,-2.3151,0.0,0.0,0.0,0.0,-2.421,-2.4391,-2.4543,-2.4623,-2.4752,-2.4845,-2.4911,-2.5041,-2.5122,-2.5118,-2.5197,-2.5252,-2.5307,-2.5374,-2.5408,-2.5418,-2.5479,-2.5538,-2.5607,-2.5604,-2.5582,-2.5579,-2.5379,-2.5163,-2.4968,-2.4752,-2.4472,-2.4154,-2.3798,-2.3405,-2.3017,0.0,0.0,0.0,0.0,0.0,0.0,0.0,0.0,0.0,0.0,0.0,0.0,0.0,-0.4328,-0.4236,-0.4144,-0.4144,-0.4144,-0.4144,0.0,0.0,0.0,0.0,0.0,0.0,0.0,-0.484,-0.4932,-0.5242,-0.5554,-0.5874,-0.6388,-0.6781,-0.7072,-0.7522,-0.7883,-0.8302,-0.9256,-0.9932,-1.0285,-1.0702,-1.1057,0.0,0.0,0.0,0.0,0.0,0.0,0.0,0.0,0.0,0.0,0.0,0.0,0.0,0.0,0.0,0.0,0.0,0.0,0.0,0.0,0.0,0.0,0.0,0.0,0.0,0.0,0.0,0.0,0.0,0.0,0.0,0.0,0.0,0.0,0.0,0.0,0.0,-2.2659,-2.2927,0.0,-2.3371,-2.3576,-2.3728,-2.3819,-2.4001,-2.4136,-2.4211,-2.4336,-2.4456,-2.4567,-2.461,-2.4666,-2.4719,-2.4822,-2.4892,-2.4917,-2.5034,-2.51,-2.5149,-2.5266,-2.5343,-2.5407,-2.5496,-2.554,-2.5524,-2.549,-2.5368,-2.5168,-2.4972,-2.4757,-2.454,-2.4174,-2.3806,-2.3419,0.0,0.0,0.0,0.0,0.0,0.0,0.0,0.0,0.0,0.0,0.0,-0.4622,-0.4539,-0.4499,-0.4456,-0.4364,-0.432,-0.4316,-0.4316,0.0,0.0,0.0,0.0,0.0,0.0,-0.4578,-0.4661,-0.4753,-0.5002,-0.5297,-0.5599,-0.6005,-0.6278,-0.6544,-0.6804,-0.6966,-0.7133,-0.8137,-0.8876,-0.9354,-0.9769,-1.0079,-1.0285,0.0,0.0,0.0,0.0,0.0,0.0,0.0,0.0,0.0,0.0,0.0,0.0,0.0,0.0,0.0,0.0,0.0,0.0,0.0,0.0,0.0,0.0,0.0,0.0,0.0,0.0,0.0,0.0,0.0,0.0,0.0,0.0,0.0,0.0,-2.184,-2.2141,-2.2497,-2.2712,-2.2919,-2.3119,-2.3223,-2.3324,-2.3405,-2.3602,-2.3732,-2.3798,-2.3901,-2.4002,-2.408,-2.4137,-2.4192,-2.4227,-2.4364,-2.4431,-2.4431,-2.4588,-2.4686,-2.4769,-2.4941,-2.5056,-2.5139,-2.529,-2.5389,-2.542,-2.55,-2.5465,-2.5357,-2.5202,-2.5042,-2.4858,-2.4532,-2.4191,-2.383,0.0,0.0,0.0,0.0,0.0,0.0,0.0,0.0,0.0,0.0,-0.4893,-0.4757,-0.4618,-0.4539,-0.4504,-0.4504,-0.4364,-0.4316,-0.4316,-0.4316,0.0,0.0,0.0,0.0,-0.4499,-0.4535,-0.4574,-0.4574,-0.4779,-0.497,-0.5202,-0.5404,-0.5602,-0.5773,-0.6046,-0.6154,-0.6209,-0.6637,-0.7391,-0.8368,-0.8771,-0.904,-0.9204,0.0,0.0,0.0,0.0,0.0,0.0,0.0,0.0,0.0,0.0,0.0,0.0,0.0,0.0,0.0,0.0,0.0,0.0,0.0,0.0,0.0,0.0,0.0,0.0,0.0,0.0,0.0,0.0,0.0,0.0,0.0,0.0,0.0,-2.1481,-2.1768,-2.2015,-2.2349,-2.2432,-2.2552,-2.2764,-2.2825,-2.2944,-2.307,-2.3206,-2.3301,-2.3371,-2.3427,-2.3459,-2.3459,-2.3588,-2.3671,-2.3671,-2.3801,-2.3864,-2.3864,-2.4081,-2.421,-2.4279,-2.4482,-2.4651,-2.4774,-2.4996,-2.5119,-2.5194,-2.5337,-2.5426,-2.5497,-2.5429,-2.5286,-2.5086,-2.4879,-2.4591,-2.4227,0.0,0.0,0.0,0.0,0.0,0.0,0.0,0.0,0.0,0.0,-0.5106,-0.5019,-0.4753,-0.4714,-0.4675,-0.4504,-0.4456,-0.4412,-0.4316,0.0,0.0,0.0,0.0,0.0,-0.4196,-0.4144,-0.41,-0.41,-0.4396,-0.4564,-0.4614,-0.491,-0.5074,-0.5171,-0.5226,-0.5281,-0.5281,-0.5504,-0.5828,-0.6253,-0.7433,-0.7919,-0.8025,0.0,0.0,0.0,0.0,0.0,0.0,0.0,0.0,0.0,0.0,0.0,0.0,0.0,0.0,0.0,0.0,0.0,0.0,0.0,0.0,0.0,0.0,0.0,0.0,0.0,0.0,0.0,0.0,0.0,0.0,0.0,-1.8946,-2.0048,-2.1086,-2.1417,-2.1631,-2.1945,-2.2073,-2.2198,-2.2347,-2.248,-2.2579,-2.2659,-2.273,-2.2764,-2.2686,-2.2746,-2.2772,-2.2772,-2.2822,-2.2848,-2.2898,-2.3028,-2.31,-2.3124,-2.3356,-2.3476,-2.3505,-2.3812,-2.4026,-2.4171,-2.4404,-2.4634,-2.486,-2.5022,-2.5216,-2.536,-2.5446,-2.5415,-2.5297,-2.5149,-2.4822,-2.4398,0.0,0.0,0.0,0.0,0.0,0.0,0.0,0.0,0.0,0.0,-0.5236,-0.5149,-0.4975,-0.4888,-0.4714,-0.4539,-0.4499,-0.4456,-0.432,0.0,0.0,0.0,0.0,-0.3972,-0.3928,-0.3836,-0.3792,-0.3751,-0.4013,-0.4115,-0.4076,-0.4321,-0.4405,-0.4294,-0.4346,-0.4346,-0.4294,-0.446,-0.4625,-0.4783,-0.5701,-0.6411,-0.6907,-0.7331,-0.7551,-0.7664,-0.8031,-0.8243,-0.8442,-0.8771,0.0,0.0,0.0,0.0,0.0,0.0,0.0,0.0,0.0,0.0,0.0,0.0,0.0,0.0,0.0,0.0,0.0,0.0,0.0,0.0,0.0,0.0,0.0,0.0,-1.8383,-1.9476,-2.024,-2.0863,-2.1355,-2.1601,-2.1705,-2.1777,-2.1907,-2.1986,-2.2061,-2.2163,-2.2158,-2.2124,-2.2062,-2.2091,-2.2091,-2.2091,-2.2091,-2.2074,-2.2068,-2.2224,-2.2279,-2.2279,-2.2504,-2.2643,-2.271,-2.2999,-2.3239,-2.3466,-2.3739,-2.4045,-2.4344,-2.4601,-2.4841,-2.5072,0.0,0.0,0.0,0.0,-2.5032,-2.4731,0.0,0.0,0.0,0.0,0.0,0.0,0.0,0.0,0.0,0.0,0.0,-0.5193,-0.5193,-0.4975,-0.4753,-0.4618,-0.4539,-0.4456,0.0,0.0,0.0,-0.388,-0.3884,-0.3792,-0.3656,-0.3653,-0.3612,-0.3534,-0.3617,-0.3605,-0.3533,-0.361,-0.3508,-0.3302,-0.3408,-0.3352,-0.3302,-0.3519,-0.363,-0.3685,-0.3904,-0.4728,-0.5832,-0.6263,-0.6426,-0.648,-0.6961,-0.723,-0.7385,-0.7658,0.0,0.0,0.0,0.0,0.0,0.0,0.0,0.0,0.0,0.0,0.0,0.0,0.0,0.0,0.0,0.0,0.0,0.0,0.0,0.0,0.0,0.0,0.0,0.0,-1.7697,-1.8788,-1.9206,-2.0159,-2.0959,-2.1276,-2.1324,-2.1339,-2.1432,-2.1432,-2.1462,-2.1587,-2.1462,-2.1415,-2.146,-2.1415,0.0,0.0,0.0,-2.1275,-2.1132,-2.1336,-2.1383,-2.1336,-2.1532,-2.1694,-2.184,-2.2079,-2.2319,-2.2642,-2.3005,-2.337,-2.3712,-2.4026,-2.4356,-2.4718,-2.5272,-2.5476,-2.5488,-2.5364,-2.5246,-2.5129,0.0,0.0,0.0,0.0,0.0,0.0,0.0,0.0,0.0,-0.5491,-0.5366,-0.5241,-0.5193,-0.4975,-0.4753,-0.4618,-0.4539,-0.4412,0.0,0.0,-0.388,-0.3744,-0.3707,-0.3578,-0.3439,-0.3258,-0.3123,-0.3126,-0.2957,-0.2934,-0.2926,-0.2737,-0.2672,-0.2689,-0.2519,-0.2462,-0.2464,-0.2462,-0.2629,-0.2742,-0.2798,-0.3516,-0.4618,-0.5058,-0.5226,-0.5281,-0.5878,-0.6154,-0.6376,-0.675,-0.7074,-0.7456,-0.783,-0.8156,0.0,0.0,0.0,0.0,0.0,0.0,0.0,0.0,0.0,0.0,0.0,0.0,0.0,0.0,0.0,0.0,0.0,0.0,0.0,-1.6203,-1.6686,-1.7426,-1.877,-1.9162,-1.9705,-2.0714,-2.0909,-2.0974,-2.0942,-2.0991,-2.0991,-2.099,-2.0861,-2.0747,-2.0698,-2.0583,-2.0499,-2.0361,-2.0361,-2.0311,-2.0181,-2.0268,-2.0302,-2.0302,-2.0569,0.0,-2.0717,-2.1148,-2.1456,-2.1703,-2.209,-2.2522,-2.301,-2.3307,-2.3838,-2.4512,-2.5117,-2.5372,-2.5422,-2.5449,-2.5405,-2.5332,0.0,0.0,0.0,0.0,0.0,0.0,0.0,0.0,0.0,0.0,-0.5415,-0.5285,-0.5241,-0.4975,-0.4753,-0.4618,-0.4408,0.0,0.0,-0.3796,-0.3707,-0.3571,-0.3394,-0.3265,-0.3132,-0.2904,-0.2679,-0.2544,-0.2379,-0.2334,-0.2425,-0.2252,-0.2008,-0.1681,-0.1569,-0.1456,-0.1288,-0.14,-0.1513,-0.1625,-0.1679,-0.2178,-0.2954,-0.368,-0.4125,-0.4288,-0.4725,-0.5058,-0.5285,-0.5714,-0.6095,-0.6534,-0.6918,-0.7348,-0.7836,0.0,0.0,0.0,0.0,0.0,0.0,0.0,0.0,0.0,0.0,0.0,0.0,0.0,0.0,-1.4114,-1.4159,0.0,-1.4844,-1.5456,-1.5961,-1.6673,-1.7889,-1.8357,-1.9045,-2.0227,-2.0392,-2.0426,-2.0392,-2.0361,-2.0345,-2.0292,-2.0104,-2.0,-1.9965,-1.9722,-1.9579,-1.95,-1.9413,-1.9339,-1.9148,-1.9259,-1.9244,-1.917,-1.939,-1.9405,-1.9196,-1.9572,-1.9765,-1.984,-2.0153,-2.0611,-2.1122,-2.1692,-2.2216,-2.2847,-2.3714,-2.4542,-2.5253,-2.5332,-2.5344,-2.5349,0.0,0.0,0.0,0.0,0.0,0.0,0.0,0.0,0.0,0.0,-0.5458,-0.5285,-0.5285,-0.4975,-0.4709,0.0,0.0,0.0,0.0,-0.3619,-0.349,-0.3309,-0.3081,-0.2904,-0.2776,-0.2506,-0.2281,-0.2101,-0.19,-0.1834,-0.1819,-0.1718,-0.1294,-0.0729,-0.0673,-0.0505,-0.028,-0.0393,-0.0505,-0.0505,-0.0615,-0.0838,-0.1286,-0.2179,-0.2794,-0.3292,-0.3622,-0.3956,-0.4239,-0.467,-0.5109,-0.5555,-0.5996,-0.6534,-0.7069,-0.7498,-0.8084,0.0,0.0,0.0,0.0,0.0,0.0,0.0,0.0,-1.3315,-1.3703,-1.3557,-1.3902,-1.4149,-1.4023,-1.4172,-1.4415,-1.4637,-1.5234,-1.6023,-1.6929,-1.7586,-1.8394,-1.9513,-1.9812,-1.9848,-1.9812,-1.9747,-1.9645,-1.9573,-1.9354,-1.9207,-1.9169,-1.8855,-1.8664,-1.8626,-1.8444,-1.8288,-1.8145,-1.821,-1.8115,-1.7887,-1.8082,-1.7951,-1.7541,-1.7847,-1.7933,-1.7912,-1.8329,-1.8786,-1.9361,-2.0072,-2.0565,-2.098,-2.1984,-2.314,-2.435,-2.4908,-2.5151,-2.5226,0.0,0.0,0.0,0.0,0.0,0.0,0.0,0.0,0.0,0.0,0.0,0.0,0.0,0.0,0.0,0.0,0.0,0.0,-0.3622,-0.349,-0.3265,-0.2957,-0.2821,-0.264,-0.237,-0.2061,-0.1973,-0.2199,-0.1711,-0.1267,-0.0857,-0.0557,-0.0316,-0.0112,-0.0,0.0168,0.0336,0.028,0.028,0.028,0.028,0.0168,-0.0,-0.028,-0.1064,-0.2068,-0.2625,-0.2959,-0.3128,-0.3624,-0.4067,-0.4453,-0.4897,-0.55,-0.6046,-0.6583,-0.7235,-0.7925,-0.8482,-0.9658,-1.083,-1.1455,-1.2155,-1.2758,0.0,-1.3355,-1.379,-1.3755,-1.3821,-1.3938,-1.4213,-1.4156,-1.4065,-1.4163,-1.4461,-1.511,-1.6397,-1.6691,-1.7191,-1.8359,-1.9064,-1.9413,-1.9213,-1.9213,-1.9049,-1.8769,-1.8655,-1.8486,-1.8263,-1.8054,-1.7828,-1.7666,-1.7409,-1.7244,-1.7146,-1.7037,-1.679,-1.6362,-1.6547,-1.6359,-1.5861,-1.6286,-1.6564,-1.6807,-1.7706,-1.8375,-1.8895,-1.9361,-1.9774,-2.0161,-2.0598,-2.1004,-2.1642,-2.393,-2.4828,-2.4949,0.0,0.0,0.0,0.0,0.0,0.0,0.0,0.0,0.0,0.0,0.0,0.0,0.0,0.0,0.0,0.0,0.0,0.0,-0.349,-0.3268,-0.3046,-0.2912,-0.26,-0.233,-0.215,-0.1882,-0.1703,-0.1614,-0.0987,-0.0467,-0.0,0.0353,0.0682,0.1066,0.1345,0.14,0.1344,0.14,0.1456,0.1456,0.1456,0.1344,0.1119,0.1064,0.0616,-0.0224,-0.1399,-0.1958,0.0,0.0,-0.3072,-0.3683,-0.4184,-0.4787,-0.5391,-0.5991,-0.6588,-0.7289,-0.8309,-0.9399,-1.0387,-1.1006,-1.171,-1.2395,-1.274,-1.3403,-1.3925,-1.3854,-1.4217,-1.4472,-1.4424,-1.4534,-1.4657,-1.4742,-1.4928,-1.5448,-1.642,-1.658,-1.6892,-1.7733,-1.8108,-1.8358,-1.8581,-1.8436,-1.8266,-1.8068,-1.7868,-1.7625,-1.7353,-1.716,-1.6909,-1.6685,-1.6557,-1.6343,-1.6083,-1.5776,-1.5465,-1.512,-1.5036,-1.4799,-1.4412,-1.4719,-1.4955,-1.518,-1.5869,-1.6397,-1.6801,-1.7227,-1.7663,-1.8118,-1.8868,-1.9358,-1.9856,-2.1935,-2.3103,-2.3637,0.0,0.0,0.0,0.0,0.0,0.0,0.0,0.0,0.0,0.0,0.0,0.0,0.0,0.0,0.0,0.0,0.0,0.0,0.0,-0.3087,-0.2868,-0.2732,-0.2375,-0.2064,-0.1839,-0.1658,-0.1344,-0.0941,-0.0314,0.0233,0.0744,0.1054,0.1461,0.1882,0.2287,0.2352,0.2237,0.2406,0.2462,0.2462,0.2462,0.235,0.2125,0.2068,0.1846,0.14,-0.0056,-0.084,0.0,0.0,-0.2125,-0.2738,-0.3352,-0.3962,-0.4512,-0.5167,-0.5932,-0.6804,-0.8037,-0.8928,-0.971,-1.0379,-1.1108,-1.1819,-1.2491,-1.3208,-1.3778,-1.3892,-1.4344,-1.4659,-1.4554,-1.4718,-1.4903,-1.5006,-1.5197,-1.5581,-1.6284,-1.6415,-1.6625,-1.7203,-1.7269,-1.7352,-1.7639,-1.7639,-1.7557,-1.738,-1.7102,-1.685,-1.6527,-1.6281,-1.6064,-1.5764,-1.5611,-1.533,-1.4855,-1.4543,-1.4147,-1.3716,-1.3564,-1.3322,-1.2967,-1.3325,-1.3607,-1.3855,-1.4342,-1.4738,-1.5091,-1.5506,-1.5948,-1.6394,-1.7226,-1.7759,-1.8211,-1.9547,-2.0918,-2.2152,0.0,0.0,0.0,0.0,0.0,0.0,0.0,0.0,0.0,0.0,0.0,0.0,0.0,0.0,0.0,0.0,0.0,0.0,0.0,-0.2998,-0.2732,-0.2324,-0.2105,-0.1839,-0.1433,-0.1299,-0.0896,-0.0225,0.018,0.0688,0.1289,0.1538,0.1801,0.208,0.2373,0.2631,0.2905,0.3019,0.3074,0.3074,0.3074,0.3074,0.3019,0.2792,0.2681,0.2514,0.1288,0.0,0.0,0.0,-0.112,-0.151,-0.2238,-0.2798,-0.3294,-0.4012,-0.5277,-0.6598,-0.7509,-0.8249,-0.9033,-0.9806,-1.0592,-1.1326,-1.1977,-1.2589,-1.3198,-1.3852,-1.3947,-1.4057,-1.4507,-1.4451,-1.4368,-1.4502,-1.4748,-1.5143,-1.5727,-1.5949,-1.6207,-1.6659,-1.6595,-1.6466,-1.6355,-1.6892,-1.7031,-1.6565,-1.6411,-1.6182,-1.5832,-1.5534,-1.522,-1.4949,-1.4605,-1.4144,-1.3564,-1.3409,-1.2904,-1.1975,-1.2153,-1.2009,-1.1575,-1.2173,-1.2697,-1.316,-1.3501,-1.3934,-1.447,-1.4783,-1.5166,-1.555,-1.5853,-1.616,-1.6501,-1.6753,-1.8473,-2.0666,0.0,0.0,0.0,0.0,0.0,0.0,0.0,0.0,0.0,0.0,0.0,0.0,0.0,0.0,0.0,0.0,0.0,0.0,0.0,-0.2862,-0.2551,-0.2324,-0.1925,-0.1614,-0.1344,-0.1211,-0.0763,-0.0045,0.0539,0.1101,0.1526,0.1832,0.2159,0.2558,0.3035,0.3357,0.363,0.3799,0.391,0.4018,0.4018,0.3962,0.3793,0.363,0.3461,0.3236,0.0,0.0,0.0,0.028,-0.0336,-0.0952,-0.151,-0.1983,-0.2581,-0.3672,-0.4723,-0.5724,-0.6587,-0.735,-0.8172,-0.92,-0.9925,-1.0592,-1.1368,-1.2058,-1.2638,-1.3208,-1.3653,-1.41,-1.4474,-1.4783,-1.5026,-1.5155,-1.5338,-1.5581,-1.5752,-1.5831,-1.5936,-1.6064,-1.5988,-1.5856,-1.5768,-1.6064,-1.6194,-1.5901,-1.5623,-1.5367,-1.5017,-1.4823,-1.4501,-1.4035,-1.3941,-1.3533,-1.2791,-1.245,-1.1958,-1.1287,-1.125,-1.1253,-1.133,-1.1774,-1.2174,-1.2532,-1.2953,-1.3399,-1.3835,-1.4149,-1.4533,-1.4923,-1.5196,-1.5507,-1.5839,-1.6022,-1.6705,-1.7711,0.0,0.0,0.0,0.0,0.0,0.0,0.0,0.0,0.0,0.0,0.0,0.0,0.0,0.0,0.0,0.0,0.0,-0.3262,0.0,0.0,-0.2415,-0.2237,-0.1882,-0.1524,-0.1254,-0.1123,-0.0719,-0.0,0.0719,0.1229,0.154,0.1941,0.2367,0.2925,0.3463,0.3868,0.4187,0.4356,0.4574,0.4739,0.4739,0.4625,0.4512,0.4349,0.4184,0.0,0.0,0.0,0.0,0.1287,0.056,-0.0168,-0.0662,-0.1341,-0.2125,-0.3237,-0.4111,-0.4927,-0.5801,-0.6547,-0.7365,-0.8474,-0.9268,-0.9925,-1.0812,-1.146,-1.2058,-1.2638,-1.3208,-1.3732,-1.4222,-1.4686,-1.5051,-1.5198,-1.5379,-1.557,-1.557,-1.557,-1.5513,-1.5468,-1.5367,-1.5244,-1.5198,-1.5187,-1.5175,-1.5175,-1.496,-1.4605,-1.4244,-1.4093,-1.3752,-1.3276,-1.3238,-1.2748,-1.1882,-1.1611,-1.1184,-1.0622,-1.0518,-1.0687,-1.1019,-1.1394,-1.1774,-1.2066,-1.2544,-1.2931,-1.3276,-1.3635,-1.4,-1.4324,-1.4564,-1.489,-1.5239,-1.5389,-1.5565,-1.5955,0.0,0.0,0.0,0.0,0.0,0.0,0.0,0.0,0.0,0.0,0.0,0.0,0.0,0.0,0.0,0.0,0.0,0.0,0.0,0.0,0.0,-0.2109,-0.1928,-0.1569,-0.1119,-0.1078,-0.0719,-0.0,0.0719,0.1213,0.139,0.1871,0.2479,0.3121,0.36,0.4053,0.4519,0.4791,0.5011,0.5124,0.5124,0.5124,0.5128,0.4956,0.0,0.0,0.0,0.0,0.3458,0.2235,0.1398,0.0778,0.0214,-0.0826,-0.1905,-0.265,-0.3398,-0.4196,-0.5037,-0.5763,-0.6579,-0.7665,-0.855,-0.9347,-1.019,-1.0863,-1.1469,-1.2206,-1.2589,-1.3016,-1.3821,-1.4197,-1.4419,-1.4616,-1.488,-1.5062,-1.5062,-1.5062,-1.5017,-1.4903,-1.4743,-1.4662,-1.4581,-1.4208,-1.4104,-1.4408,-1.4269,-1.3988,-1.3573,-1.3314,-1.2977,-1.2559,-1.2471,-1.1921,-1.0866,-1.082,-1.0544,-0.998,-1.0049,-1.0302,-1.0677,-1.1029,-1.1404,-1.1774,-1.2186,-1.252,-1.2803,-1.322,-1.3539,-1.3808,-1.4013,-1.4324,-1.4683,-1.4777,-1.5011,-1.5344,0.0,0.0,0.0,0.0,0.0,0.0,0.0,0.0,0.0,0.0,0.0,0.0,0.0,0.0,0.0,0.0,0.0,0.0,0.0,0.0,0.0,0.0,0.0,0.0,0.0,0.0,0.0,0.0,0.0719,0.1213,0.139,0.196,0.2622,0.3274,0.3813,0.4324,0.4791,0.5073,0.5293,0.5458,0.0,0.5626,0.5572,0.0,0.0,0.0,0.0,0.0,0.3913,0.2854,0.1763,0.0801,0.02,-0.0584,-0.1393,-0.2005,-0.2633,-0.3392,-0.429,-0.4966,-0.5692,-0.708,-0.7835,-0.8599,-0.971,-1.0395,-1.1074,-1.1719,-1.2264,-1.2706,-1.317,-1.3658,-1.401,-1.415,-1.4373,-1.4558,-1.4558,-1.4558,-1.4558,-1.4512,-1.4337,-1.4161,-1.4161,-1.3716,-1.3409,-1.3399,-1.3457,-1.3266,-1.289,-1.2754,-1.2471,-1.1968,-1.1927,-1.1393,-1.0318,-0.9837,-0.9614,-0.9646,-0.9744,-1.0019,-1.039,-1.0659,-1.0954,-1.1367,-1.1774,-1.215,-1.252,-1.2861,-1.3242,-1.3594,-1.3861,-1.4105,-1.4365,-1.4515,-1.4627,-1.4752,0.0,0.0,0.0,0.0,0.0,0.0,0.0,0.0,0.0,0.0,0.0,0.0,0.0,0.0,0.0,0.0,0.0,0.0,0.0,0.0,0.0,0.0,0.0,0.0,0.0,0.0,0.0,0.0,0.0,0.0,0.1344,0.1833,0.2414,0.305,0.3673,0.4226,0.4746,0.5097,0.0,0.0,0.0,0.0,0.0,0.0,0.0,0.0,0.0,0.4477,0.3872,0.3065,0.2038,0.1008,0.0482,-0.0235,-0.1015,-0.1443,-0.2103,-0.2787,-0.3624,-0.4291,-0.5114,-0.6422,-0.7298,-0.8113,-0.9186,-0.994,-1.0616,-1.1267,-1.1828,-1.2314,-1.2803,-1.318,-1.3515,-1.3716,-1.3952,-1.415,-1.415,-1.415,-1.4093,-1.4046,-1.3858,-1.3678,-1.3583,-1.3238,-1.2939,-1.2696,-1.2842,-1.2745,-1.2412,-1.2224,-1.1977,-1.1528,-1.1477,-1.0957,-0.9972,-0.9512,-0.9293,-0.9368,-0.9594,-0.9911,-1.0322,-1.0582,-1.0954,-1.1367,-1.1689,-1.2066,-1.2401,-1.272,-1.3047,-1.3357,-1.3628,-1.3841,-1.404,-1.4176,-1.4292,-1.4433,0.0,0.0,0.0,0.0,0.0,0.0,0.0,0.0,0.0,0.0,0.0,0.0,0.0,0.0,0.0,0.0,0.0,0.0,0.0,0.0,0.0,0.0,0.0,0.0,0.0,0.0,0.0,0.0,0.0,0.0,0.0,0.0,0.0,0.0,0.0,0.0,0.0,0.0,0.0,0.0,0.0,0.0,0.0,0.0,0.0,0.0,0.0,0.4628,0.3721,0.315,0.2256,0.1332,0.0946,0.0184,-0.0671,-0.1074,-0.17,-0.2415,-0.2993,-0.384,-0.473,-0.5775,-0.6773,-0.7721,-0.877,-0.9472,-1.0146,-1.0922,-1.1427,-1.1877,-1.2529,-1.2803,-1.3074,-1.3324,-1.3573,-1.3716,-1.3716,-1.3716,-1.3668,-1.3563,-1.342,-1.3238,-1.3007,-1.2871,-1.2627,-1.2274,-1.2323,-1.2224,-1.2026,-1.1769,-1.1528,-1.1226,-1.1023,-1.0598,-0.9826,-0.9523,-0.9325,-0.9255,-0.9533,-0.9902,-1.0283,-1.0687,-1.1067,-1.1479,-1.1763,-1.2066,-1.2401,-1.2697,-1.292,-1.3163,-1.3425,-1.3628,-1.3821,-1.3888,-1.404,-1.4254,0.0,0.0,0.0,0.0,0.0,0.0,0.0,0.0,0.0,0.0,-0.528,-0.5111,0.0,0.0,0.0,0.0,0.0,0.0,0.0,0.0,0.0,0.0,0.0,0.0,0.0,-0.1524,-0.112,-0.0672,-0.0179,0.0,0.0,0.0,0.0,0.0,0.0,0.0,0.0,0.0,0.0,0.0,0.0,0.0,0.0,0.0,0.0,0.0,0.5124,0.4449,0.3657,0.3327,0.2603,0.1706,0.1144,0.045,-0.0224,-0.0851,-0.1523,-0.2196,-0.2768,-0.3493,-0.4307,-0.5495,-0.6304,-0.7185,-0.8547,-0.9249,-0.9932,-1.0761,-1.1326,-1.1778,-1.2126,-1.2569,-1.292,-1.2968,-1.319,-1.3314,-1.3314,-1.3314,-1.3314,-1.3266,-1.3094,-1.2968,-1.2929,-1.2529,-1.2224,-1.2126,-1.1728,-1.1477,-1.1427,-1.1368,-1.1226,-1.082,-1.0375,-1.0059,-0.9891,-0.9469,-0.929,-0.9444,-0.9488,-0.9725,-1.0166,-1.0505,-1.0878,-1.1255,-1.1664,-1.2041,-1.2401,-1.2697,-1.3012,-1.3357,-1.3459,-1.3628,-1.3821,-1.3888,-1.396,-1.4065,0.0,0.0,0.0,0.0,0.0,0.0,0.0,-0.5852,-0.5847,-0.5755,-0.5626,-0.541,-0.5203,-0.5067,-0.4932,0.0,0.0,0.0,0.0,0.0,0.0,0.0,0.0,0.0,0.0,-0.1925,-0.1521,-0.1074,0.0,-0.009,0.0448,0.1031,0.163,0.2313,0.2988,0.35,0.3939,0.0,0.0,0.5238,0.5513,0.5681,0.0,0.0,0.0,0.0,0.0,0.427,0.3621,0.3218,0.2518,0.1796,0.1351,0.0716,-0.0,-0.0672,-0.1344,-0.2018,-0.2549,-0.3303,-0.4137,-0.5245,-0.6121,-0.7028,-0.828,-0.904,-0.9725,-1.0514,-1.1124,-1.1628,-1.1927,-1.2382,-1.2725,-1.2783,-1.3007,-1.3152,-1.3152,-1.3152,-1.3104,-1.3045,-1.292,-1.2735,-1.2578,-1.2274,-1.2026,-1.1877,-1.1528,-1.1326,-1.1326,-1.1023,-1.082,-1.0624,-1.0295,-1.0021,-0.9922,-0.9598,-0.9462,-0.9495,-0.9573,-0.9853,-1.0273,-1.0649,-1.1067,-1.1516,-1.1847,-1.2222,-1.2591,-1.285,-1.3094,-1.3323,-1.3573,-1.3708,-1.3821,-1.3894,-1.4013,-1.4111,0.0,0.0,0.0,0.0,0.0,0.0,0.0,-0.6019,-0.6019,-0.6019,-0.5927,-0.5755,-0.5458,-0.5323,-0.5236,0.0,0.0,0.0,0.0,0.0,0.0,0.0,0.0,0.0,0.0,0.0,0.0,-0.1567,-0.1074,0.0,0.0,0.0,0.0,0.0,0.239,0.2928,0.3374,0.4079,0.4574,0.0,0.0,0.5352,0.0,0.0,0.0,0.0,0.0,0.4055,0.3515,0.3016,0.2392,0.1748,0.1478,0.0852,0.009,-0.0493,-0.1208,-0.1884,-0.2373,-0.317,-0.4137,-0.5053,-0.6024,-0.6985,-0.8136,-0.8942,-0.9621,-1.0368,-1.0922,-1.1427,-1.1828,-1.2224,-1.2529,-1.2676,-1.2881,-1.3085,-1.3085,-1.3085,-1.3036,-1.2881,-1.2735,-1.2578,-1.2323,-1.2126,-1.1927,-1.1728,-1.1427,-1.1226,-1.1175,-1.0718,-1.047,-1.0522,-1.0368,-1.0234,-1.009,-0.9937,-0.9806,-0.9701,-0.983,-1.0105,-1.0457,-1.0867,-1.1356,-1.1847,-1.2174,-1.2473,-1.2815,-1.3094,-1.3232,-1.3369,-1.3687,-1.3808,-1.3874,-1.3967,-1.4078,-1.4203,0.0,0.0,0.0,0.0,0.0,0.0,0.0,-0.6019,-0.6019,-0.6019,-0.5976,-0.5976,-0.5933,-0.5669,-0.5448,0.0,0.0,0.0,0.0,0.0,0.0,0.0,0.0,0.0,0.0,0.0,0.0,-0.2055,-0.1566,0.0,0.0,0.0,0.0,0.0,0.0,0.2356,0.2803,0.3572,0.0,0.0,0.0,0.0,0.0,0.0,0.0,0.0,0.0,0.3741,0.3268,0.2871,0.2299,0.1748,0.1478,0.0852,0.009,-0.0358,-0.1119,-0.1884,-0.2373,-0.317,-0.4137,-0.5053,-0.6024,-0.6985,-0.8136,-0.8942,-0.9621,-1.0368,-1.0922,-1.1427,-1.1828,-1.2224,-1.2529,-1.2676,-1.2832,-1.2929,-1.2929,-1.2929,-1.2881,-1.2725,-1.2578,-1.248,-1.2323,-1.1977,-1.1728,-1.1728,-1.1226,-1.0871,-1.0769,-1.047,-1.0368,-1.0522,-1.0368,-1.0403,-1.0618,-1.0515,-1.0386,-1.0328,-1.0441,-1.0533,-1.0582,-1.1057,-1.1505,-1.1909,-1.2437,-1.2815,-1.3072,-1.3357,-1.356,-1.3754,-1.3854,-1.3927,-1.3967,-1.4,-1.4078,-1.4203,0.0,0.0,0.0,0.0,0.0,0.0,-0.641,-0.641,-0.641,-0.641,-0.641,-0.641,-0.641,-0.6227,-0.6007,-0.5707,0.0,0.0,0.0,0.0,0.0,0.0,0.0,0.0,0.0,0.0,-0.334,-0.2827,-0.2373,0.0,0.0,0.0,0.0,0.0,0.0,0.1836,0.2287,0.2973,0.0,0.0,0.0,0.0,0.0,0.0,0.0,0.0,0.0,0.0,0.277,0.2371,0.1869,0.1389,0.0987,0.0359,-0.0269,-0.0537,-0.1252,-0.2101,-0.2591,-0.3388,-0.4268,-0.5294,-0.6126,-0.7034,-0.8332,-0.9093,-0.9777,-1.0565,-1.1124,-1.1528,-1.1927,-1.2274,-1.2529,-1.2676,-1.2832,-1.2881,-1.2881,-1.2881,-1.2832,-1.2725,-1.2578,-1.2431,-1.2323,-1.1927,-1.1578,-1.1226,-1.1023,-1.082,-1.0565,-1.0419,-1.0368,-1.0522,-1.0368,-1.0419,-1.0718,-1.0573,-1.0484,-1.0516,-1.0615,-1.0714,-1.0878,-1.1271,-1.1763,-1.2282,-1.2733,-1.3094,-1.3357,-1.3682,-1.3848,-1.3947,-1.4138,-1.4222,-1.4241,-1.4292,-1.431,-1.4388,0.0,0.0,0.0,0.0,0.0,-0.6575,-0.6666,-0.6715,-0.6708,-0.6751,-0.6751,-0.6751,-0.6787,-0.6696,-0.652,-0.6173,-0.605,0.0,0.0,0.0,0.0,0.0,0.0,0.0,0.0,0.0,-0.4098,-0.3668,-0.3221,-0.2659,0.0,0.0,-0.076,-0.0205,0.0,0.0,0.0,0.0,0.0,0.0,0.0,0.0,0.0,0.0,0.0,0.0,0.0,0.0,0.0,0.0,0.0,0.0895,0.0449,-0.0179,-0.076,-0.094,-0.1564,-0.2277,-0.2854,-0.3561,-0.4442,-0.5534,-0.6363,-0.7224,-0.854,-0.9309,-0.9932,-1.0718,-1.1267,-1.1678,-1.2076,-1.2421,-1.2676,-1.2783,-1.292,-1.3007,-1.3007,-1.2978,-1.2929,-1.2783,-1.2627,-1.248,-1.2323,-1.1927,-1.1519,-1.1074,-1.0922,-1.082,-1.0565,-1.0419,-1.0419,-1.0522,-1.0419,-1.0522,-1.082,-1.0822,-1.0885,-1.0958,-1.1051,-1.1155,-1.1295,-1.1634,-1.209,-1.265,-1.3047,-1.3391,-1.3682,-1.4032,-1.4149,-1.4181,-1.4401,-1.4525,-1.4511,-1.456,-1.4578,-1.4578,0.0,0.0,0.0,0.0,0.0,0.0,-0.6715,-0.6715,-0.6757,-0.6872,-0.6914,-0.6914,-0.6979,-0.6979,-0.6979,-0.6979,-0.6617,0.0,0.0,0.0,0.0,0.0,0.0,0.0,0.0,0.0,-0.4894,-0.4511,-0.3963,-0.3412,-0.2863,-0.2263,-0.1746,-0.1278,0.0,0.0,0.0,0.0,0.0,0.0,0.0,0.0,0.0,0.0,0.0,0.0,0.0,0.0,0.0,0.0,0.0,0.0,0.0,-0.0716,0.0,0.0,-0.1969,-0.2413,-0.3037,-0.3744,-0.4581,-0.5773,-0.6701,-0.7571,-0.8761,-0.9532,-1.0154,-1.0769,-1.1326,-1.1828,-1.2224,-1.2627,-1.2929,-1.3075,-1.3142,-1.3218,-1.3218,-1.3152,-1.3036,-1.2929,-1.2783,-1.2578,-1.2332,-1.1927,-1.1578,-1.1326,-1.1074,-1.082,-1.0726,-1.0565,-1.0522,-1.0522,-1.0522,-1.0667,-1.1074,-1.1469,-1.1719,-1.179,-1.1901,-1.2006,-1.2009,-1.2136,-1.2461,-1.2931,-1.3378,-1.3735,-1.4019,-1.4374,-1.4501,-1.4501,-1.4732,-1.4808,-1.4808,-1.4808,-1.4808,-1.4808,0.0,0.0,0.0,0.0,0.0,0.0,0.0,-0.7167,-0.7209,-0.7251,-0.7251,-0.7251,-0.7286,-0.7286,-0.7286,-0.7286,-0.6956,0.0,0.0,0.0,0.0,0.0,0.0,0.0,0.0,0.0,-0.5701,-0.5344,-0.4899,-0.4371,-0.3776,-0.3081,-0.2507,-0.2039,-0.1377,-0.0776,0.0,0.0,0.0,0.0,0.0,0.0,0.2525,0.0,0.0,0.0,0.0,0.0,0.0,0.0,0.0,0.0,0.0,0.0,0.0,-0.2328,-0.2637,-0.3037,-0.3527,-0.4228,-0.5065,-0.6351,-0.7092,-0.7856,-0.9211,-1.0035,-1.0667,-1.1318,-1.1728,-1.2126,-1.2627,-1.2832,-1.2968,-1.3142,-1.318,-1.3218,-1.3218,-1.318,-1.3152,-1.3027,-1.2783,-1.248,-1.2175,-1.1877,-1.1578,-1.1326,-1.1124,-1.0972,-1.082,-1.082,-1.0718,-1.0624,-1.0624,-1.082,-1.1217,-1.1628,-1.1923,-1.2088,-1.2274,-1.2402,-1.2474,-1.2527,-1.2826,-1.3344,-1.3702,-1.4052,-1.4374,-1.469,-1.4845,-1.4845,-1.5072,-1.5147,-1.5147,-1.5086,-1.5056,-1.5056,0.0,0.0,0.0,0.0,0.0,0.0,0.0,-0.7419,-0.7419,-0.7503,-0.7503,-0.7538,-0.7614,-0.7621,-0.7664,-0.7837,-0.7638,0.0,0.0,0.0,0.0,0.0,0.0,0.0,0.0,-0.6943,-0.6602,-0.6225,-0.577,-0.5226,-0.4732,-0.4018,-0.3463,-0.2965,-0.2291,-0.1679,0.0,0.0,0.0,0.0,0.0,0.0,0.1515,0.0,0.0,0.0,0.0,0.0,0.0,0.0,0.0,0.0,0.0,0.0,0.0,0.0,-0.348,-0.3877,-0.4096,-0.4661,-0.5507,-0.6819,-0.7522,-0.829,-0.9723,-1.0498,-1.1124,-1.1728,-1.2076,-1.2421,-1.2871,-1.3065,-1.32,-1.3314,-1.342,-1.3467,-1.3409,-1.3362,-1.3286,-1.3123,-1.2832,-1.2529,-1.2274,-1.2026,-1.1728,-1.1469,-1.1276,-1.1124,-1.0972,-1.0922,-1.0922,-1.0922,-1.0922,-1.1124,-1.1427,-1.1877,-1.2289,-1.2639,-1.2864,-1.3026,-1.311,-1.3154,-1.3361,-1.3715,-1.4013,-1.4356,0.0,-1.4996,-1.5149,-1.5195,-1.5344,-1.5418,-1.5418,-1.5358,-1.5328,-1.5298,0.0,0.0,0.0,0.0,0.0,0.0,0.0,-0.7454,-0.7503,-0.7712,-0.7712,-0.7787,-0.7979,-0.8044,-0.8189,-0.8553,0.0,0.0,0.0,0.0,0.0,0.0,0.0,0.0,0.0,-0.7836,-0.7408,-0.7139,-0.6588,-0.605,-0.5622,-0.5073,-0.4522,-0.4021,-0.3408,-0.2796,0.0,0.0,0.0,0.0,0.0,0.0,0.0,0.0,0.0,0.0,0.0,0.0,0.0,0.0,0.0,0.0,0.0,0.0,0.0,0.0,0.0,0.0,0.0,-0.514,-0.5908,-0.7329,-0.8078,-0.8816,-1.0136,-1.0913,0.0,-1.2026,-1.2471,-1.2822,-1.3007,-1.3382,-1.3621,-1.3621,-1.3821,-1.3973,-1.3821,-1.3668,-1.3478,-1.3172,-1.2978,-1.2783,-1.2529,-1.2283,-1.1977,-1.1728,-1.1469,-1.1276,-1.1124,-1.1023,-1.1074,-1.1326,-1.1326,-1.1477,-1.1728,-1.2274,-1.2852,-1.3457,-1.3725,-1.3851,-1.387,-1.3951,-1.4028,-1.4032,-1.4319,-1.4655,-1.5043,-1.5268,-1.5418,-1.5551,-1.561,-1.5639,-1.5639,-1.561,-1.558,-1.5551,0.0,0.0,0.0,0.0,0.0,0.0,0.0,0.0,0.0,0.0,-0.7946,-0.7946,-0.7979,-0.8257,-0.8491,0.0,0.0,0.0,0.0,0.0,0.0,0.0,0.0,0.0,0.0,-0.8421,-0.8043,-0.7717,-0.7283,-0.6756,-0.6218,-0.5778,-0.5226,-0.468,-0.4073,-0.3352,0.0,0.0,0.0,0.0,0.0,0.0,0.0,0.0,0.0,0.0,-0.1903,-0.1983,0.0,0.0,0.0,0.0,0.0,0.0,0.0,0.0,-0.4879,-0.5404,-0.5776,0.0,-0.6563,-0.7888,-0.8641,-0.9432,0.0,0.0,-1.2026,-1.248,-1.2852,-1.318,-1.343,-1.3621,-1.3773,-1.3868,-1.3973,-1.3973,-1.3973,-1.3773,-1.3515,-1.3334,-1.3065,-1.2881,-1.2832,-1.2382,-1.2076,-1.2026,-1.1678,-1.1427,-1.1427,-1.1377,-1.1377,-1.1469,-1.1769,-1.1977,-1.2175,-1.2647,-1.3208,-1.3873,-1.4094,-1.419,-1.4256,-1.4299,-1.4319,-1.4319,-1.4641,-1.4982,-1.5329,-1.558,-1.5741,-1.5799,-1.5898,-1.5926,-1.5898,-1.5856,-1.5827,-1.577,0.0,0.0,0.0,0.0,0.0,0.0,0.0,0.0,0.0,0.0,0.0,0.0,0.0,0.0,0.0,0.0,0.0,0.0,0.0,0.0,0.0,0.0,0.0,0.0,0.0,-0.8949,-0.8573,-0.8196,-0.7765,-0.7343,-0.6869,-0.6431,-0.5937,-0.5445,-0.4684,0.0,0.0,0.0,0.0,0.0,-0.2296,0.0,0.0,0.0,0.0,0.0,-0.2749,-0.2849,0.0,-0.3006,-0.3149,-0.3432,0.0,0.0,0.0,0.0,-0.561,-0.6173,-0.6683,-0.681,-0.7161,-0.848,-0.9244,-0.9993,-1.1344,0.0,-1.252,-1.2949,-1.3228,-1.3457,-1.38,-1.3999,-1.4104,-1.4255,-1.4348,-1.4302,-1.4197,-1.3905,-1.3621,-1.3515,-1.3238,-1.3007,-1.2929,-1.2529,-1.2224,-1.2126,-1.1828,-1.1678,-1.1628,-1.1569,-1.1628,-1.1769,-1.2126,-1.2323,-1.2421,-1.2929,-1.3589,-1.434,-1.472,-1.4964,-1.5151,-1.509,-1.505,-1.5045,-1.5063,-1.5269,-1.561,-1.5812,-1.597,-1.6055,-1.6123,-1.6136,-1.6136,-1.6055,-1.6026,-1.597,0.0,0.0,0.0,0.0,0.0,0.0,0.0,0.0,0.0,0.0,0.0,0.0,0.0,0.0,0.0,0.0,0.0,0.0,0.0,0.0,0.0,0.0,0.0,-0.9844,-0.9666,-0.9413,-0.9099,-0.8732,-0.8249,-0.7883,-0.7628,-0.7079,-0.6647,-0.6209,-0.5234,-0.4519,0.0,0.0,-0.3516,-0.3128,-0.3072,0.0,0.0,0.0,0.0,0.0,0.0,0.0,0.0,-0.3738,-0.3956,-0.4312,-0.4661,0.0,0.0,0.0,0.0,0.0,-0.7405,-0.7524,-0.7852,-0.9079,-0.9835,-1.0571,-1.1902,0.0,-1.291,-1.3372,-1.361,-1.3847,-1.4176,-1.4373,-1.4477,-1.4627,-1.473,-1.473,-1.443,-1.4104,-1.3821,-1.3668,-1.3409,-1.318,-1.2968,-1.2725,-1.2431,-1.2175,-1.2026,-1.1877,-1.1778,-1.1778,-1.1877,-1.2175,-1.2421,-1.2657,-1.2803,-1.3276,-1.3931,-1.4755,-1.54,-1.5838,-1.6059,-1.5923,-1.5874,-1.5848,-1.5498,-1.5536,-1.5856,-1.5983,-1.6123,-1.625,-1.6274,-1.6328,-1.6301,-1.6262,-1.6179,-1.6123,0.0,0.0,0.0,0.0,0.0,0.0,0.0,0.0,0.0,0.0,0.0,0.0,0.0,0.0,0.0,0.0,0.0,0.0,0.0,0.0,0.0,0.0,-1.0514,-1.0257,-0.994,-0.9673,-0.9458,-0.9256,-0.885,-0.8533,-0.8262,-0.7777,-0.7133,-0.6327,-0.5727,-0.5344,-0.5058,-0.457,-0.4294,-0.4239,-0.3965,0.0,0.0,0.0,0.0,0.0,0.0,0.0,0.0,-0.473,-0.4866,-0.5014,-0.541,0.0,0.0,0.0,0.0,0.0,-0.7938,-0.8614,-0.9245,-0.9784,-1.0591,-1.148,-1.2415,-1.2949,-1.3372,-1.3668,-1.4046,-1.4337,-1.4523,-1.4638,-1.473,-1.4787,-1.4787,-1.473,-1.443,-1.4337,-1.4186,-1.3821,-1.361,-1.342,-1.317,-1.2958,-1.2735,-1.248,-1.2224,-1.2076,-1.2026,-1.2026,-1.2175,-1.2421,-1.2745,-1.3122,-1.3621,-1.3894,-1.4408,-1.5051,-1.5792,-1.6161,-1.6244,-1.6184,-1.6118,-1.6053,-1.5681,-1.5755,-1.6067,-1.6139,-1.6234,-1.6371,-1.6382,-1.6382,-1.6382,-1.6371,-1.6371,-1.6344,0.0,0.0,0.0,0.0,0.0,0.0,0.0,0.0,0.0,0.0,0.0,0.0,0.0,0.0,0.0,0.0,0.0,0.0,0.0,0.0,0.0,0.0,-1.082,-1.0565,-1.0265,-1.0102,-0.9829,-0.9517,-0.9256,-0.8956,-0.8586,-0.799,-0.7402,-0.6864,-0.6376,-0.605,-0.5773,-0.5449,-0.5285,-0.5171,0.0,0.0,0.0,0.0,0.0,0.0,0.0,0.0,0.0,0.0,-0.5531,-0.5825,-0.6136,0.0,0.0,0.0,0.0,0.0,-0.8521,-0.9435,-1.0365,-1.0713,-1.1332,-1.2034,-1.2898,-1.3382,-1.3716,-1.4046,-1.4337,-1.4569,-1.4846,-1.4937,-1.4994,-1.5051,-1.4994,-1.4891,-1.4686,-1.4512,-1.4337,-1.415,-1.381,-1.3563,-1.342,-1.3104,-1.2832,-1.2735,-1.248,-1.2323,-1.2323,-1.2382,-1.252,-1.2745,-1.3122,-1.3563,-1.4104,-1.4593,-1.504,-1.549,-1.6207,-1.6709,-1.709,-1.6693,-1.6604,-1.6757,-1.6099,-1.594,-1.6151,-1.6301,-1.6409,-1.6517,-1.6517,-1.6543,-1.6612,-1.649,-1.6436,-1.6398,0.0,0.0,0.0,0.0,0.0,0.0,0.0,0.0,0.0,0.0,0.0,0.0,0.0,0.0,0.0,0.0,0.0,0.0,0.0,0.0,-1.1267,-1.1175,-1.0972,-1.0769,-1.0565,-1.0368,-1.0102,-0.9673,-0.951,-0.9211,-0.8804,-0.8209,-0.7723,-0.7402,-0.7025,-0.6701,-0.6431,-0.6273,-0.6164,-0.6046,0.0,0.0,0.0,0.0,0.0,0.0,0.0,0.0,0.0,0.0,0.0,0.0,0.0,0.0,0.0,-0.7904,-0.8283,-0.8618,-0.9016,-1.0074,-1.1132,-1.1528,-1.2008,-1.2582,-1.3338,-1.3716,-1.4046,-1.4419,-1.4605,-1.48,-1.5108,-1.5198,-1.5244,-1.5345,-1.5255,-1.5108,-1.496,-1.4686,-1.4512,-1.4419,-1.4046,-1.3752,-1.361,-1.3296,-1.3017,-1.292,-1.2725,-1.2627,-1.2627,-1.2715,-1.29,-1.3122,-1.3515,-1.3988,-1.4512,-1.513,-1.5579,-1.5888,-1.6582,-1.7256,-1.7881,-1.7124,-1.7049,-1.743,-1.6472,-1.6151,-1.6316,-1.6448,-1.6596,-1.6665,-1.6665,-1.6717,-1.6785,-1.6623,-1.6517,-1.6409,0.0,0.0,0.0,0.0,0.0,0.0,0.0,0.0,0.0,0.0,0.0,0.0,0.0,0.0,0.0,0.0,0.0,0.0,0.0,0.0,-1.1326,-1.1276,-1.1023,-1.082,-1.0675,-1.0419,-1.0213,-0.9947,-0.9725,-0.9309,-0.8804,-0.8633,-0.8315,-0.7848,-0.7574,-0.7359,-0.7203,-0.6933,-0.6825,-0.682,-0.6593,0.0,0.0,0.0,0.0,0.0,0.0,0.0,0.0,0.0,0.0,0.0,0.0,0.0,-0.8021,-0.8349,-0.8692,-0.9056,-0.943,-1.0484,-1.1528,-1.1953,-1.2691,-1.3379,-1.3716,-1.4093,-1.4466,-1.4766,-1.496,-1.5153,-1.5424,-1.5468,-1.5468,-1.5468,-1.539,-1.5255,-1.5108,-1.496,-1.4731,-1.4419,-1.4373,-1.414,-1.3668,-1.3573,-1.3382,-1.3007,-1.2958,-1.2958,-1.2958,-1.3084,-1.3266,-1.3573,-1.3941,-1.4362,-1.4858,-1.5478,-1.5901,-1.62,-1.6863,-1.7529,-1.8161,-1.7391,-1.7334,-1.7719,-1.6663,-1.6344,-1.657,-1.6596,-1.6717,-1.6879,-1.6879,-1.6853,-1.6811,-1.6785,-1.6665,-1.6501,0.0,0.0,0.0,0.0,0.0,0.0,0.0,0.0,0.0,0.0,0.0,0.0,0.0,0.0,0.0,0.0,0.0,0.0,0.0,0.0,-1.1326,-1.1326,-1.1023,-1.0871,-1.082,-1.0573,-1.0368,-1.0213,-0.9777,-0.9465,-0.9159,-0.885,-0.8639,-0.8434,-0.8115,-0.7901,-0.7848,-0.7622,-0.7509,-0.7509,-0.7444,-0.7509,0.0,0.0,0.0,0.0,0.0,0.0,0.0,0.0,-0.7572,-0.7765,-0.8111,-0.8316,-0.8513,-0.8878,-0.9159,-0.943,-0.9795,-1.0857,-1.1964,-1.2265,-1.3173,-1.4035,-1.414,-1.4455,-1.4777,-1.496,-1.5198,-1.5424,-1.557,-1.5659,-1.5659,-1.5614,-1.5582,-1.5492,-1.5255,-1.5108,-1.4926,-1.4673,-1.4477,-1.428,-1.3988,-1.3752,-1.3525,-1.3382,-1.3228,-1.318,-1.3238,-1.3372,-1.361,-1.3941,-1.4316,-1.4777,-1.5311,-1.5832,-1.6411,-1.6947,-1.7352,-1.7651,-1.781,-1.7438,-1.7264,-1.7196,-1.655,-1.6382,-1.6623,-1.6691,-1.6811,-1.6946,-1.6946,-1.6921,-1.6853,-1.6853,-1.6785,-1.6691,0.0,0.0,0.0,0.0,0.0,0.0,0.0,0.0,0.0,0.0,0.0,0.0,0.0,0.0,0.0,0.0,0.0,0.0,0.0,-1.1326,-1.1276,-1.1226,-1.1023,-1.0871,-1.082,-1.0624,-1.0419,-1.0316,-0.9888,-0.9621,-0.9465,-0.9159,-0.8962,-0.8857,-0.8586,-0.8434,-0.8381,-0.8262,-0.8203,-0.8203,-0.8203,-0.8315,0.0,0.0,0.0,0.0,0.0,0.0,0.0,0.0,-0.8111,-0.8267,-0.8635,-0.8797,-0.8958,-0.9399,-0.9637,-0.9825,-1.0186,-1.1085,-1.2078,-1.2531,-1.3422,-1.4279,-1.4571,-1.4777,-1.5051,-1.5244,-1.5468,-1.5691,-1.5792,-1.5836,-1.5836,-1.5792,-1.576,-1.5626,-1.5447,-1.5255,-1.5119,-1.4914,-1.4708,-1.4455,-1.428,-1.3988,-1.381,-1.3716,-1.3563,-1.3515,-1.3658,-1.38,-1.3999,-1.4362,-1.4697,-1.5153,-1.5724,-1.6194,-1.6824,-1.7516,-1.7678,-1.7727,-1.7718,-1.7529,-1.7277,-1.6954,-1.6512,-1.6463,-1.6691,-1.6785,-1.6905,-1.7023,-1.7023,-1.6998,-1.6946,-1.6946,-1.6879,-1.6811,0.0,0.0,0.0,0.0,0.0,0.0,0.0,0.0,0.0,0.0,0.0,0.0,0.0,0.0,0.0,0.0,0.0,0.0,0.0,-1.1326,-1.1226,-1.1124,-1.0972,-1.082,-1.0718,-1.0573,-1.0419,-1.0316,-0.9955,-0.974,-0.9614,-0.9465,-0.9263,-0.9008,-0.9008,-0.891,-0.8811,-0.8811,-0.8811,-0.8811,-0.8811,-0.891,-0.8974,0.0,0.0,0.0,0.0,0.0,0.0,0.0,-0.8716,-0.8756,-0.9159,-0.9319,-0.9399,-0.9862,-1.0049,-1.0196,-1.0601,-1.1131,-1.1848,-1.275,-1.3389,-1.4027,-1.4891,-1.5108,-1.5198,-1.5626,-1.5881,-1.5988,-1.5988,-1.5988,-1.5988,-1.5988,-1.5836,-1.5715,-1.5715,-1.5492,-1.5255,-1.5108,-1.496,-1.4777,-1.4419,-1.4373,-1.4291,-1.402,-1.402,-1.4057,-1.4222,-1.4326,-1.4523,-1.4708,-1.5119,-1.5525,-1.5988,-1.6539,-1.7131,-1.7774,-1.7654,-1.7732,-1.7971,-1.7631,-1.7372,-1.7147,-1.6639,-1.6586,-1.6905,-1.6905,-1.6981,-1.7108,-1.7108,-1.7074,-1.7014,-1.7014,-1.6946,-1.6879,0.0,0.0,0.0,0.0,0.0,0.0,0.0,0.0,0.0,0.0,0.0,0.0,0.0,0.0,0.0,0.0,0.0,0.0,0.0,-1.1326,-1.1226,-1.1124,-1.0972,-1.082,-1.0718,-1.0573,-1.0419,-1.0316,-1.0058,-0.9895,-0.974,-0.9524,-0.9361,-0.9256,-0.9159,-0.9159,-0.9211,-0.9211,-0.9256,-0.9361,-0.9361,-0.9524,-0.9651,0.0,0.0,0.0,0.0,0.0,0.0,0.0,0.0,0.0,-0.9496,-0.9664,-0.9853,-1.0127,-1.0351,-1.0572,-1.0802,-1.1415,-1.2124,-1.2476,-1.3398,-1.4321,-1.472,-1.5122,-1.5468,-1.5824,-1.5957,-1.6044,-1.6144,-1.6144,-1.6144,-1.6144,-1.6001,-1.5869,-1.5792,-1.5671,-1.5492,-1.5255,-1.5108,-1.496,-1.4777,-1.4605,-1.4523,-1.4441,-1.4337,-1.4384,-1.4558,-1.4605,-1.4789,-1.5244,-1.5501,-1.5932,-1.6509,-1.6976,-1.7262,-1.7358,-1.7632,-1.7684,-1.7568,-1.7247,-1.6894,-1.6567,-1.6557,-1.6665,-1.6905,-1.7007,-1.7057,-1.7108,-1.7108,-1.7083,-1.7074,-1.7074,-1.7023,-1.6972,0.0,0.0,0.0,0.0,0.0,0.0,0.0,0.0,0.0,0.0,0.0,0.0,0.0,0.0,0.0,0.0,0.0,0.0,0.0,0.0,-1.1226,-1.1023,-1.0922,-1.082,-1.0624,-1.0522,-1.047,-1.0368,-1.0213,-1.0058,-1.0007,-0.9732,-0.9629,-0.9629,-0.9577,-0.9577,-0.9629,-0.9629,-0.9732,-0.9888,-0.9888,-0.9959,-1.0008,0.0,0.0,0.0,0.0,0.0,0.0,0.0,0.0,0.0,-0.9862,-1.0019,-1.0166,-1.0477,-1.0659,-1.084,-1.1078,-1.1518,-1.202,-1.2441,-1.3157,-1.3905,-1.4393,-1.5124,-1.578,-1.5944,-1.6088,-1.6175,-1.6275,-1.6275,-1.6275,-1.6275,-1.6188,-1.6044,-1.5925,-1.5792,-1.5671,-1.5492,-1.5345,-1.5198,-1.5062,-1.4937,-1.4857,-1.48,-1.4697,-1.4789,-1.5017,-1.5017,-1.5244,-1.5736,-1.5988,-1.6324,-1.6892,-1.7127,-1.7259,-1.7362,-1.7256,-1.719,-1.7169,-1.6984,-1.6678,-1.6328,-1.6612,-1.6811,-1.6946,-1.7057,-1.7108,-1.7108,-1.7108,-1.7108,-1.7108,-1.7108,-1.7057,-1.7023,0.0,0.0,0.0,0.0,0.0,0.0,0.0,0.0,0.0,0.0,0.0,0.0,0.0,0.0,0.0,0.0,0.0,0.0,0.0,0.0,-1.1175,-1.0922,-1.0838,-1.0704,-1.0426,-1.0418,-1.0418,-1.0418,-1.0336,-1.0316,-1.0316,-1.0102,-0.9999,-0.9999,-0.9999,-0.9999,-1.0051,-1.002,-1.0108,-1.032,-1.0289,-1.0226,-1.0075,-0.9818,0.0,0.0,0.0,0.0,0.0,0.0,0.0,0.0,-1.0205,-1.0322,-1.0438,-1.0802,-1.0926,-1.104,-1.14,-1.1522,-1.1733,-1.2548,-1.28,-1.3089,-1.4022,-1.5078,-1.5898,-1.5898,-1.6071,-1.6243,-1.6243,-1.6243,-1.6243,-1.6243,-1.6207,-1.6071,-1.5971,-1.5888,-1.5792,-1.576,-1.5614,-1.5513,-1.539,-1.5357,-1.5312,-1.5153,-1.5153,-1.5289,-1.5558,-1.5558,-1.578,-1.6244,-1.6436,-1.6778,-1.724,-1.7141,-1.7222,-1.7523,-1.676,-1.6529,-1.6744,-1.6804,-1.669,-1.6382,-1.6733,-1.6946,-1.6998,-1.7057,-1.7108,-1.7108,-1.7108,-1.7108,-1.7108,-1.7108,-1.7108,-1.7083,0.0,0.0,0.0,0.0,0.0,0.0,0.0,0.0,0.0,0.0,0.0,0.0,0.0,0.0,0.0,0.0,0.0,0.0,0.0,0.0,-1.1175,-1.0922,-1.0392,-0.9955,-0.9636,-0.9628,-0.9628,-0.9628,-1.0092,-1.0316,-1.0316,-1.0102,-0.9999,-0.9999,-0.9999,-1.0154,-1.0344,-1.0061,-1.0049,-1.0287,-1.0089,-1.0009,-1.0077,-0.9802,-0.9787,0.0,0.0,0.0,0.0,0.0,0.0,0.0,-1.0283,-1.0505,-1.0802,-1.0878,-1.1126,-1.141,-1.1485,-1.1734,-1.2039,-1.2203,-1.2798,-1.3524,-1.4208,-1.467,-1.5002,-1.5002,-1.5042,-1.5082,-1.5189,-1.5229,-1.5229,-1.5229,-1.5483,-1.5645,-1.559,-1.5874,-1.6113,-1.61,-1.5957,-1.5869,-1.5869,-1.5736,-1.5659,-1.5659,-1.5659,-1.5792,-1.6013,-1.6057,-1.6275,-1.6748,-1.6947,-1.7227,-1.7679,-1.7477,-1.7309,-1.7112,-1.6734,-1.6428,-1.618,-1.6351,-1.655,-1.6785,-1.6853,-1.6956,-1.7083,-1.7083,-1.7108,-1.7108,-1.7108,-1.7108,-1.7108,-1.7108,-1.7108,-1.7108,0.0,0.0,0.0,0.0,0.0,0.0,0.0,0.0,0.0,0.0,0.0,0.0,0.0,0.0,0.0,0.0,0.0,0.0,0.0,0.0,0.0,0.0,-0.9915,-0.9588,-0.9398,-0.9398,-0.9398,-0.9398,-0.9723,-0.9856,-0.9856,-0.9758,-0.9766,-0.9823,-0.9823,-0.9913,-1.0092,-0.9907,-0.9968,-1.0195,-1.004,-0.9981,-0.9978,-0.995,-0.9933,-0.9917,-0.9867,0.0,0.0,0.0,0.0,0.0,0.0,0.0,-1.0954,-1.1115,-1.1325,-1.156,-1.1723,-1.1932,-1.215,-1.233,-1.2794,-1.3265,-1.3692,-1.3877,-1.3951,-1.3988,-1.4399,-1.4799,-1.4877,-1.4916,-1.4916,-1.4916,-1.5076,-1.5197,-1.5116,-1.5323,-1.5467,-1.5401,-1.5592,-1.5709,-1.5709,-1.5941,-1.61,-1.61,-1.6132,-1.6262,-1.6534,-1.6565,-1.6765,-1.7157,-1.7128,-1.7289,-1.7642,-1.709,-1.6818,-1.6786,-1.6486,-1.6302,-1.6231,-1.6382,-1.6612,-1.6905,-1.6946,-1.7023,-1.7108,-1.7108,-1.7108,-1.7108,-1.7108,-1.7108,-1.7108,-1.7108,-1.7108,-1.7108,0.0,0.0,0.0,0.0,0.0,0.0,0.0,0.0,0.0,0.0,0.0,0.0,0.0,0.0,0.0,0.0,0.0,0.0,0.0,0.0,0.0,0.0,-0.9501,-0.9324,-0.926,-0.926,-0.926,-0.926,-0.926,-0.926,-0.926,-0.9388,-0.9498,-0.9606,-0.9606,-0.9698,-0.9773,-0.9707,-0.9818,-1.0079,-1.0064,-0.9978,-0.9867,-1.0067,-0.999,-0.9793,-0.998,-1.0176,-1.0322,-1.0361,0.0,0.0,0.0,0.0,-1.104,-1.14,-1.1522,-1.1634,-1.2004,-1.2138,-1.2258,-1.2627,-1.2768,-1.2873,-1.3072,-1.3107,-1.3141,-1.3198,-1.3961,-1.4626,-1.4626,-1.4626,-1.4626,-1.4626,-1.4702,-1.4739,-1.4624,-1.4711,-1.4722,-1.4631,-1.5039,-1.5377,-1.5377,-1.5899,-1.6203,-1.6203,-1.6275,-1.6414,-1.6664,-1.6762,-1.6954,-1.729,-1.7054,-1.7098,-1.7393,-1.6589,-1.6337,-1.6604,-1.6229,-1.6219,-1.6528,-1.6623,-1.6743,-1.6905,-1.6972,-1.7048,-1.7108,-1.7108,-1.7108,-1.7108,-1.7108,-1.7108,-1.7108,-1.7108,-1.7108,-1.7108,0.0,0.0,0.0,0.0,0.0,0.0,0.0,0.0,0.0,0.0,0.0,0.0,0.0,0.0,0.0,0.0,0.0,0.0,0.0,0.0,0.0,0.0,-0.9267,-0.899,-0.8625,-0.8617,-0.8617,-0.8617,-0.8741,-0.8782,-0.8799,-0.9306,-0.9606,-0.969,-0.969,-0.9819,-1.0021,-0.9663,-0.9658,-0.9933,-0.9812,-0.9731,-0.9756,-0.9946,-1.0028,-1.0088,-1.0205,-1.0312,-1.038,-1.0505,-1.0697,0.0,0.0,0.0,-1.1346,-1.1485,-1.1634,-1.1819,-1.2041,-1.2258,-1.2508,-1.2733,-1.2838,-1.2943,-1.3072,-1.3141,-1.3198,-1.3198,-1.3323,-1.3411,-1.3411,-1.3411,-1.3411,-1.3411,-1.3883,-1.4235,-1.4259,-1.4676,-1.4993,-1.5082,-1.5197,-1.5248,-1.5248,-1.5338,-1.5466,-1.5466,-1.5492,-1.5646,-1.586,-1.5909,-1.612,-1.6441,-1.6647,-1.6832,-1.7041,-1.672,-1.6573,-1.6666,-1.6401,-1.6367,-1.6596,-1.6785,-1.6879,-1.6905,-1.6972,-1.7048,-1.7108,-1.7108,-1.7108,-1.7108,-1.7108,-1.7108,-1.7108,-1.7108,-1.7108,-1.7083,0.0,0.0,0.0,0.0,0.0,0.0,0.0,0.0,0.0,0.0,0.0,0.0,0.0,0.0,0.0,0.0,0.0,0.0,0.0,0.0,0.0,-0.9115,-0.8973,-0.8807,-0.8602,-0.8594,-0.8594,-0.8594,-0.8675,-0.8724,-0.883,-0.9072,-0.923,-0.9265,-0.9299,-0.9427,-0.958,-0.9458,-0.9553,-0.9799,-0.9707,-0.9753,-0.9911,-1.0098,-1.0205,-1.0235,-1.04,-1.0544,-1.0621,-1.0736,-1.0899,-1.1023,-1.1136,0.0,0.0,0.0,-1.1808,-1.2016,-1.2258,-1.2508,-1.2685,-1.2838,-1.2943,-1.3025,-1.3129,-1.3163,-1.3198,-1.3198,-1.3198,-1.3198,-1.3198,-1.3267,-1.3288,-1.3288,-1.356,-1.376,-1.3782,-1.3999,-1.4187,-1.4236,-1.4567,-1.4809,-1.4809,-1.5192,-1.55,-1.5524,-1.5636,-1.5784,-1.6028,-1.6136,-1.6316,-1.6635,-1.6536,-1.6568,-1.6778,-1.6457,-1.635,-1.6523,-1.6495,-1.6543,-1.6717,-1.6879,-1.6946,-1.6946,-1.7023,-1.7057,-1.7108,-1.7108,-1.7108,-1.7108,-1.7108,-1.7108,-1.7108,-1.7108,-1.7074,-1.7048,0.0,0.0,0.0,0.0,0.0,0.0,0.0,0.0,0.0,0.0,0.0,0.0,0.0,0.0,0.0,0.0,0.0,0.0,0.0,0.0,0.0,-0.8911,-0.8814,-0.8765,-0.8765,-0.8765,-0.8765,-0.8765,-0.8765,-0.8854,-0.8992,-0.8992,-0.8992,-0.8984,-0.9024,-0.9145,-0.9266,-0.9377,-0.9545,-0.9713,-0.9793,-0.9902,-1.0098,-1.0244,-1.0351,-1.039,-1.0582,-1.0736,-1.086,-1.0937,-1.1061,-1.1206,-1.1384,-1.1496,0.0,0.0,0.0,-1.2222,-1.2473,-1.2662,-1.2838,-1.2943,-1.3025,-1.3141,-1.3163,-1.3198,-1.3198,-1.3198,-1.3232,-1.3267,-1.3267,-1.3323,-1.3425,-1.3425,-1.3459,-1.3514,-1.3514,-1.3514,-1.3547,-1.3594,-1.405,-1.4358,-1.4428,-1.495,-1.5296,-1.539,-1.551,-1.5708,-1.5951,-1.6082,-1.6287,-1.6541,-1.6291,-1.626,-1.6458,-1.6226,-1.6219,-1.6436,-1.657,-1.6701,-1.6853,-1.6946,-1.6998,-1.7023,-1.7083,-1.7108,-1.7108,-1.7108,-1.7108,-1.7108,-1.7108,-1.7108,-1.7108,-1.7083,-1.7048,-1.7014,0.0,0.0,0.0,0.0,0.0,0.0,0.0,0.0,0.0,0.0,0.0,0.0,0.0,0.0,-0.9643,-0.9524,0.0,0.0,0.0,0.0,0.0,-0.8984,-0.8911,0.0,-0.8879,-0.8879,-0.8879,-0.8879,-0.8943,-0.9056,-0.9177,-0.9177,-0.9217,-0.9279,-0.9217,-0.9306,-0.9484,-0.9634,-0.9713,-0.9823,-1.001,-1.0157,-1.0283,-1.039,-1.0467,-1.0582,-1.0746,-1.0812,-1.0926,-1.1033,-1.1206,-1.1394,-1.1459,-1.1571,-1.1719,0.0,0.0,0.0,-1.2627,-1.2733,-1.2838,-1.3025,-1.3094,-1.3141,-1.3163,-1.3198,-1.3198,-1.3198,-1.3301,-1.3391,-1.3391,-1.3391,-1.3425,-1.3493,-1.348,-1.3514,-1.3581,-1.3581,-1.3661,-1.3841,-1.3901,-1.3994,-1.4191,-1.4303,-1.44,-1.4566,-1.4689,-1.4847,-1.5051,-1.5203,-1.537,-1.5551,-1.5742,-1.5901,-1.6029,-1.6277,-1.6436,-1.6596,-1.6659,-1.6805,-1.6972,-1.7014,-1.7023,-1.7083,-1.7108,-1.7108,-1.7108,-1.7108,-1.7108,-1.7108,-1.7108,-1.7108,-1.7083,-1.7023,-1.6998,-1.6972,0.0,0.0,0.0,0.0,0.0,0.0,0.0,0.0,0.0,0.0,0.0,0.0,0.0,-0.9753,-0.9683,-0.9643,-0.9417,0.0,0.0,0.0,0.0,-0.9016,-0.8984,-0.8943,-0.8943,-0.8943,-0.9024,0.0,-0.9105,-0.9177,-0.9248,-0.9248,-0.9328,-0.9426,-0.9395,-0.9475,-0.9643,-0.9713,-0.9862,-1.001,-1.0157,-1.0273,-1.039,-1.0582,-1.0708,-1.0746,-1.0919,-1.0995,-1.1113,-1.1563,-1.1865,-1.1992,-1.2059,-1.2201,-1.2336,-1.2253,-1.233,-1.2508,-1.2697,-1.2803,-1.2908,-1.306,-1.3141,-1.3163,-1.3198,-1.3267,-1.3323,-1.3323,-1.3391,-1.3493,-1.3514,-1.3514,-1.3547,-1.3547,-1.3628,-1.3708,-1.3708,-1.3775,-1.3808,-1.3888,-1.404,-1.4203,-1.4268,-1.4461,-1.4574,-1.47,-1.4811,-1.4996,-1.5225,-1.5329,-1.5522,-1.5797,-1.5926,-1.6123,-1.6382,-1.6528,-1.6675,-1.6785,-1.6898,-1.6991,-1.7074,-1.7099,-1.7124,-1.7149,-1.7108,-1.7108,-1.7108,-1.7108,-1.7108,-1.7108,-1.7108,-1.7057,-1.7023,-1.6998,-1.6946,-1.6853,0.0,0.0,0.0,0.0,0.0,0.0,0.0,0.0,0.0,0.0,0.0,0.0,0.0,0.0,-0.9713,-0.9643,-0.9466,-0.9337,-0.9248,-0.9136,-0.9088,-0.9088,-0.9088,-0.9088,-0.9088,-0.9088,0.0,0.0,0.0,0.0,-0.9377,-0.9417,-0.9496,-0.9594,-0.9634,-0.9674,-0.9753,-0.9862,-1.001,-1.0166,-1.0273,-1.0428,-1.0534,-1.0736,-1.0833,-1.093,-1.125,-1.139,-1.1531,-1.2109,-1.2432,-1.2593,-1.2674,-1.2873,-1.3007,-1.2714,-1.2745,-1.2842,-1.2839,-1.2908,-1.2978,-1.3094,-1.3163,-1.3198,-1.3267,-1.3323,-1.3425,-1.3425,-1.348,-1.3547,-1.3581,-1.3661,-1.3661,-1.3661,-1.3741,-1.3821,-1.3821,-1.3888,-1.3908,-1.3974,-1.417,-1.4332,-1.4429,-1.462,-1.4808,-1.4963,-1.5058,-1.5255,-1.5522,-1.5624,-1.5797,-1.6108,-1.6219,-1.6409,-1.6659,-1.6763,-1.6898,-1.6981,-1.7108,-1.7158,-1.7158,-1.7224,-1.7224,-1.7215,-1.7149,-1.7108,-1.7108,-1.7108,-1.7108,-1.7108,-1.7074,-1.7048,-1.6972,-1.6946,-1.6879,-1.6785,0.0,0.0,0.0,0.0,0.0,0.0,0.0,0.0,0.0,0.0,0.0,0.0,0.0,0.0,0.0,-0.9551,-0.9551,-0.9462,-0.9355,-0.9346,-0.9297,-0.9297,0.0,0.0,0.0,0.0,0.0,0.0,0.0,0.0,0.0,0.0,-0.9753,-0.9823,-0.9941,-0.9941,-0.9823,-1.001,-1.0166,-1.0322,-1.038,-1.0582,-1.0784,-1.0822,-1.0919,-1.1145,-1.1625,-1.1943,-1.2178,-1.2676,-1.2975,-1.3142,-1.3278,-1.3545,-1.3714,-1.3229,-1.3305,-1.341,0.0,0.0,0.0,-1.3163,-1.3198,-1.3232,-1.3357,-1.3391,-1.3425,-1.348,-1.3547,-1.3615,-1.3615,-1.3695,-1.3788,-1.3788,-1.3788,-1.3821,-1.3888,-1.3921,-1.3974,-1.417,-1.4254,-1.4429,-1.4683,-1.4777,-1.4963,-1.5283,-1.5374,-1.5551,-1.5799,-1.5955,-1.6136,-1.6382,-1.6543,-1.6675,-1.6815,-1.7016,-1.7149,-1.7199,-1.7273,-1.7306,-1.7306,-1.7306,-1.7273,-1.7215,-1.7215,-1.7149,-1.7108,-1.7108,-1.7108,-1.7083,-1.7023,-1.7014,-1.6972,-1.6853,-1.6811,-1.6785,0.0,0.0,0.0,0.0,0.0,0.0,0.0,0.0,0.0,0.0,0.0,0.0,0.0,-1.0522,-1.057,-1.0536,-1.0397,-1.0353,-1.0301,-0.9956,-0.9721,-0.9721,-0.9438,-0.9319,0.0,0.0,0.0,0.0,0.0,0.0,0.0,0.0,0.0,0.0,-1.001,-1.0127,-1.0166,-1.0205,-1.0273,-1.039,-1.0582,-1.0736,-1.0822,-1.0957,-1.1044,-1.1183,-1.1783,-1.2063,-1.2262,-1.3214,-1.3618,-1.3802,-1.409,-1.4016,-1.3783,-1.3371,-1.3406,-1.3484,-1.302,0.0,0.0,0.0,0.0,0.0,-1.3391,-1.3493,-1.3547,-1.3581,-1.3661,-1.3741,-1.3741,-1.3775,-1.3788,-1.3788,-1.3788,-1.3821,-1.3888,-1.3927,-1.4046,-1.4268,-1.4369,-1.4529,-1.4732,-1.4963,-1.5147,-1.5283,-1.5536,-1.5755,-1.5955,-1.6274,-1.6501,-1.6686,-1.6873,-1.6991,-1.7083,-1.7183,-1.7257,-1.7257,-1.7346,-1.7371,-1.7371,-1.7371,-1.7346,-1.7338,-1.724,-1.7174,-1.7174,-1.7108,-1.7074,-1.7023,-1.7014,-1.6946,-1.6853,-1.6811,-1.6743,-1.6649,0.0,0.0,0.0,0.0,0.0,0.0,-1.0765,-1.0885,-1.0933,0.0,0.0,0.0,0.0,0.0,-1.0901,-1.0901,-1.0812,-1.0767,-1.0767,-1.0505,-1.0301,-1.0301,-1.011,-0.9902,-0.974,0.0,0.0,0.0,0.0,0.0,0.0,0.0,0.0,0.0,0.0,-1.0273,-1.0351,-1.0477,-1.0544,-1.0582,-1.0746,-1.086,-1.0957,-1.1044,-1.1168,-1.1318,-1.2087,-1.2405,-1.2628,-1.3762,-1.4216,-1.4439,-1.4748,-1.4724,-1.4422,-1.3812,-1.3819,-1.3801,-1.3104,-1.3012,-1.3163,-1.3267,0.0,0.0,-1.3459,-1.3547,-1.3615,-1.3661,-1.3741,-1.3788,-1.3788,-1.3788,-1.3788,-1.3788,-1.3821,-1.3888,-1.3927,-1.4013,-1.4144,-1.4319,-1.4465,-1.4655,-1.4825,-1.5086,-1.5283,-1.5418,-1.5712,-1.5983,-1.6246,-1.6501,-1.6712,-1.6924,-1.7075,-1.7191,-1.7289,-1.7345,-1.7394,-1.7434,-1.7458,-1.7474,-1.7451,-1.7451,-1.7443,-1.7387,-1.7298,-1.7224,-1.7174,-1.7099,-1.7023,-1.7014,-1.6972,-1.6879,-1.6785,-1.6717,-1.6623,-1.6554,0.0,0.0,0.0,-1.1002,-1.1275,-1.143,-1.1297,-1.1564,-1.1737,0.0,0.0,0.0,0.0,0.0,0.0,0.0,-1.1039,-1.1039,-1.1039,-1.1002,-1.0975,-1.0975,-1.0929,-1.0735,-1.0385,-1.0376,0.0,0.0,0.0,0.0,0.0,0.0,0.0,0.0,0.0,0.0,-1.0457,-1.0697,-1.0822,-1.0822,-1.0822,-1.0957,-1.1092,-1.112,-1.1233,-1.1502,-1.2427,-1.2815,-1.3084,-1.4249,-1.4743,-1.496,-1.5255,-1.5344,-1.523,-1.4399,-1.4253,-1.4195,-1.3178,-1.3047,-1.3232,-1.3357,-1.3425,0.0,-1.3581,-1.3615,-1.3661,-1.3788,-1.3788,-1.3788,-1.3788,-1.3788,-1.3788,-1.3788,-1.3841,-1.3927,-1.4,-1.4124,-1.4254,-1.4383,-1.4574,-1.4777,-1.4932,-1.5147,-1.5388,-1.561,-1.5883,-1.6219,-1.6581,-1.6712,-1.6857,-1.7133,-1.7183,-1.7288,-1.7408,-1.7479,-1.7549,-1.7612,-1.7612,-1.7566,-1.7512,-1.7512,-1.7458,-1.7395,-1.733,-1.7273,-1.7199,-1.7065,-1.7014,-1.6972,-1.6921,-1.6853,-1.6743,-1.6554,-1.6501,-1.6474,0.0,0.0,-1.1447,-1.1447,-1.182,-1.2035,-1.1812,-1.184,-1.1814,0.0,0.0,0.0,0.0,0.0,0.0,0.0,-1.1886,-1.1886,-1.1886,-1.1544,-1.137,-1.137,-1.1085,-1.0864,-1.0791,-1.0879,0.0,0.0,0.0,0.0,0.0,0.0,0.0,0.0,0.0,-1.0505,-1.0736,-1.085,-1.0937,-1.1044,-1.1044,-1.1044,-1.113,-1.1282,-1.1357,-1.1497,-1.2117,-1.2644,-1.3222,-1.4451,-1.4915,-1.5108,-1.5379,-1.5186,-1.4771,-1.4401,-1.4053,-1.3717,-1.308,-1.3047,-1.3232,-1.3357,-1.3459,0.0,-1.3581,-1.3695,-1.3788,-1.3788,-1.3788,-1.3788,-1.3788,-1.3788,-1.3788,-1.3788,-1.3894,-1.4,-1.4,-1.4124,-1.4254,-1.4452,-1.4592,-1.4839,-1.5117,-1.5284,-1.5492,-1.5741,-1.6123,-1.6463,-1.6738,-1.6924,-1.7125,-1.7329,-1.7337,-1.7432,-1.7566,-1.7572,-1.7589,-1.7612,-1.7612,-1.7589,-1.7589,-1.7519,-1.7489,-1.7465,-1.7354,-1.7281,-1.7273,-1.7074,-1.6972,-1.6905,-1.6853,-1.6717,-1.6554,-1.6501,-1.649,-1.6409,0.0,-1.1426,-1.1684,-1.1913,-1.2296,-1.2508,-1.2297,-1.2423,-1.2473,0.0,0.0,0.0,-1.2158,-1.225,-1.2234,-1.2126,0.0,0.0,-1.2076,-1.1893,-1.1783,-1.1783,-1.1628,-1.1417,-1.1177,-1.1315,-1.1294,0.0,0.0,0.0,0.0,0.0,0.0,0.0,0.0,-1.1023,-1.118,-1.1079,-1.1071,-1.1158,-1.1158,-1.1195,-1.1271,-1.1357,-1.1421,-1.1513,-1.2008,-1.2608,-1.3281,-1.3933,-1.4221,-1.4393,-1.4619,-1.4516,-1.4252,-1.397,-1.3812,-1.3582,-1.3043,-1.3047,-1.3232,-1.3425,-1.3493,0.0,0.0,-1.3741,-1.3788,-1.3788,-1.3788,-1.3788,-1.3788,-1.3788,-1.3821,-1.3854,-1.3914,-1.4032,-1.4078,-1.4222,-1.4351,-1.447,-1.4686,-1.4902,-1.5178,-1.5374,-1.5653,-1.6024,-1.6301,-1.657,-1.6889,-1.7057,-1.7216,-1.7384,-1.7455,-1.7566,-1.7704,-1.7726,-1.7772,-1.7811,-1.7772,-1.7726,-1.7698,-1.7589,-1.7536,-1.7489,-1.7362,-1.7306,-1.7281,-1.7048,-1.6946,-1.6879,-1.6743,-1.6623,-1.6501,-1.6421,-1.6355,-1.6289,-1.1674,-1.1819,-1.1954,-1.237,-1.2762,-1.2981,-1.2771,-1.3007,-1.3132,0.0,0.0,-1.2627,-1.2529,-1.2382,-1.2234,-1.2126,-1.2076,-1.2076,-1.2076,-1.2076,-1.2076,-1.2076,-1.2076,-1.1978,-1.1656,-1.1798,-1.1724,-1.1412,0.0,0.0,0.0,0.0,0.0,0.0,0.0,-1.1665,-1.1756,-1.1446,-1.1323,-1.1388,-1.1303,-1.1309,-1.1394,-1.1421,-1.1459,-1.1577,-1.2086,-1.2685,-1.3215,-1.3376,-1.3522,-1.3633,-1.3848,-1.3818,-1.3694,-1.355,-1.3532,-1.3447,-1.3018,-1.3047,-1.3267,-1.3425,-1.348,-1.356,0.0,0.0,0.0,-1.3788,-1.3788,-1.3788,-1.3788,-1.3788,-1.3821,-1.3888,-1.396,-1.4046,-1.417,-1.4319,-1.4433,-1.4501,-1.4749,-1.4994,-1.5192,-1.5492,-1.5854,-1.6274,-1.6448,-1.6675,-1.6981,-1.7149,-1.7355,-1.7647,-1.779,-1.8007,-1.8274,-1.8342,-1.8387,-1.8449,-1.8387,-1.8234,-1.8037,-1.7899,-1.7723,-1.7512,-1.7362,-1.7306,-1.7281,-1.7007,-1.6905,-1.6879,-1.6649,-1.6528,-1.6474,-1.6328,-1.6234,-1.6166,-1.2214,-1.2503,-1.2793,-1.2844,-1.3227,-1.3433,-1.3195,-1.3188,-1.3132,0.0,-1.2783,-1.2627,-1.2529,-1.2382,-1.2234,-1.2126,-1.2076,-1.2076,-1.2076,-1.2076,-1.2076,-1.2076,-1.2076,-1.2157,-1.2209,-1.2355,-1.2434,-1.2532,0.0,0.0,0.0,0.0,0.0,-1.2083,-1.216,-1.2267,-1.2373,-1.2112,-1.1987,-1.1984,-1.1621,-1.1459,-1.1421,-1.1459,-1.1485,-1.1588,-1.2291,-1.2659,-1.285,-1.3403,-1.3593,-1.3633,-1.3848,-1.3572,-1.3235,-1.3442,-1.3265,-1.2981,-1.292,-1.3047,-1.3232,-1.3391,-1.3459,-1.3514,-1.3581,0.0,-1.3788,-1.3788,0.0,-1.3788,-1.3788,0.0,0.0,-1.3888,-1.396,-1.4046,-1.417,-1.4369,-1.4501,-1.4501,-1.4749,-1.4994,-1.5253,-1.5755,-1.6123,-1.6301,-1.6512,-1.6773,-1.7009,-1.7183,-1.7674,-1.8525,-1.8737,-1.9171,-1.9923,-1.9996,-2.0045,-2.0045,-1.9972,-1.9549,-1.8852,-1.8728,-1.8279,-1.7589,-1.7377,-1.7314,-1.7281,-1.7007,-1.6905,-1.6879,-1.6623,-1.649,-1.6398,-1.6262,-1.6151,-1.6095,-1.2648,-1.2793,-1.301,-1.3279,-1.3392,-1.342,-1.3218,-1.3084,-1.3007,-1.2929,-1.2783,-1.2627,-1.2529,-1.2382,-1.2234,-1.2126,-1.2076,-1.2076,-1.2076,-1.2076,-1.2076,-1.2076,-1.2076,-1.2175,-1.2274,-1.2421,-1.2578,-1.2676,-1.2695,0.0,0.0,0.0,0.0,-1.2838,-1.2772,-1.2834,-1.2945,-1.2646,-1.2351,-1.2149,-1.1953,-1.1763,-1.1582,-1.1533,-1.1571,-1.1667,-1.2016,-1.2159,-1.2295,-1.2602,-1.2747,-1.2747,-1.2986,-1.2883,-1.2743,-1.2962,-1.2985,-1.2896,-1.2896,-1.3047,-1.3232,-1.3357,-1.3459,-1.3514,-1.3581,-1.3695,-1.3788,-1.3788,0.0,0.0,0.0,0.0,0.0,0.0,-1.3967,-1.4065,-1.4222,-1.4388,-1.4501,-1.4501,-1.4766,-1.5118,-1.5536,-1.5898,-1.6207,-1.6394,-1.6986,-1.7439,-1.7685,-1.8248,-1.8816,-1.932,-1.9521,-1.9813,-2.0218,-2.0309,-2.0357,-2.0357,-2.0243,-1.9809,-1.9035,-1.8846,-1.8322,-1.7589,-1.7386,-1.7289,-1.7281,-1.7007,-1.6863,-1.6753,-1.6543,-1.6409,-1.6371,-1.6207,-1.6095,-1.6039,-1.2976,-1.3022,-1.3181,-1.3511,-1.3467,-1.3372,-1.318,-1.3007,-1.2881,-1.2832,-1.2735,-1.2578,-1.248,-1.2332,-1.2224,-1.2126,-1.2076,-1.2076,-1.2076,-1.2076,-1.2076,-1.2076,-1.2076,-1.2175,-1.2323,-1.2421,-1.2578,-1.2725,0.0,0.0,0.0,0.0,0.0,0.0,-1.3407,-1.3408,-1.3512,-1.3184,-1.2782,-1.2396,-1.2305,-1.2053,-1.1719,-1.1608,-1.1634,-1.1756,-1.1819,-1.1881,-1.1979,-1.2077,-1.2113,-1.215,-1.2294,-1.2365,-1.2449,-1.2591,-1.2768,-1.2861,-1.2896,-1.3012,-1.3198,-1.3323,-1.3425,-1.348,-1.3547,-1.3661,-1.3741,-1.3788,-1.3788,0.0,0.0,0.0,-1.3874,-1.3967,0.0,-1.4111,-1.4287,-1.4433,-1.4501,-1.4547,-1.489,-1.5285,-1.577,-1.615,-1.6524,-1.6772,-1.7626,-1.8246,-1.8486,-1.9153,-1.9694,-2.0123,-2.0348,-2.0577,-2.0841,-2.0958,-2.1024,-2.1032,-2.0891,-2.0448,-1.973,-1.9251,-1.8624,-1.7873,-1.7493,-1.7306,-1.7257,-1.7007,-1.6795,-1.6659,-1.6463,-1.6371,-1.6316,-1.6151,-1.6011,-1.5926,-1.3198,-1.3389,-1.3542,-1.3409,-1.342,-1.3334,-1.3123,-1.2978,-1.2832,-1.2725,-1.2578,-1.248,-1.2323,-1.2175,-1.2076,-1.2076,-1.2076,-1.2076,-1.2076,-1.2076,-1.2076,-1.2076,-1.2076,-1.2224,-1.248,-1.248,-1.2627,-1.2881,-1.3027,0.0,0.0,0.0,0.0,0.0,-1.3905,-1.4035,-1.4168,-1.3815,-1.3379,-1.2835,-1.2527,-1.213,-1.1782,-1.1782,-1.1819,-1.1881,-1.1881,-1.1979,-1.2077,-1.2113,-1.2113,-1.2113,-1.2174,-1.2294,-1.2413,-1.2473,-1.265,-1.2838,-1.2861,-1.299,-1.3141,-1.3198,-1.3288,-1.3425,-1.348,-1.3547,-1.3661,-1.3775,-1.3788,-1.3788,-1.3788,-1.3854,-1.3908,-1.4,-1.4124,0.0,0.0,-1.4465,-1.4547,-1.4669,-1.5088,-1.5507,-1.577,-1.6647,-1.7293,-1.7553,-1.8429,-1.9045,-1.9239,-1.9476,-2.0013,-2.0927,-2.1223,-2.1695,-2.2429,-2.2563,-2.2643,-2.2599,-2.2483,-2.2036,-2.131,-2.0374,-1.9504,-1.8617,-1.7715,-1.7265,-1.7174,-1.6981,-1.6785,-1.6596,-1.6382,-1.6262,-1.6194,-1.6067,-1.5926,-1.5799,-1.3218,-1.3266,-1.3314,-1.3266,-1.3238,-1.3162,-1.2978,-1.2929,-1.2832,-1.2725,-1.2578,-1.2431,-1.2323,-1.2175,-1.2076,-1.2076,-1.2076,-1.2076,-1.2076,-1.2076,-1.2076,-1.2076,-1.2076,-1.2224,-1.248,-1.248,-1.2627,-1.2881,-1.3104,0.0,0.0,0.0,0.0,0.0,-1.3926,-1.4057,-1.4212,-1.4163,-1.3729,-1.296,-1.2351,-1.2002,-1.1856,-1.1819,-1.1856,-1.1881,-1.1881,-1.1979,-1.2113,-1.2113,-1.2113,-1.2113,-1.2174,-1.2246,-1.2282,-1.2461,-1.2627,-1.2745,-1.2838,-1.2943,-1.3107,-1.3141,-1.3267,-1.3425,-1.3425,-1.3514,-1.3615,-1.3661,-1.3741,-1.3788,-1.3788,-1.3854,-1.3908,-1.4,-1.4111,-1.4403,0.0,-1.5583,-1.607,-1.6251,-1.6152,-1.617,-1.6458,-1.7319,-1.7974,-1.8302,-1.9188,-1.9825,-2.0074,-2.0747,-2.1283,-2.1647,-2.1942,-2.2258,-2.2515,-2.2632,-2.2712,-2.2712,-2.2552,-2.1848,-2.066,-2.0154,-1.9194,-1.7876,-1.7485,-1.7232,-1.7108,-1.6873,-1.6686,-1.6501,-1.6301,-1.6139,-1.597,-1.5913,-1.5856,-1.577,-1.3094,-1.3094,-1.3094,-1.3142,-1.3113,-1.2978,-1.2929,-1.2881,-1.2783,-1.2627,-1.2529,-1.2382,-1.2224,-1.2175,-1.2076,-1.2076,-1.2076,-1.2076,-1.2076,-1.2076,-1.2076,-1.2076,-1.2076,-1.2224,-1.248,-1.248,-1.2627,-1.2881,-1.3084,-1.3218,0.0,0.0,0.0,0.0,-1.3973,-1.4104,-1.428,-1.4373,-1.4015,-1.3275,-1.2507,-1.2113,-1.1943,-1.1881,-1.1856,-1.1918,-1.1943,-1.2016,-1.2041,-1.2077,-1.2113,-1.2113,-1.2138,-1.2174,-1.2246,-1.2401,-1.2556,-1.2662,-1.2768,-1.2885,-1.299,-1.3072,-1.3198,-1.3288,-1.3391,-1.348,-1.3581,-1.3615,-1.3708,-1.3821,-1.3821,-1.3908,-1.4027,-1.4339,-1.4499,-1.4883,0.0,-1.6382,-1.6927,-1.7098,-1.6917,-1.6895,-1.7164,-1.8036,-1.8734,-1.9088,-1.9967,-2.0629,-2.0885,-2.1532,-2.194,-2.1998,-2.2315,-2.2515,-2.2515,-2.2632,-2.2685,-2.2659,-2.2552,-2.1839,-2.0602,-2.0119,-1.9161,-1.7861,-1.7453,-1.7199,-1.7032,-1.6779,-1.6581,-1.6394,-1.6234,-1.6055,-1.5871,-1.5827,-1.5712,-1.5566,-1.2881,-1.2881,-1.2929,-1.3085,-1.2978,-1.2881,-1.2881,-1.2783,-1.2627,-1.2529,-1.2382,-1.2234,-1.2126,-1.2076,-1.2076,-1.2076,-1.2076,-1.2085,-1.2104,-1.2104,-1.2113,-1.2131,-1.2131,-1.228,-1.2508,-1.2508,-1.2646,-1.2881,-1.3084,-1.3218,0.0,0.0,0.0,0.0,-1.402,-1.415,-1.4373,-1.4373,-1.4169,-1.3695,-1.2957,-1.2461,-1.2077,-1.1954,-1.1881,-1.1918,-1.2041,-1.2016,-1.1918,-1.2041,-1.2077,-1.2077,-1.2077,-1.2138,-1.221,-1.2365,-1.2437,-1.2544,-1.2733,-1.2803,-1.2838,-1.3025,-1.3094,-1.3129,-1.3323,-1.3459,-1.3514,-1.3581,-1.3695,-1.3821,-1.3888,-1.3947,-1.4233,-1.4977,-1.5284,-1.571,-1.6642,-1.688,-1.7082,-1.7267,-1.7485,-1.7703,-1.7919,-1.8818,-1.9496,-1.9799,-2.0703,-2.131,-2.1589,-2.1797,-2.194,-2.1998,-2.2315,-2.2487,-2.2487,-2.2605,-2.2659,-2.2579,-2.2542,-2.2024,-2.1136,-2.0269,-1.9386,-1.8477,-1.7592,-1.714,-1.6972,-1.6691,-1.649,-1.6274,-1.6136,-1.5955,-1.577,-1.577,-1.5566,-1.5222,-1.2881,-1.2832,-1.2783,-1.2783,-1.2774,-1.2725,-1.2725,-1.2627,-1.248,-1.2382,-1.2323,-1.2234,-1.2126,-1.2026,-1.1977,-1.1977,-1.1877,-1.1944,-1.2386,-1.2413,-1.2602,-1.2965,-1.2984,-1.2942,-1.2782,-1.2874,-1.2884,-1.2725,-1.3035,-1.3218,-1.3218,0.0,0.0,0.0,-1.402,-1.415,-1.4373,-1.4373,-1.3982,-1.3315,-1.2771,-1.2309,-1.1954,-1.1856,-1.1782,-1.1756,-1.1856,-1.1856,-1.1819,-1.1881,-1.1918,-1.1943,-1.1943,-1.2052,-1.2138,-1.2246,-1.2246,-1.2318,-1.2508,-1.2662,-1.2745,-1.2838,-1.299,-1.3107,-1.3163,-1.3288,-1.3459,-1.3514,-1.3581,-1.3695,-1.3874,-1.3947,-1.4266,-1.5053,-1.6157,-1.706,-1.7331,-1.7902,-1.8424,-1.8731,-1.8927,-1.8947,-1.8658,-1.9473,-2.0177,-2.0526,-2.0943,-2.131,-2.1589,-2.1797,-2.194,-2.1998,-2.2276,-2.2432,-2.2432,-2.2515,-2.2525,-2.2525,-2.246,-2.1725,-2.0357,-1.9991,-1.9009,-1.7609,-1.7273,-1.6991,-1.6779,-1.6607,-1.6409,-1.6207,-1.6026,-1.5741,-1.5433,-1.5433,-1.5208,-1.4932,-1.2725,-1.2676,-1.2627,-1.2627,-1.2578,-1.2529,-1.2578,-1.248,-1.2382,-1.2332,-1.2175,-1.2076,-1.2026,-1.1877,-1.1819,-1.1819,-1.1888,-1.2075,-1.2341,-1.2511,-1.2762,-1.3168,-1.3177,-1.3176,-1.3159,-1.3129,-1.3074,-1.2945,-1.3096,-1.318,-1.3218,0.0,0.0,0.0,-1.402,-1.415,-1.4373,-1.4477,-1.3961,-1.3129,-1.2932,-1.2435,0.0,-1.1793,-1.1719,-1.1693,-1.1682,-1.1719,-1.1756,-1.1782,-1.1819,-1.1856,-1.1856,-1.1918,-1.2052,-1.2138,-1.2174,-1.2246,-1.2401,-1.2544,-1.2627,-1.2733,-1.2885,-1.3025,-1.3107,-1.3267,-1.3425,-1.348,-1.3547,-1.3682,-1.3894,-1.4193,-1.4782,-1.594,-1.7144,-1.7983,-1.8106,-1.8593,-1.9026,-1.9302,-1.9523,-1.9555,-1.9405,-1.9951,-2.0475,-2.0794,-2.1038,-2.131,-2.1589,-2.1768,-2.1899,-2.1998,-2.2248,-2.2366,-2.2405,-2.246,-2.2487,-2.246,-2.2377,-2.1515,-2.001,-1.9829,-1.8833,-1.724,-1.7108,-1.6914,-1.6633,-1.6474,-1.6301,-1.6067,-1.577,-1.5448,-1.5163,-1.5086,-1.4963,-1.4777,-1.248,-1.248,-1.248,-1.2421,-1.2323,-1.2274,-1.2382,-1.2323,-1.2234,-1.2234,-1.2026,-1.1877,-1.1877,-1.1769,-1.1696,-1.1749,-1.2016,-1.2202,-1.2299,-1.267,-1.2937,-1.3092,-1.3157,-1.3305,-1.3488,-1.334,-1.3252,-1.3292,-1.3194,-1.3163,0.0,0.0,0.0,-1.3962,-1.3973,-1.415,-1.443,-1.4523,-1.4016,-1.312,-1.3215,-1.2664,-1.1793,-1.1682,-1.1682,-1.1645,-1.1522,-1.156,-1.1682,-1.1756,-1.1782,-1.1782,-1.1782,-1.1819,-1.1918,-1.2041,-1.2113,-1.2174,-1.233,-1.2437,-1.2508,-1.2627,-1.2768,-1.2908,-1.3025,-1.3232,-1.3391,-1.3493,-1.3547,-1.3682,-1.3967,-1.4593,-1.56,-1.7111,-1.7995,-1.8581,-1.8822,-1.8988,-1.9176,-1.9413,-1.9581,0.0,-2.0041,-2.025,-2.0509,-2.0794,-2.1038,-2.131,-2.1589,-2.1708,-2.184,-2.1998,-2.2192,-2.231,-2.2377,-2.2432,-2.2432,-2.2377,-2.231,-2.1406,-1.9872,-1.9724,-1.8762,-1.719,-1.7023,-1.6827,-1.657,-1.6355,-1.6163,-1.5883,-1.5448,-1.5163,-1.4951,-1.4794,-1.4746,-1.4683,-1.248,-1.2421,-1.2274,-1.2175,-1.2076,-1.1927,-1.1877,-1.1927,-1.1977,-1.1977,-1.1828,-1.1728,-1.1728,-1.1628,-1.165,-1.1922,-1.1904,-1.2215,-1.2968,-1.3072,-1.3353,-1.3788,-1.3992,-1.3898,-1.3603,-1.3811,-1.3669,-1.3138,-1.3326,-1.3352,0.0,0.0,-1.3563,-1.3821,-1.3962,-1.415,-1.4373,-1.443,-1.3916,-1.3079,-1.3026,-1.2454,-1.1682,-1.1571,-1.1522,-1.1522,-1.1522,-1.1522,-1.1522,-1.156,-1.1645,-1.1719,-1.1719,-1.1756,-1.1819,-1.1918,-1.1954,-1.1979,-1.2174,-1.2246,-1.2282,-1.2508,-1.2627,-1.2768,-1.2908,-1.306,-1.3232,-1.3459,-1.3547,-1.3682,-1.3967,-1.5155,-1.647,-1.7399,-1.8172,-1.8736,-1.9026,-1.9064,-1.925,-1.9617,-1.9726,-1.9904,-2.02,-2.0354,-2.0509,-2.0794,-2.099,-2.1263,-2.1589,-2.1664,-2.1797,-2.1911,-2.2123,-2.2225,-2.2225,-2.2242,-2.2242,-2.2225,-2.2118,-2.1234,-1.9724,-1.959,-1.8641,-1.7108,-1.6795,-1.657,-1.6409,-1.6262,-1.5983,-1.5566,-1.5328,-1.5056,-1.4794,-1.4556,-1.4397,-1.43,-1.2076,-1.2026,-1.1977,-1.1877,-1.1828,-1.1769,-1.1728,-1.1728,-1.1728,-1.1778,-1.1678,-1.1628,-1.1628,-1.1652,-1.1748,-1.1877,-1.2201,-1.2586,-1.307,-1.3269,-1.351,-1.3881,-1.4019,-1.4049,-1.397,-1.3926,-1.3756,-1.3417,-1.3407,-1.3331,-1.3152,-1.3228,-1.342,-1.3716,-1.3999,-1.4186,-1.4326,-1.4373,-1.3872,-1.2984,-1.2942,-1.2374,-1.1608,-1.1522,-1.1485,-1.1459,-1.1459,-1.141,-1.1373,-1.1448,-1.1522,-1.1608,-1.1608,-1.1682,-1.1756,-1.1782,-1.1819,-1.1881,-1.2016,-1.2113,-1.221,-1.2401,-1.2591,-1.2745,-1.2873,-1.299,-1.3163,-1.3459,-1.3547,-1.3898,-1.4916,-1.586,-1.6864,-1.7899,-1.8536,-1.8965,-1.9064,-1.9265,-1.945,-1.969,-1.9797,-1.999,-2.027,-2.0407,-2.0561,-2.0811,-2.1022,-2.1231,-2.1464,-2.1603,-2.1724,-2.184,-2.1974,-2.2077,-2.2106,-2.2106,-2.2077,-2.2049,-2.1928,-2.1076,-1.9547,-1.9411,-1.8448,-1.6882,-1.6675,-1.649,-1.6262,-1.5955,-1.5639,-1.5314,-1.5086,-1.4839,-1.4588,-1.4365,-1.417,-1.3974,-1.1728,-1.1728,-1.1669,-1.1678,-1.1619,-1.1628,-1.1578,-1.1477,-1.1418,-1.1569,-1.1528,-1.1427,-1.1377,-1.1567,-1.1769,-1.1845,-1.2465,-1.2898,-1.2974,-1.3305,-1.3519,-1.3718,-1.3769,-1.389,-1.4207,-1.3992,-1.382,-1.3568,-1.3442,-1.3278,-1.3085,-1.3142,-1.3362,-1.3668,-1.3988,-1.4129,-1.4222,-1.4326,-1.3771,-1.2889,-1.29,-1.2334,-1.1485,-1.1448,-1.1421,-1.1346,-1.1346,-1.1309,-1.1223,-1.1373,-1.1448,-1.1448,-1.1448,-1.1533,-1.1656,-1.1645,-1.1719,-1.1782,-1.1856,-1.1979,-1.2113,-1.2305,-1.2484,-1.2662,-1.2838,-1.2978,-1.3129,-1.3459,-1.3615,-1.4198,-1.5719,-1.6318,-1.7006,-1.8176,-1.8788,-1.9101,-1.9139,-1.9413,-1.9669,-1.9762,-1.9919,-2.0096,-2.0339,-2.0426,-2.0613,-2.0861,-2.1006,-2.1183,-2.1355,-2.1511,-2.1634,-2.1768,-2.184,-2.1882,-2.1969,-2.1969,-2.1911,-2.184,-2.1632,-2.0755,-1.9339,-1.9037,-1.8097,-1.667,-1.6554,-1.6355,-1.6055,-1.5639,-1.5314,-1.5117,-1.4825,-1.4574,-1.4319,-1.4124,-1.3908,-1.3708,-1.1728,-1.1728,-1.1678,-1.1528,-1.1427,-1.1326,-1.1175,-1.1023,-1.1074,-1.1326,-1.1226,-1.1074,-1.0972,-1.1253,-1.1602,-1.1925,-1.2323,-1.2696,-1.2976,-1.3216,-1.3302,-1.3363,-1.3657,-1.383,-1.383,-1.4103,-1.395,-1.3277,-1.353,-1.3422,-1.2929,-1.3132,-1.342,-1.3773,-1.381,-1.3952,-1.4222,-1.4222,-1.3716,-1.2889,-1.2816,-1.2265,-1.1394,-1.126,-1.1223,-1.1223,-1.1223,-1.1223,-1.1185,-1.1223,-1.1223,-1.1223,-1.1223,-1.1309,-1.1421,-1.1496,-1.1608,-1.1719,-1.1782,-1.1856,-1.1943,-1.2077,-1.2294,-1.2484,-1.2733,-1.2873,-1.3047,-1.3412,-1.3861,-1.4424,-1.5379,-1.6201,-1.6966,-1.7841,-1.8613,-1.9139,-1.9339,-1.9545,-1.9762,-1.9955,-2.0045,-2.017,-2.046,-2.0494,-2.0613,-2.0861,-2.1006,-2.1167,-2.1309,-2.1402,-2.1526,-2.1708,-2.1768,-2.1811,-2.1811,-2.1811,-2.1797,-2.1708,-2.0914,-2.0078,-1.9183,-1.831,-1.7443,-1.6596,-1.6344,-1.6011,-1.5639,-1.5418,-1.5147,-1.4887,-1.4641,-1.4401,-1.417,-1.3795,-1.356,-1.3391,-1.1226,-1.1226,-1.1226,-1.1175,-1.1124,-1.1023,-1.0972,-1.0922,-1.0922,-1.0922,-1.0972,-1.1056,-1.1176,-1.1523,-1.1886,-1.2249,-1.2621,-1.2833,-1.2972,-1.3111,-1.3172,-1.3302,-1.3424,-1.3597,-1.383,-1.3788,-1.357,-1.3214,-1.3199,-1.3048,-1.2783,-1.2958,-1.319,-1.3573,-1.3716,-1.3868,-1.3952,-1.4057,-1.3547,-1.2721,-1.269,-1.2133,-1.126,-1.1223,-1.1185,-1.112,-1.1061,-1.0975,-1.0947,-1.086,-1.0985,-1.1185,-1.1185,-1.1223,-1.1309,-1.1298,-1.1421,-1.1533,-1.1597,-1.1708,-1.1819,-1.2041,-1.2186,-1.2365,-1.2662,-1.2838,-1.3,-1.3357,-1.3861,-1.4477,-1.5344,-1.6193,-1.7008,-1.7827,-1.868,-1.9339,-1.9545,-1.969,-1.9833,-2.0045,-2.015,-2.0289,-2.0494,-2.0577,-2.0662,-2.0811,-2.099,-2.1135,-2.123,-2.134,-2.1448,-2.1526,-2.1617,-2.1694,-2.1694,-2.1617,-2.1327,-2.0858,-2.0429,-1.9538,-1.8275,-1.7904,-1.7204,-1.6274,-1.5983,-1.5697,-1.5463,-1.5178,-1.4918,-1.4641,-1.4401,-1.4111,-1.3828,-1.3547,-1.3323,-1.3069,-1.0922,-1.0922,-1.0922,-1.0922,-1.082,-1.0769,-1.0769,-1.0718,-1.0616,-1.0514,-1.0565,-1.0805,-1.1161,-1.1509,-1.1866,-1.2289,-1.2587,-1.2797,-1.2867,-1.2928,-1.2989,-1.318,-1.3241,-1.3373,-1.3476,-1.3401,-1.3185,-1.2887,-1.2862,-1.2767,-1.2627,-1.2881,-1.3113,-1.3362,-1.3563,-1.3716,-1.3773,-1.3868,-1.3422,-1.2595,-1.2563,-1.2012,-1.1147,-1.1109,-1.1033,-1.0995,-1.085,-1.0774,-1.0746,-1.0621,-1.0784,-1.1023,-1.1023,-1.1061,-1.105,-1.1099,-1.1223,-1.1335,-1.1373,-1.1533,-1.1719,-1.1918,-1.2077,-1.2246,-1.2556,-1.2768,-1.3,-1.3425,-1.3894,-1.4455,-1.5142,-1.6135,-1.707,-1.7654,-1.8724,-1.9523,-1.969,-1.9797,-1.994,-2.015,-2.027,-2.0407,-2.0527,-2.0644,-2.0711,-2.0794,-2.0941,-2.1054,-2.1103,-2.1246,-2.1309,-2.134,-2.1419,-2.1497,-2.1497,-2.1191,-2.0726,-2.018,-1.9656,-1.8789,-1.7638,-1.7349,-1.6722,-1.5955,-1.5668,-1.5418,-1.5239,-1.4963,-1.4655,-1.4388,-1.4157,-1.3861,-1.3514,-1.3288,-1.3035,-1.2756,-1.0922,-1.0922,-1.0922,-1.0922,-1.0667,-1.0522,-1.0522,-1.0205,-0.9999,-0.9999,-0.9999,-1.018,-1.0678,-1.0956,-1.1295,-1.1752,-1.2103,-1.2367,-1.256,-1.2744,-1.2805,-1.2805,-1.3119,-1.3126,-1.2747,-1.3029,-1.2884,-1.2219,-1.2516,-1.2614,-1.2529,-1.2929,-1.3162,-1.3218,-1.3314,-1.3467,-1.361,-1.3773,-1.3331,-1.2605,-1.2521,-1.1941,-1.1092,-1.0871,-1.0784,-1.0784,-1.0659,-1.0582,-1.0582,-1.0582,-1.0582,-1.0621,-1.0621,-1.0649,-1.0715,-1.0878,-1.1002,-1.1126,-1.1185,-1.1335,-1.1522,-1.1682,-1.1881,-1.2186,-1.2425,-1.2662,-1.2978,-1.3641,-1.4072,-1.4397,-1.4651,-1.5967,-1.7039,-1.718,-1.8538,-1.9611,-1.969,-1.9925,-2.015,-2.027,-2.0354,-2.0491,-2.0693,-2.0693,-2.0711,-2.0794,-2.0877,-2.0893,-2.0893,-2.1022,-2.1135,-2.1215,-2.1215,-2.1215,-2.1215,-2.0474,-2.0044,-1.9906,-1.8432,-1.7669,-1.7468,-1.6458,-1.587,-1.561,-1.5448,-1.5209,-1.4902,-1.4777,-1.4525,-1.417,-1.3921,-1.3641,-1.3357,-1.2943,-1.2685,-1.2461,-1.0308,-1.0308,-1.0308,-1.0308,-1.0205,-1.0154,-1.0154,-1.0051,-0.9999,-0.9999,-0.9895,-1.0031,-1.0415,-1.0646,-1.0984,-1.1619,-1.1773,-1.1995,-1.2359,-1.2428,-1.2448,-1.2449,-1.256,-1.2564,-1.2352,-1.2274,-1.2197,-1.2053,-1.2142,-1.2254,-1.2529,-1.2832,-1.3027,-1.3162,-1.3228,-1.3266,-1.3314,-1.3362,-1.2899,-1.2115,-1.2083,-1.1542,-1.0746,-1.0708,-1.0659,-1.0621,-1.0477,-1.04,-1.0361,-1.0244,-1.0205,-1.0205,-1.0205,-1.039,-1.0649,-1.0687,-1.0764,-1.084,-1.0964,-1.1153,-1.1351,-1.1522,-1.176,-1.2029,-1.2246,-1.2685,-1.3198,-1.3721,-1.4072,-1.4397,-1.4651,-1.558,-1.6541,-1.7242,-1.8224,-1.9146,-1.9823,-2.0096,-2.027,-2.0354,-2.0525,-2.0626,-2.0693,-2.0744,-2.0777,-2.0794,-2.0827,-2.0844,-2.0893,-2.1022,-2.1103,-2.1135,-2.1135,-2.0847,-2.0335,-2.0049,-1.9369,-1.8316,-1.776,-1.7135,-1.6458,-1.596,-1.5624,-1.5448,-1.5193,-1.4949,-1.4746,-1.4461,-1.4203,-1.3874,-1.3514,-1.3242,-1.2943,-1.265,-1.233,-1.2054,-0.9999,-0.9999,-0.9999,-0.9999,-0.9947,-0.9895,-0.9836,-0.9784,-0.9732,-0.9681,-0.9636,-0.9664,-0.9914,-1.0089,-1.0459,-1.1244,-1.1305,-1.1447,-1.1848,-1.1916,-1.1941,-1.1895,-1.2068,-1.2012,-1.1809,-1.1747,-1.172,-1.1731,-1.1894,-1.2076,-1.2382,-1.2627,-1.2832,-1.2929,-1.3055,-1.3142,-1.3142,-1.317,-1.2705,-1.19,-1.19,-1.1367,-1.0582,-1.0505,-1.0477,-1.0467,-1.0244,-1.0176,-1.0176,-1.0059,-0.998,-0.9941,-0.9941,-1.0088,-1.0312,-1.0428,-1.0505,-1.0572,-1.0725,-1.0916,-1.1142,-1.1351,-1.1612,-1.1932,-1.2294,-1.2803,-1.3301,-1.3721,-1.4072,-1.4397,-1.4683,-1.5443,-1.633,-1.728,-1.8115,-1.8976,-1.9864,-2.02,-2.0339,-2.0441,-2.0577,-2.0726,-2.0744,-2.0777,-2.0794,-2.0794,-2.0794,-2.0794,-2.0811,-2.0909,-2.094,-2.094,-2.0638,-2.0242,-1.9736,-1.9185,-1.8432,-1.747,-1.702,-1.6451,-1.5797,-1.5551,-1.5374,-1.5179,-1.4873,-1.4669,-1.4493,-1.417,-1.3874,-1.3527,-1.3173,-1.2861,-1.2627,-1.2294,-1.1993,-1.1689,-0.9947,-0.9947,-0.9947,-0.9947,-0.9844,-0.974,-0.9614,-0.9465,-0.9361,-0.9211,-0.9211,-0.9263,-0.9361,-0.9361,-0.9756,-1.0632,-1.0706,-1.0842,-1.1043,-1.1213,-1.1262,-1.1295,-1.1576,-1.1526,-1.1177,-1.1436,-1.1471,-1.1326,-1.1828,-1.2076,-1.2126,-1.2382,-1.2529,-1.2676,-1.2832,-1.2929,-1.3075,-1.3102,-1.2629,-1.1847,-1.1817,-1.1306,-1.0544,-1.0361,-1.0283,-1.0244,-1.0059,-0.998,-0.998,-0.9941,-0.9862,-0.9774,-0.9774,-0.9774,-0.9823,-1.0166,-1.0283,-1.0322,-1.0505,-1.0736,-1.0916,-1.1142,-1.1437,-1.1867,-1.2532,-1.2955,-1.3301,-1.3721,-1.404,-1.4383,-1.4714,-1.54,-1.6272,-1.7254,-1.8123,-1.8951,-1.9803,-2.022,-2.0441,-2.0494,-2.061,-2.0711,-2.0794,-2.0794,-2.0794,-2.0794,-2.0794,-2.0745,-2.063,-2.0614,-2.0614,-2.0614,-1.9827,-1.9404,-1.9358,-1.802,-1.731,-1.7161,-1.6244,-1.5668,-1.5448,-1.5268,-1.5056,-1.4856,-1.4578,-1.4356,-1.4138,-1.3874,-1.3527,-1.3126,-1.2803,-1.252,-1.2294,-1.192,-1.1627,-1.1404,-0.9577,-0.9517,-0.9524,-0.942,-0.9368,-0.9316,-0.9309,-0.9263,-0.9263,-0.9211,-0.9211,-0.9211,-0.9263,-0.9263,-0.932,-0.9574,-1.002,-1.0428,-1.085,-1.0922,-1.0936,-1.0911,-1.1013,-1.0955,-1.0805,-1.09,-1.1064,-1.1326,-1.1528,-1.1778,-1.2076,-1.2175,-1.2323,-1.2529,-1.2578,-1.2627,-1.2608,-1.233,-1.1878,-1.1349,-1.1031,-1.0589,-1.0137,-1.0098,-1.0019,-0.9902,-0.9793,-0.9704,-0.9607,-0.9487,-0.9448,-0.9399,-0.9399,-0.9399,-0.9487,-0.9813,-0.998,-1.0088,-1.0322,-1.0428,-1.0611,-1.0916,-1.1378,-1.1895,-1.2377,-1.2733,-1.3082,-1.3493,-1.3848,-1.4163,-1.4515,-1.4907,-1.5484,-1.6515,-1.7406,-1.8293,-1.9122,-1.9946,-2.046,-2.0494,-2.0662,-2.0794,-2.0794,-2.0794,-2.0794,-2.0794,-2.0744,-2.049,-1.9956,-1.9731,-1.9665,-1.978,-1.9045,-1.8377,-1.785,-1.7332,-1.6682,-1.5921,-1.5669,-1.5418,-1.5104,-1.4949,-1.4794,-1.4578,-1.4246,-1.4046,-1.3888,-1.348,-1.3138,-1.2768,-1.2401,-1.2113,-1.1884,-1.1479,-1.1217,-1.0992,-0.9316,-0.9316,-0.9263,-0.9211,-0.9211,-0.9159,-0.9106,-0.9113,-0.9113,-0.9008,-0.9008,-0.9061,-0.9113,-0.9113,-0.9106,-0.9211,-0.9571,-0.9904,-1.0133,-1.0258,-1.0354,-1.0341,-1.0492,-1.0564,-1.0522,-1.0624,-1.0871,-1.1226,-1.1326,-1.1569,-1.1828,-1.1877,-1.2076,-1.2323,-1.2323,-1.2382,-1.2452,-1.2092,-1.1609,-1.1164,-1.0714,-1.0309,-0.9902,-0.9813,-0.9725,-0.9646,-0.9536,-0.9457,-0.9368,-0.9288,-0.9177,-0.9096,-0.9096,-0.9096,-0.9177,-0.9377,-0.9625,-0.9911,-1.0019,-1.0196,-1.0467,-1.084,-1.1319,-1.1811,-1.2222,-1.2579,-1.2965,-1.3412,-1.3769,-1.4084,-1.4438,-1.4718,-1.5239,-1.6233,-1.6931,-1.7721,-1.8834,-1.9595,-2.0151,-2.0447,-2.0695,-2.0794,-2.0794,-2.0794,-2.0794,-2.0744,-2.0428,-2.0017,-1.9545,-1.8811,-1.8578,-1.8936,-1.8177,-1.7562,-1.712,-1.6593,-1.598,-1.5344,-1.5299,-1.5104,-1.4752,-1.4624,-1.4465,-1.4246,-1.3934,-1.3682,-1.3493,-1.3138,-1.2756,-1.2377,-1.1957,-1.1664,-1.1394,-1.1067,-1.0764,-1.0457,-0.9159,-0.9159,-0.9159,-0.9159,-0.9106,-0.9054,-0.8956,-0.8903,-0.885,-0.8752,-0.8752,-0.8804,-0.8903,-0.8956,-0.9008,-0.9113,-0.9263,-0.9361,-0.9413,-0.9636,-0.974,-0.9799,-1.0058,-1.0213,-1.0265,-1.0522,-1.0769,-1.1023,-1.1175,-1.1326,-1.1469,-1.1578,-1.1778,-1.2026,-1.2026,-1.2147,-1.226,-1.1856,-1.1423,-1.0938,-1.0503,-1.009,-0.9695,-0.9527,-0.9448,-0.9399,-0.9288,-0.9208,-0.9136,-0.9136,-0.9024,-0.8871,-0.8871,-0.8871,-0.8871,-0.8935,-0.9266,-0.9594,-0.9744,-1.001,-1.039,-1.0829,-1.1234,-1.1653,-1.2066,-1.2437,-1.2873,-1.331,-1.3669,-1.4019,-1.4374,-1.4686,-1.5165,-1.6101,-1.6544,-1.724,-1.8515,-1.9148,-1.9684,-2.0276,-2.0599,-2.0794,-2.0794,-2.0699,-2.0619,-2.0569,-1.9892,-1.9358,-1.9026,-1.7869,-1.7453,-1.79,-1.7212,-1.6773,-1.6668,-1.5832,-1.5314,-1.5117,-1.4996,-1.4752,-1.4406,-1.4287,-1.4124,-1.3901,-1.3547,-1.331,-1.3091,-1.2768,-1.2377,-1.1968,-1.1553,-1.1207,-1.0867,-1.0621,-1.0312,-0.9961,-0.9061,-0.9008,-0.9008,-0.8857,-0.8791,-0.8679,-0.8679,-0.858,-0.8474,-0.848,-0.858,-0.8633,-0.8685,-0.8745,-0.8857,-0.8857,-0.9008,-0.9159,-0.9361,-0.9413,-0.9577,-0.9799,-0.9851,-0.9955,-1.0051,-1.036,-1.0624,-1.0769,-1.0922,-1.1074,-1.1318,-1.1368,-1.1528,-1.1778,-1.1778,-1.1599,-1.1316,-1.0903,-1.0498,-1.0061,-0.9658,-0.9462,-0.9368,-0.9288,-0.9177,-0.9056,-0.8984,-0.8903,-0.8765,-0.8765,-0.8765,-0.8724,-0.8724,-0.8724,-0.8724,-0.8765,-0.8895,-0.9114,-0.9448,-0.9843,-1.0235,-1.0582,-1.0954,-1.1367,-1.1774,-1.2186,-1.2544,-1.2931,-1.331,-1.3715,-1.4157,-1.4511,-1.4899,-1.5383,-1.617,-1.6847,-1.7258,-1.8467,-1.9415,-1.9622,-2.0283,-2.0744,-2.0794,-2.0241,-1.9878,-1.9861,-1.9092,-1.8315,-1.7651,-1.7212,-1.6728,-1.6201,-1.6067,-1.5832,-1.5549,-1.5237,-1.4996,-1.4777,-1.4641,-1.4406,-1.4052,-1.3927,-1.3775,-1.3547,-1.3173,-1.2908,-1.2733,-1.2365,-1.1968,-1.1553,-1.1142,-1.0802,-1.0457,-1.0205,-0.9892,-0.9558,-0.8791,-0.8791,-0.8738,-0.8586,-0.8527,-0.8474,-0.8474,-0.8421,-0.8421,-0.8421,-0.8474,-0.8474,-0.8474,-0.8527,-0.8639,-0.8685,-0.8738,-0.8896,-0.9159,-0.9263,-0.9368,-0.9577,-0.9629,-0.9784,-0.9999,-1.0154,-1.0368,-1.0565,-1.0667,-1.082,-1.1074,-1.1074,-1.1175,-1.136,-1.1152,-1.1011,-1.0859,-1.0257,-0.99,-0.9717,-0.9252,-0.9096,-0.9056,-0.8975,-0.8886,-0.8805,-0.8732,-0.861,-0.8529,-0.8447,-0.8398,-0.8308,-0.8308,-0.8308,-0.8349,-0.8406,-0.87,-0.9024,-0.9328,-0.9646,-1.001,-1.0273,-1.0649,-1.1019,-1.1431,-1.1884,-1.2365,-1.2768,-1.3173,-1.3615,-1.4013,-1.4369,-1.4704,-1.5088,-1.5652,-1.6263,-1.6849,-1.7685,-1.8408,-1.8858,-1.928,-1.9563,-1.9547,-1.928,-1.9076,-1.9014,-1.8253,-1.7606,-1.7149,-1.6621,-1.6084,-1.5595,-1.5492,-1.5388,-1.5133,-1.4859,-1.4641,-1.4493,-1.4324,-1.4052,-1.3735,-1.3547,-1.3344,-1.3104,-1.2756,-1.2508,-1.2246,-1.192,-1.1553,-1.1142,-1.0725,-1.0341,-0.9942,-0.9646,-0.9368,-0.9039,-0.8573,-0.8573,-0.8527,-0.8421,-0.8368,-0.8374,-0.8374,-0.8321,-0.8268,-0.8268,-0.8321,-0.8374,-0.8374,-0.8374,-0.8421,-0.8521,-0.8573,-0.8633,-0.885,-0.9001,-0.9159,-0.9361,-0.9465,-0.9673,-0.9888,-0.9947,-1.0102,-1.0368,-1.0368,-1.0522,-1.0769,-1.0769,-1.0771,-1.0831,-1.0539,-1.0354,-1.0301,-0.968,-0.9384,-0.9325,-0.8939,-0.879,-0.8749,-0.8651,-0.8602,-0.8561,-0.8439,-0.8357,-0.8283,-0.8209,-0.8077,-0.8021,-0.8021,-0.8021,-0.8021,-0.8118,-0.8488,-0.8895,-0.9168,-0.9448,-0.9734,-1.001,-1.038,-1.0791,-1.1207,-1.1664,-1.215,-1.2627,-1.3069,-1.348,-1.3868,-1.4227,-1.4564,-1.4937,-1.5255,-1.5743,-1.6518,-1.6983,-1.7467,-1.8053,-1.8376,-1.853,-1.8514,-1.8374,-1.8266,-1.8145,-1.7451,-1.6933,-1.6742,-1.6083,-1.558,-1.5239,-1.5133,-1.5041,-1.489,-1.4564,-1.4337,-1.417,-1.398,-1.3702,-1.3344,-1.3173,-1.2918,-1.265,-1.233,-1.2029,-1.1726,-1.1431,-1.1067,-1.0687,-1.0273,-0.9873,-0.943,-0.9128,-0.8846,-0.8472,-0.8421,-0.8421,-0.8421,-0.8421,-0.8321,-0.8221,-0.8221,-0.8062,-0.7955,-0.7955,-0.8115,-0.8221,-0.8221,-0.8321,-0.8421,-0.8421,-0.8421,-0.8421,-0.8427,-0.8573,-0.8837,-0.9211,-0.9361,-0.9465,-0.9614,-0.9732,-0.9903,-1.0051,-1.0051,-1.0154,-1.0316,-1.0316,-1.0245,-1.0075,-1.0043,-0.9721,-0.9188,-0.9028,-0.881,-0.8561,-0.8463,-0.8422,-0.8414,-0.8291,-0.8258,-0.8209,-0.807,-0.8021,-0.8021,-0.8021,-0.8021,-0.8021,-0.8021,-0.8021,-0.8021,-0.8021,-0.8234,-0.8537,-0.8895,-0.9168,-0.9448,-0.9892,-1.0322,-1.0687,-1.1105,-1.1516,-1.1932,-1.233,-1.2685,-1.3104,-1.3635,-1.4046,-1.4479,-1.4921,-1.5225,-1.5536,-1.583,-1.6531,-1.712,-1.7344,-1.799,-1.8439,-1.8484,-1.7893,-1.7448,-1.7389,-1.664,-1.6087,-1.5902,-1.5668,-1.5269,-1.4763,-1.4808,-1.4732,-1.4533,-1.4337,-1.4105,-1.3808,-1.3628,-1.3344,-1.2931,-1.2803,-1.2556,-1.221,-1.1836,-1.1505,-1.1217,-1.0905,-1.0534,-1.0118,-0.9785,-0.9399,-0.9016,-0.8683,-0.8349,-0.8021,-0.8268,-0.8268,-0.8221,-0.8109,-0.8002,-0.7889,-0.7889,-0.7735,-0.7628,-0.7628,-0.7735,-0.7788,-0.7889,-0.7943,-0.8049,-0.8268,-0.8268,-0.8321,-0.8368,-0.8421,-0.8633,-0.9061,-0.9211,-0.9309,-0.9361,-0.942,-0.9472,-0.9621,-0.9621,-0.9732,-0.9999,-0.9794,-0.9734,-0.9735,-0.9299,-0.9009,-0.8794,-0.8473,-0.8302,-0.8185,-0.8152,-0.8152,-0.8152,-0.8044,-0.8002,-0.8002,-0.7773,-0.7682,-0.769,-0.7655,-0.7621,-0.7621,-0.7621,-0.7621,-0.7663,-0.7787,-0.7953,-0.8167,-0.8537,-0.8854,-0.9177,-0.9487,-0.9892,-1.0322,-1.0736,-1.1169,-1.1616,-1.2113,-1.2544,-1.3,-1.348,-1.3881,-1.4227,-1.4627,-1.4937,-1.5255,-1.558,-1.5964,-1.6334,-1.655,-1.6838,-1.7049,-1.7078,-1.6818,-1.6635,-1.6578,-1.6163,-1.5841,-1.5668,-1.5344,-1.4949,-1.4525,-1.4461,-1.4351,-1.4181,-1.3947,-1.3682,-1.3446,-1.3207,-1.2931,-1.2579,-1.2413,-1.2113,-1.1737,-1.1394,-1.1019,-1.0687,-1.0418,-1.0069,-0.9677,-0.9359,-0.8967,-0.8578,-0.816,-0.7829,-0.7572,-0.8055,-0.8055,-0.8002,-0.7794,-0.7676,-0.7616,-0.7616,-0.7568,-0.7521,-0.7521,-0.7521,-0.7515,-0.7622,-0.7616,-0.7729,-0.7949,-0.8002,-0.8002,-0.8103,-0.8209,-0.8427,-0.8798,-0.8949,-0.8995,-0.8995,-0.9106,-0.9159,-0.9256,-0.9217,-0.9328,-0.9482,-0.921,-0.9052,-0.9029,-0.8573,-0.8348,-0.8235,-0.796,-0.7814,-0.7848,-0.7814,-0.7814,-0.7821,-0.7746,-0.7746,-0.7704,-0.753,-0.7482,-0.7447,-0.7412,-0.7419,-0.7419,-0.7419,-0.7419,-0.7419,-0.7579,-0.7753,-0.7919,-0.8201,-0.8529,-0.8895,-0.9199,-0.9655,-1.0098,-1.0505,-1.0954,-1.1394,-1.1884,-1.2365,-1.2826,-1.331,-1.3669,-1.4019,-1.4438,-1.4783,-1.5104,-1.5403,-1.5654,-1.5856,-1.5998,-1.6067,-1.6123,-1.6123,-1.6123,-1.6095,-1.6011,-1.5856,-1.561,-1.5403,-1.5011,-1.4624,-1.4273,-1.4092,-1.3927,-1.3702,-1.3568,-1.3331,-1.3022,-1.2779,-1.2508,-1.2186,-1.1957,-1.1664,-1.1292,-1.0943,-1.0524,-1.0137,-0.9922,-0.9607,-0.9199,-0.8886,-0.8529,-0.8126,-0.7663,-0.737,-0.7112,-0.7723,-0.7723,-0.767,-0.7521,-0.7521,-0.7521,-0.7521,-0.7521,-0.7521,-0.7521,-0.7521,-0.7521,-0.7521,-0.7521,-0.7521,-0.7521,-0.7521,-0.7521,-0.7521,-0.7741,-0.8055,-0.8374,-0.8527,-0.8573,-0.8573,-0.885,-0.9008,-0.9008,-0.886,-0.8806,-0.8799,-0.8434,-0.8126,-0.7884,-0.7877,-0.7744,-0.7482,-0.7412,-0.7447,-0.7482,-0.7412,-0.7412,-0.7412,-0.7412,-0.7412,-0.7412,-0.7412,-0.7412,-0.7412,-0.7412,-0.7412,-0.7412,-0.7412,-0.7412,-0.7412,-0.7482,-0.7572,-0.7753,-0.7946,-0.8193,-0.8537,-0.9168,-0.9646,-1.0098,-1.0505,-1.0926,-1.1292,-1.17,-1.2113,-1.2544,-1.3079,-1.3467,-1.3868,-1.4406,-1.4783,-1.5088,-1.5268,-1.561,-1.5799,-1.5799,-1.5926,-1.5996,-1.5996,-1.5996,-1.5955,-1.5799,-1.5668,-1.5403,-1.4932,-1.4641,-1.4342,-1.4032,-1.3735,-1.3459,-1.3107,-1.3173,-1.3022,-1.2674,-1.2365,-1.2066,-1.1774,-1.1468,-1.1169,-1.0878,-1.0467,-1.003,-0.9579,-0.9288,-0.9007,-0.8675,-0.8341,-0.7987,-0.7628,-0.7154,-0.6852,-0.6641,-0.7568,-0.7568,-0.7568,-0.7521,-0.7419,-0.7311,-0.7246,-0.7144,-0.7036,-0.6977,-0.6923,-0.7031,-0.7192,-0.7192,-0.73,-0.7467,-0.7521,-0.7521,-0.7521,-0.7574,-0.7681,-0.7783,-0.8209,-0.8474,-0.8474,-0.8527,-0.8482,-0.8286,-0.8252,-0.8207,-0.8091,-0.7742,-0.7607,-0.7596,-0.7385,-0.7235,-0.7147,-0.7105,-0.7154,-0.7147,-0.7105,-0.7112,-0.7112,-0.7076,-0.7041,-0.7041,-0.6956,-0.6921,-0.6921,-0.6921,-0.6956,-0.7041,-0.7112,-0.7202,-0.7251,-0.7293,-0.7405,-0.7614,-0.7746,-0.8002,-0.8373,-0.8903,-0.9257,-0.9646,-1.0088,-1.0544,-1.0981,-1.1479,-1.1957,-1.2389,-1.2883,-1.331,-1.3682,-1.4084,-1.4438,-1.4752,-1.5058,-1.5329,-1.558,-1.577,-1.5885,-1.597,-1.6011,-1.5898,-1.5856,-1.5799,-1.5418,-1.5013,-1.4641,-1.4401,-1.4111,-1.3735,-1.3467,-1.3173,-1.2815,-1.2838,-1.2662,-1.2258,-1.1945,-1.1653,-1.1367,-1.1019,-1.0725,-1.0467,-0.9981,-0.9558,-0.9168,-0.8846,-0.8513,-0.8185,-0.7848,-0.7523,-0.7154,-0.6725,-0.6435,-0.6142,-0.7354,-0.7354,-0.73,-0.7192,-0.7144,-0.7036,-0.6977,-0.6869,-0.682,-0.6701,-0.6701,-0.6756,-0.6918,-0.6923,-0.7031,-0.7192,-0.7192,-0.7192,-0.7252,-0.73,-0.7359,-0.7419,-0.7842,-0.8049,-0.8049,-0.7998,-0.792,-0.7759,-0.7591,-0.7494,-0.7416,-0.7084,-0.6994,-0.7076,-0.6858,-0.6781,-0.6781,-0.6781,-0.6781,-0.6781,-0.6774,-0.6816,-0.6816,-0.6829,-0.6836,-0.6793,-0.6715,-0.6715,-0.6715,-0.6715,-0.6751,-0.6836,-0.695,-0.7034,-0.7083,-0.7174,-0.7286,-0.7412,-0.7628,-0.7878,-0.8167,-0.8586,-0.9016,-0.9408,-0.9902,-1.0351,-1.0802,-1.1292,-1.1763,-1.2198,-1.2673,-1.3138,-1.3581,-1.3934,-1.4278,-1.4596,-1.4935,-1.5179,-1.5433,-1.561,-1.5712,-1.577,-1.5797,-1.5726,-1.5639,-1.5477,-1.5118,-1.4735,-1.4388,-1.4157,-1.3861,-1.3433,-1.2935,-1.2531,-1.2211,-1.2037,-1.1929,-1.1847,-1.1505,-1.1169,-1.0867,-1.0572,-1.0264,-0.9961,-0.9558,-0.9128,-0.8741,-0.8398,-0.807,-0.7739,-0.7405,-0.7063,-0.6725,-0.6301,-0.5964,-0.5674,-0.7074,-0.7036,-0.6945,-0.6725,-0.6691,-0.6647,-0.6652,-0.6652,-0.6647,-0.6598,-0.6598,-0.6647,-0.6647,-0.6652,-0.6652,-0.6647,-0.6701,-0.6761,-0.6879,-0.6977,-0.7144,-0.7257,-0.7337,-0.7379,-0.7379,-0.7367,-0.738,-0.7333,-0.6954,-0.6748,-0.6724,-0.6482,-0.6373,-0.6373,-0.6373,-0.6373,-0.6373,-0.6373,-0.6373,-0.6367,-0.6441,-0.6441,-0.6483,-0.6581,-0.663,-0.663,-0.6666,-0.6666,-0.6666,-0.6666,-0.6666,-0.6708,-0.6836,-0.6872,-0.6914,-0.7132,-0.7167,-0.7251,-0.7587,-0.7795,-0.7961,-0.8291,-0.8814,-0.9359,-0.9813,-1.0283,-1.0697,-1.1105,-1.1542,-1.2018,-1.2484,-1.3035,-1.3527,-1.3934,-1.4246,-1.4578,-1.4825,-1.5117,-1.5328,-1.5389,-1.5463,-1.5507,-1.5507,-1.5477,-1.5329,-1.5013,-1.478,-1.4525,-1.417,-1.3908,-1.356,-1.316,-1.2311,-1.17,-1.1342,-1.0909,-1.093,-1.1376,-1.1008,-1.0687,-1.0341,-1.0049,-0.9774,-0.9399,-0.9096,-0.87,-0.8291,-0.7961,-0.7621,-0.7286,-0.6956,-0.6653,-0.6301,-0.5873,-0.5534,-0.5198,-0.6271,-0.637,-0.6447,-0.6395,-0.643,-0.644,-0.6337,-0.6223,-0.6114,-0.6009,-0.6009,-0.6059,-0.6164,-0.6223,-0.6337,-0.6436,-0.6598,-0.6701,-0.6761,-0.6761,-0.6815,-0.6815,-0.6644,-0.6551,-0.6551,-0.7024,-0.706,-0.6602,-0.6539,-0.6383,-0.6186,-0.6134,-0.6067,-0.6067,-0.6067,-0.6067,-0.6067,-0.6067,-0.6067,-0.611,-0.6105,-0.6105,-0.6105,-0.6153,-0.6153,-0.6147,-0.6276,-0.6313,-0.6313,-0.6483,-0.6526,-0.6568,-0.6708,-0.6836,-0.6914,-0.6956,-0.7083,-0.7251,-0.7419,-0.7587,-0.7836,-0.8167,-0.8529,-0.8958,-0.9359,-0.9922,-1.0467,-1.0878,-1.1442,-1.1957,-1.2425,-1.2873,-1.3301,-1.3775,-1.4124,-1.4447,-1.4714,-1.5025,-1.5253,-1.5298,-1.5433,-1.5507,-1.5507,-1.5344,-1.5147,-1.4794,-1.4543,-1.4235,-1.3921,-1.3514,-1.3173,-1.2838,-1.1951,-1.1342,-1.1011,-1.0229,-1.0077,-1.0484,-1.0449,-1.0244,-0.9932,-0.9607,-0.9279,-0.895,-0.8651,-0.8291,-0.7836,-0.7503,-0.716,-0.681,-0.6477,-0.6142,-0.5798,-0.5404,-0.5058,-0.4709,-0.5834,-0.5878,-0.5894,-0.5944,-0.5944,-0.6002,-0.5996,-0.5955,-0.59,-0.5795,-0.5795,-0.585,-0.59,-0.5955,-0.6009,-0.6119,-0.6223,-0.6277,-0.6277,-0.6327,-0.6381,-0.6381,-0.6278,-0.6166,-0.6067,-0.6357,-0.6325,-0.607,-0.5956,-0.5798,-0.5674,-0.5674,-0.5674,-0.5674,-0.5674,-0.5674,-0.5674,-0.5674,-0.5674,-0.5674,-0.5712,-0.5804,-0.5847,-0.5884,-0.5933,-0.6024,-0.6062,-0.6142,-0.6221,-0.6307,-0.6398,-0.6489,-0.6575,-0.666,-0.6738,-0.6872,-0.6963,-0.7083,-0.7251,-0.7461,-0.7663,-0.8002,-0.8324,-0.8716,-0.9199,-0.9725,-1.0283,-1.0725,-1.1244,-1.1811,-1.2282,-1.272,-1.3163,-1.3628,-1.396,-1.4273,-1.4651,-1.4902,-1.5117,-1.5253,-1.5328,-1.5314,-1.5224,-1.5041,-1.4839,-1.4525,-1.4235,-1.3894,-1.3514,-1.3173,-1.2669,-1.2117,-1.1228,-1.0509,-0.995,-0.9325,-0.9131,-0.9352,-0.9571,-0.9579,-0.9417,-0.9128,-0.8788,-0.8423,-0.816,-0.7787,-0.7328,-0.7076,-0.6732,-0.6349,-0.6056,-0.5712,-0.5323,-0.4966,-0.453,-0.4092,-0.5481,-0.5418,-0.5354,-0.5369,-0.5397,-0.5444,-0.5608,-0.566,-0.5626,-0.5626,-0.5626,-0.5626,-0.5626,-0.5681,-0.5681,-0.574,-0.5795,-0.5795,-0.5795,-0.59,-0.5932,-0.5896,-0.5911,-0.5856,-0.5644,-0.5573,-0.5555,-0.5647,-0.5419,-0.5285,-0.5285,-0.5285,-0.529,-0.5246,-0.5246,-0.5241,-0.5285,-0.5285,-0.5285,-0.5333,-0.541,-0.5545,-0.5636,-0.5712,-0.5798,-0.5933,-0.5933,-0.6062,-0.6184,-0.6179,-0.6276,-0.6367,-0.6441,-0.6483,-0.6526,-0.6781,-0.6872,-0.6956,-0.7125,-0.7328,-0.7523,-0.7787,-0.816,-0.8561,-0.9079,-0.9616,-1.0098,-1.0572,-1.1094,-1.1616,-1.2102,-1.2567,-1.3035,-1.3514,-1.3835,-1.4163,-1.4574,-1.4777,-1.4963,-1.5117,-1.5147,-1.5086,-1.4902,-1.4746,-1.4556,-1.4254,-1.3908,-1.356,-1.316,-1.2706,-1.2106,-1.1319,-1.0387,-0.9552,-0.8808,-0.8454,-0.829,-0.8306,-0.8621,-0.8832,-0.8895,-0.8683,-0.8349,-0.7897,-0.7663,-0.7328,-0.6894,-0.6683,-0.6307,-0.5847,-0.5674,-0.528,-0.4836,-0.4482,-0.4005,-0.3432,-0.4737,-0.4833,-0.4913,-0.4892,-0.4965,-0.498,-0.5,-0.5027,-0.5011,-0.5011,-0.5011,-0.5011,-0.5011,-0.5124,-0.5293,-0.5622,-0.5622,-0.5681,-0.5795,-0.5795,-0.577,-0.5597,-0.5402,-0.5207,-0.5007,-0.4848,-0.4969,-0.5374,-0.53,-0.5285,-0.5193,-0.5193,-0.5154,-0.5033,-0.5033,-0.5111,-0.5193,-0.5193,-0.5241,-0.5285,-0.5328,-0.5328,-0.5376,-0.5371,-0.5453,-0.5583,-0.5717,-0.5847,-0.6062,-0.6142,-0.6227,-0.6227,-0.6367,-0.6447,-0.6526,-0.6526,-0.6702,-0.6914,-0.6985,-0.7196,-0.7454,-0.767,-0.8002,-0.8332,-0.8683,-0.9328,-0.9932,-1.0341,-1.0905,-1.1505,-1.2029,-1.2508,-1.2978,-1.3446,-1.3802,-1.4098,-1.4383,-1.4651,-1.4839,-1.4932,-1.4932,-1.4902,-1.4839,-1.4588,-1.4319,-1.4065,-1.3622,-1.3229,-1.2873,-1.2034,-1.1377,-1.0886,-0.9691,-0.887,-0.8466,-0.8073,-0.7885,-0.7886,-0.792,-0.8133,-0.8455,-0.8234,-0.7863,-0.7454,-0.7196,-0.6852,-0.6471,-0.6184,-0.5804,-0.5371,-0.5188,-0.4792,-0.4316,-0.3653,-0.3217,-0.2954,-0.432,-0.4296,-0.429,-0.4342,-0.4386,-0.4446,-0.4573,-0.4555,-0.4577,-0.467,-0.468,-0.468,-0.468,-0.4794,-0.4963,-0.5175,-0.5234,-0.5234,-0.5289,-0.5205,-0.5165,-0.5032,-0.4865,-0.472,-0.4637,-0.45,-0.4535,-0.4757,-0.484,-0.4884,-0.4884,-0.4884,-0.484,-0.4757,-0.4757,-0.4797,-0.4884,-0.4884,-0.4884,-0.4927,-0.4975,-0.5067,-0.5159,-0.5198,-0.5323,-0.541,-0.5539,-0.5712,-0.5884,-0.5964,-0.6093,-0.6227,-0.6276,-0.6361,-0.6447,-0.6483,-0.666,-0.6793,-0.6907,-0.7125,-0.7335,-0.7538,-0.7821,-0.8193,-0.8602,-0.9128,-0.9686,-1.0235,-1.0725,-1.1244,-1.1811,-1.233,-1.2791,-1.3263,-1.3648,-1.3993,-1.4287,-1.4588,-1.4777,-1.4839,-1.4839,-1.4777,-1.4556,-1.4305,-1.4046,-1.3735,-1.3331,-1.2883,-1.2508,-1.1664,-1.0843,-1.0163,-0.9138,-0.8347,-0.7736,-0.7553,-0.7467,-0.7468,-0.744,-0.7628,-0.8002,-0.7787,-0.7405,-0.6985,-0.6768,-0.6435,-0.597,-0.5717,-0.5323,-0.4884,-0.4709,-0.4224,-0.3612,-0.3037,-0.2637,-0.2415]},{"header":{"parameterUnit":"m.s-1","parameterCategory":1,"la1":30.6,"la2":28.766,"lo1":-90.7593,"lo2":-88.6598,"dy":0.0162,"dx":0.0183,"nx":116,"ny":114,"refTime":"2023-05-17T12:00:00:Z","depth":0,"parameterNumber":3,"parameterNumberName":"V-component_of_WINDS"},"data":[0.0,0.0,0.0,0.0,0.0,0.0,0.0,0.0,0.0,0.0,0.0,0.0,0.0,0.0,0.0,0.0,0.0,0.0,0.0,0.0,0.0,0.0,0.0,0.0,0.0,0.0,0.0,0.0,0.0,0.0,0.0,0.0,0.0,0.0,0.0,0.0,0.0,0.0,0.0,0.0,0.0,0.0,0.0,0.0,0.0,0.0,0.0,0.0,0.0,0.0,0.0,0.0,0.0,0.0,0.0,0.0,0.0,0.0,0.0,0.0,0.0,0.0,0.0,0.0,0.0,0.0,0.0,0.0,0.0,0.0,0.0,0.0,0.0,0.0,0.0,0.0,0.0,0.0,0.0,0.0,0.0,0.0,0.0,0.0,0.0,0.0,0.0,0.0,0.0,0.0,0.0,0.0,0.0,0.0,0.0,0.0,0.0,0.0,0.0,0.0,0.0,0.0,0.0,0.0,0.0,0.0,0.0,0.0,0.0,0.0,0.0,0.0,0.0,0.0,0.0,0.0,0.0,0.0,0.0,0.0,0.0,0.0,0.0,0.0,0.0,0.0,0.0,0.0,0.0,0.0,0.0,0.0,0.0,0.0,0.0,0.0,0.0,0.0,0.0,0.0,0.0,0.0,0.0,0.0,0.0,0.0,0.0,0.0,0.0,0.0,0.0,0.0,0.0,0.0,0.0,0.0,0.0,0.0,0.0,0.0,0.0,0.0,0.0,0.0,0.0,0.0,0.0,0.0,0.0,0.0,0.0,0.0,0.0,0.0,0.0,0.0,0.0,0.0,0.0,0.0,0.0,0.0,0.0,0.0,0.0,0.0,0.0,0.0,0.0,0.0,0.0,0.0,0.0,0.0,0.0,0.0,0.0,0.0,0.0,0.0,0.0,0.0,0.0,0.0,0.0,0.0,0.0,0.0,0.0,0.0,0.0,0.0,0.0,0.0,0.0,0.0,0.0,0.0,0.0,0.0,0.0,0.0,0.0,0.0,0.0,0.0,0.0,0.0,0.0,0.0,0.0,0.0,0.0,0.0,0.0,0.0,0.0,0.0,0.0,0.0,0.0,0.0,0.0,0.0,0.0,0.0,0.0,0.0,0.0,0.0,0.0,0.0,0.0,0.0,0.0,0.0,0.0,0.0,0.0,0.0,0.0,0.0,0.0,0.0,0.0,0.0,0.0,0.0,0.0,0.0,0.0,0.0,0.0,0.0,0.0,0.0,0.0,0.0,0.0,0.0,0.0,0.0,0.0,0.0,0.0,0.0,0.0,0.0,0.0,0.0,0.0,0.0,0.0,0.0,0.0,0.0,0.0,0.0,0.0,0.0,0.0,0.0,0.0,0.0,0.0,0.0,0.0,0.0,0.0,0.0,0.0,0.0,0.0,0.0,0.0,0.0,0.0,0.0,0.0,0.0,0.0,0.0,0.0,0.0,0.0,0.0,0.0,0.0,0.0,0.0,0.0,0.0,0.0,0.0,0.0,0.0,0.0,0.0,0.0,0.0,0.0,0.0,0.0,0.0,0.0,0.0,0.0,0.0,0.0,0.0,0.0,0.0,0.0,0.0,0.0,0.0,0.0,0.0,0.0,0.0,0.0,0.0,0.0,0.0,0.0,0.0,0.0,0.0,0.0,0.0,0.0,0.0,0.0,0.0,0.0,0.0,0.0,0.0,0.0,0.0,0.0,0.0,0.0,0.0,0.0,0.0,0.0,0.0,0.0,0.0,0.0,0.0,0.0,0.0,0.0,0.0,0.0,0.0,0.0,0.0,0.0,0.0,0.0,0.0,0.0,0.0,0.0,0.0,0.0,0.0,0.0,0.0,0.0,0.0,0.0,0.0,0.0,0.0,0.0,0.0,0.0,0.0,0.0,0.0,0.0,0.0,0.0,0.0,0.0,0.0,0.0,0.0,0.0,0.0,0.0,0.0,0.0,0.0,0.0,0.0,0.0,0.0,0.0,0.0,0.0,0.0,0.0,0.0,0.0,0.0,0.0,0.0,0.0,0.0,0.0,0.0,0.0,0.0,0.0,0.0,0.0,0.0,0.0,0.0,0.0,0.0,0.0,0.0,0.0,0.0,0.0,0.0,0.0,0.0,0.0,0.0,0.0,0.0,0.0,0.0,0.0,0.0,0.0,0.0,0.0,0.0,0.0,0.0,0.0,0.0,0.0,0.0,0.0,0.0,0.0,0.0,0.0,0.0,0.0,0.0,0.0,0.0,0.0,0.0,0.0,0.0,0.0,0.0,0.0,0.0,0.0,0.0,0.0,0.0,0.0,0.0,0.0,0.0,0.0,0.0,0.0,0.0,0.0,0.0,0.0,0.0,0.0,0.0,0.0,0.0,0.0,0.0,0.0,0.0,0.0,0.0,0.0,0.0,0.0,0.0,0.0,0.0,0.0,0.0,0.0,0.0,0.0,0.0,0.0,0.0,0.0,0.0,0.0,0.0,0.0,0.0,0.0,0.0,0.0,0.0,0.0,0.0,0.0,0.0,0.0,0.0,0.0,0.0,0.0,0.0,0.0,0.0,0.0,0.0,0.0,0.0,0.0,0.0,0.0,0.0,0.0,0.0,0.0,0.0,0.0,0.0,0.0,0.0,0.0,0.0,0.0,0.0,0.0,0.0,0.0,0.0,0.0,0.0,0.0,0.0,0.0,0.0,0.0,0.0,0.0,0.0,0.0,0.0,0.0,0.0,0.0,0.0,0.0,0.0,0.0,0.0,0.0,0.0,0.0,0.0,0.0,0.0,0.0,0.0,0.0,0.0,0.0,0.0,0.0,0.0,0.0,0.0,0.0,0.0,0.0,0.0,0.0,0.0,0.0,0.0,0.0,0.0,0.0,0.0,0.0,0.0,0.0,0.0,0.0,0.0,0.0,0.0,0.0,0.0,0.0,0.0,0.0,0.0,0.0,0.0,0.0,0.0,0.0,0.0,0.0,0.0,0.0,0.0,0.0,0.0,0.0,0.0,0.0,0.0,0.0,0.0,0.0,0.0,0.0,0.0,0.0,0.0,0.0,0.0,0.0,0.0,0.0,0.0,0.0,0.0,0.0,0.0,0.0,0.0,0.0,0.0,0.0,0.0,0.0,0.0,0.0,0.0,0.0,0.0,0.0,0.0,0.0,0.0,0.0,0.0,0.0,0.0,0.0,0.0,0.0,0.0,0.0,0.0,0.0,0.0,0.0,0.0,0.0,0.0,0.0,0.0,0.0,0.0,0.0,0.0,0.0,0.0,0.0,0.0,0.0,0.0,0.0,0.0,0.0,0.0,0.0,0.0,0.0,0.0,0.0,0.0,0.0,0.0,0.0,0.0,0.0,0.0,0.0,0.0,0.0,0.0,0.0,0.0,0.0,0.0,0.0,0.0,0.0,0.0,0.0,0.0,0.0,0.0,0.0,0.0,0.0,0.0,0.0,0.0,0.0,0.0,0.0,0.0,0.0,0.0,0.0,0.0,0.0,0.0,0.0,0.0,0.0,0.0,0.0,0.0,0.0,0.0,0.0,0.0,0.0,0.0,0.0,0.0,0.0,0.0,0.0,0.0,0.0,0.0,0.0,0.0,0.0,0.0,0.0,0.0,0.0,0.0,0.0,0.0,0.0,0.0,0.0,0.0,0.0,0.0,0.0,0.0,0.0,0.0,0.0,0.0,0.0,0.0,0.0,0.0,0.0,0.0,0.0,0.0,0.0,0.0,0.0,0.0,0.0,0.0,0.0,0.0,0.0,0.0,0.0,0.0,0.0,0.0,0.0,0.0,0.0,0.0,0.0,0.0,0.0,0.0,0.0,0.0,0.0,0.0,0.0,0.0,0.0,0.0,0.0,0.0,0.0,0.0,0.0,0.0,0.0,0.0,0.0,0.0,0.0,0.0,0.0,0.0,0.0,0.0,0.0,0.0,0.0,0.0,0.0,0.0,0.0,0.0,0.0,0.0,0.0,0.0,0.0,0.0,0.0,0.0,0.0,0.0,0.0,0.0,0.0,0.0,0.0,0.0,0.0,0.0,0.0,0.0,0.0,0.0,0.0,0.0,0.0,0.0,0.0,0.0,0.0,0.0,0.0,0.0,0.0,0.0,0.0,0.0,0.0,0.0,0.0,0.0,0.0,0.0,0.0,0.0,0.0,0.0,0.0,0.0,0.0,0.0,0.0,0.0,0.0,0.0,0.0,0.0,0.0,0.0,0.0,0.0,0.0,0.0,0.0,0.0,0.0,0.0,0.0,0.0,0.0,0.0,0.0,0.0,0.0,0.0,0.0,0.0,0.0,0.0,0.0,0.0,0.0,0.0,0.0,0.0,0.0,0.0,0.0,0.0,0.0,0.0,0.0,0.0,0.0,0.0,0.0,0.0,0.0,0.0,0.0,0.0,0.0,0.0,0.0,0.0,0.0,0.0,0.0,0.0,0.0,0.0,0.0,0.0,0.0,0.0,0.0,0.0,0.0,0.0,0.0,0.0,0.0,0.0,0.0,0.0,0.0,0.0,0.0,0.0,0.0,0.0,0.0,0.0,0.0,0.0,0.0,0.0,0.0,0.0,0.0,0.0,0.0,0.0,0.0,0.0,0.0,0.0,0.0,0.0,0.0,0.0,0.0,0.0,0.0,0.0,0.0,0.0,0.0,0.0,0.0,0.0,0.0,0.0,0.0,0.0,0.0,0.0,0.0,0.0,0.0,0.0,0.0,0.0,0.0,0.0,0.0,0.0,0.0,0.0,0.0,0.0,0.0,0.0,0.0,0.0,0.0,0.0,0.0,0.0,0.0,0.0,0.0,0.0,0.0,0.0,0.0,0.0,0.0,0.0,0.0,0.0,0.0,0.0,0.0,0.0,0.0,0.0,0.0,0.0,0.0,0.0,0.0,0.0,0.0,0.0,0.0,0.0,0.0,0.0,0.0,0.0,0.0,0.0,0.0,0.0,0.0,0.0,0.0,0.0,0.0,0.0,0.0,0.0,0.0,0.0,0.0,0.0,0.0,0.0,0.0,0.0,0.0,0.0,0.0,0.0,0.0,0.0,0.0,0.0,0.0,0.0,0.0,0.0,0.0,0.0,0.0,0.0,0.0,0.0,0.0,0.0,0.0,0.0,0.0,0.0,0.0,0.0,0.0,0.0,0.0,0.0,0.0,0.0,0.0,0.0,0.0,0.0,0.0,0.0,0.0,0.0,0.0,0.0,0.0,0.0,0.0,0.0,0.0,0.0,0.0,0.0,0.0,0.0,0.0,0.0,0.0,0.0,0.0,0.0,0.0,0.0,0.0,0.0,0.0,0.0,0.0,0.0,0.0,0.0,0.0,0.0,0.0,0.0,0.0,0.0,0.0,0.0,0.0,0.0,0.0,0.0,0.0,0.0,0.0,0.0,0.0,0.0,0.0,0.0,0.0,0.0,0.0,0.0,0.0,0.0,0.0,0.0,0.0,0.0,0.0,0.0,0.0,0.0,0.0,0.0,0.0,0.0,0.0,0.0,0.0,0.0,0.0,0.0,0.0,0.0,0.0,0.0,0.0,0.0,0.0,0.0,0.0,0.0,0.0,0.0,0.0,0.0,0.0,0.0,0.0,0.0,0.0,0.0,0.0,0.0,0.0,0.0,0.0,0.0,0.0,0.0,0.0,0.0,0.0,0.0,0.0,0.0,0.0,0.0,0.0,0.0,0.0,0.0,0.0,0.0,0.0,0.0,0.0,0.0,0.0,0.0,0.0,0.0,0.0,0.0,0.0,0.0,0.0,0.0,0.0,0.0,0.0,0.0,0.0,0.0,0.0,0.0,0.0,0.0,0.0,0.0,0.0,0.0,0.0,0.0,0.0,0.0,0.0,0.0,0.0,0.0,0.0,0.0,0.0,0.0,0.0,0.0,0.0,0.0,0.0,0.0,0.0,0.0,0.0,0.0,0.0,0.0,0.0,0.0,0.0,0.0,0.0,0.0,0.0,0.0,0.0,0.0,0.0,0.0,0.0,0.0,0.0,0.0,0.0,0.0,0.0,0.0,0.0,0.0,0.0,0.0,0.0,0.0,0.0,0.0,0.0,0.0,0.0,0.0,0.0,0.0,0.0,0.0,0.0,0.0,0.0,0.0,0.0,0.0,0.0,0.0,0.0,0.0,0.8049,0.8421,0.0,0.0,0.0,0.0,0.0,0.0,0.0,0.0,0.0,0.0,0.0,0.0,0.0,0.0,0.0,0.0,0.0,0.0,0.0,0.0,0.0,0.0,0.0,0.0,0.0,0.0,0.0,0.0,0.0,0.0,0.0,0.0,0.0,0.0,0.0,0.0,0.0,0.0,0.0,0.0,0.0,0.0,0.0,0.0,0.0,0.0,0.0,0.0,0.0,0.0,0.0,0.0,0.0,0.0,0.0,0.0,0.0,0.0,0.0,0.0,0.0,0.0,0.0,0.0,0.0,0.0,0.0,0.0,0.0,0.0,0.0,0.0,0.0,0.0,0.0,0.0,0.0,0.0,0.0,0.0,0.0,0.0,0.0,0.0,0.0,0.0,0.0,0.0,0.0,0.0,0.0,0.0,0.0,0.0,0.0,0.0,0.0,0.0,0.0,0.0,0.0,0.0,0.0,0.0,0.0,0.0,0.0,0.0,0.0,0.0,0.0,0.0,0.0,0.0,0.7355,0.8063,0.0,0.0,0.0,0.0,0.0,0.0,0.0,0.0,0.0,0.0,0.0,0.0,0.0,0.0,0.0,0.0,0.0,0.0,0.0,0.0,0.0,0.0,0.0,0.0,0.0,0.0,0.0,0.0,0.0,0.0,0.0,0.0,0.0,0.0,0.0,0.0,0.0,0.0,0.0,0.0,0.0,0.0,0.0,0.0,0.0,0.0,0.0,0.0,0.0,0.0,0.0,0.0,0.0,0.0,0.0,0.0,0.0,0.0,0.0,0.0,0.0,0.0,0.0,0.0,0.0,0.0,0.0,0.0,0.0,0.0,0.0,0.0,0.0,0.0,0.0,0.0,0.0,0.0,0.0,0.0,0.0,0.0,0.0,0.0,0.0,0.0,0.0,0.0,0.0,0.0,0.0,0.0,0.0,0.0,0.0,0.0,0.0,0.0,0.0,0.0,0.0,0.0,0.0,0.0,0.0,0.0,0.0,0.0,0.3014,0.3403,0.3674,0.4119,0.4505,0.4886,0.6298,0.7385,0.8078,0.8306,0.0,0.0,0.0,0.0,0.0,0.0,0.0,0.0,0.0,0.0,0.0,0.0,0.0,0.0,0.0,0.0,0.0,0.0,0.0,0.0,0.0,0.0,0.0,0.0,0.0,0.0,0.0,0.0,0.0,0.0,0.0,0.0,0.0,0.0,0.0,0.0,0.0,0.0,-1.962,-2.0166,-2.0407,-2.0308,-2.0083,0.0,0.0,0.0,0.0,0.0,0.0,0.0,0.0,0.0,0.0,0.0,0.0,0.0,0.0,0.0,0.0,0.0,0.0,0.0,0.0,0.0,0.0,0.0,0.0,0.0,0.0,0.0,0.0,0.0,0.0,0.0,0.0,0.0,0.0,0.0,0.0,0.0,0.0,0.0,0.0,0.0,0.0,0.0,-1.1765,-1.0761,0.0,0.0,0.0,0.0,0.0,0.0,0.0,0.0,0.0,0.0,0.0,0.0,0.0,-0.0559,0.0056,0.0335,0.0726,0.1174,0.162,0.2012,0.2293,0.2736,0.3178,0.3564,0.4336,0.0,0.6853,0.7405,0.0,0.0,0.0,0.0,0.0,0.0,0.0,0.0,0.0,0.0,0.0,0.0,0.0,0.0,0.0,0.0,0.0,0.0,0.0,0.0,0.0,0.0,0.0,0.0,0.0,0.0,0.0,0.0,0.0,0.0,0.0,0.0,0.0,0.0,0.0,0.0,-1.9825,-1.995,-2.035,-2.0589,-2.1163,-2.1964,-2.1717,-2.1648,-2.1697,-2.1796,0.0,0.0,0.0,0.0,0.0,0.0,0.0,0.0,0.0,0.0,0.0,0.0,0.0,0.0,0.0,0.0,0.0,0.0,0.0,0.0,0.0,0.0,0.0,0.0,0.0,0.0,0.0,0.0,0.0,0.0,0.0,0.0,0.0,0.0,0.0,0.0,0.0,0.0,0.0,-1.2598,-1.1828,-1.1124,-1.0182,-0.9406,0.0,0.0,0.0,0.0,0.0,0.0,0.0,0.0,0.0,-0.2959,-0.2454,-0.2007,-0.1618,-0.1173,-0.0781,-0.0502,-0.0056,0.0391,0.0782,0.1228,0.1675,0.2232,0.2785,0.3727,0.4827,0.6195,0.7224,0.8031,0.0,0.0,0.0,0.0,1.208,1.2764,0.0,0.0,0.0,0.0,0.0,0.0,0.0,0.0,0.0,0.0,0.0,0.0,0.0,0.0,0.0,-2.0277,0.0,0.0,0.0,0.0,0.0,0.0,0.0,0.0,0.0,0.0,0.0,-1.9896,-1.9825,-2.0195,-2.0928,-2.1067,-2.1848,-2.3152,-2.3235,-2.3044,-2.2712,-2.3006,-2.3003,0.0,0.0,0.0,0.0,0.0,0.0,0.0,0.0,0.0,0.0,0.0,0.0,0.0,0.0,0.0,0.0,0.0,0.0,0.0,0.0,0.0,0.0,0.0,0.0,0.0,0.0,0.0,0.0,0.0,0.0,0.0,0.0,0.0,0.0,0.0,0.0,0.0,0.0,-1.2754,-1.2026,-1.1469,-1.0643,-0.9925,0.0,0.0,0.0,0.0,0.0,0.0,-0.5823,-0.5382,-0.4889,-0.4398,-0.3895,-0.3506,-0.3287,-0.2676,-0.2341,-0.2227,-0.1729,-0.1228,-0.0837,-0.039,0.0112,0.0726,0.1339,0.2063,0.2841,0.4882,0.6145,0.7015,0.7818,0.8613,0.9458,1.0482,1.1283,1.207,0.0,0.0,0.0,0.0,0.0,0.0,0.0,0.0,0.0,0.0,0.0,0.0,0.0,0.0,-2.0197,-2.0197,-2.0197,-2.0197,0.0,0.0,0.0,0.0,0.0,0.0,0.0,0.0,0.0,-1.99,-1.9823,-2.0208,-2.1009,-2.1714,-2.2476,-2.3321,-2.395,-2.4041,-2.372,-2.3602,-2.3412,-2.3151,0.0,0.0,0.0,0.0,0.0,0.0,0.0,0.0,0.0,0.0,0.0,0.0,0.0,0.0,0.0,0.0,0.0,0.0,0.0,0.0,0.0,0.0,0.0,0.0,0.0,0.0,0.0,0.0,0.0,0.0,0.0,0.0,0.0,0.0,0.0,0.0,0.0,0.0,0.0,-1.1778,-1.1167,0.0,0.0,0.0,0.0,-0.8573,-0.7984,-0.7503,-0.7235,-0.6632,-0.6195,-0.5923,-0.5437,-0.5054,-0.4769,-0.433,-0.3999,-0.3895,-0.3284,-0.2839,-0.2559,-0.2117,-0.1562,-0.095,-0.0223,0.0447,0.1173,0.3398,0.4948,0.5937,0.6632,0.7599,0.8732,0.9555,1.0482,1.1351,0.0,0.0,0.0,0.0,0.0,0.0,0.0,0.0,0.0,0.0,0.0,0.0,0.0,-2.0146,-2.0145,-2.0144,-2.0144,-2.0144,-2.0144,0.0,0.0,0.0,0.0,0.0,0.0,0.0,-1.9969,-1.9966,-2.0452,-2.1097,-2.1922,-2.2651,-2.3454,-2.4264,-2.4414,-2.4444,-2.4284,-2.3958,-2.3685,-2.3513,-2.3348,-2.3182,0.0,0.0,0.0,0.0,0.0,0.0,0.0,0.0,0.0,0.0,0.0,0.0,0.0,0.0,0.0,0.0,0.0,0.0,0.0,0.0,0.0,0.0,0.0,0.0,0.0,0.0,0.0,0.0,0.0,0.0,0.0,0.0,0.0,0.0,0.0,0.0,0.0,-1.2175,-1.1619,0.0,-1.0651,-1.019,-0.9829,-0.9503,-0.9033,-0.8666,-0.8396,-0.8025,-0.7652,-0.7219,-0.6999,-0.6725,-0.645,-0.5959,-0.5747,-0.5638,-0.5093,-0.4652,-0.4378,-0.3776,-0.3224,-0.267,-0.1895,-0.1171,-0.039,0.0946,0.2666,0.4608,0.5479,0.646,0.7444,0.8442,0.9377,1.0305,0.0,0.0,0.0,0.0,0.0,0.0,0.0,0.0,0.0,0.0,0.0,-2.002,-2.0059,-2.0088,-2.0098,-2.0098,-2.0108,-2.0088,-2.0088,0.0,0.0,0.0,0.0,0.0,0.0,-2.003,-1.9991,-1.999,-2.0834,-2.1646,-2.2457,-2.322,-2.4058,-2.4856,-2.4746,-2.47,-2.4673,-2.4319,-2.4059,-2.3899,-2.3732,-2.3602,-2.3513,0.0,0.0,0.0,0.0,0.0,0.0,0.0,0.0,0.0,0.0,0.0,0.0,0.0,0.0,0.0,0.0,0.0,0.0,0.0,0.0,0.0,0.0,0.0,0.0,0.0,0.0,0.0,0.0,0.0,0.0,0.0,0.0,0.0,0.0,-1.3515,-1.2977,-1.2471,-1.2076,-1.1678,-1.1276,-1.1015,-1.0753,-1.0482,-1.0079,-0.9769,-0.9555,-0.9295,-0.8974,-0.8705,-0.8488,-0.833,-0.8165,-0.7682,-0.7469,-0.7469,-0.6934,-0.6499,-0.6176,-0.5529,-0.4984,-0.4433,-0.3611,-0.2837,-0.2112,-0.1169,0.0444,0.2386,0.3935,0.5152,0.614,0.7267,0.8212,0.9207,0.0,0.0,0.0,0.0,0.0,0.0,0.0,0.0,0.0,0.0,-1.9996,-2.0009,-2.0001,-2.0059,-2.0107,-2.0107,-2.0098,-2.0088,-2.0088,-2.0088,0.0,0.0,0.0,0.0,-2.0088,-2.004,-2.0011,-2.0011,-2.0906,-2.1744,-2.2532,-2.3408,-2.4264,-2.5006,-2.4942,-2.4915,-2.4902,-2.4771,-2.4556,-2.4303,-2.4098,-2.4019,-2.3978,0.0,0.0,0.0,0.0,0.0,0.0,0.0,0.0,0.0,0.0,0.0,0.0,0.0,0.0,0.0,0.0,0.0,0.0,0.0,0.0,0.0,0.0,0.0,0.0,0.0,0.0,0.0,0.0,0.0,0.0,0.0,0.0,0.0,-1.415,-1.3668,-1.3228,-1.2774,-1.2627,-1.2372,-1.1977,-1.1819,-1.1628,-1.1377,-1.1006,-1.0804,-1.0651,-1.0431,-1.0261,-1.0261,-1.0012,-0.9865,-0.9865,-0.9496,-0.928,-0.928,-0.8646,-0.8218,-0.7947,-0.7368,-0.6779,-0.6234,-0.537,-0.4656,-0.399,-0.2775,-0.1778,-0.0723,0.2001,0.3779,0.4933,0.5973,0.6993,0.8106,0.0,0.0,0.0,0.0,0.0,0.0,0.0,0.0,0.0,0.0,-1.9922,-1.9945,-1.999,-2.0019,-2.0048,-2.0107,-2.0098,-2.0108,-2.0088,0.0,0.0,0.0,0.0,0.0,-2.0174,-2.0144,-2.0153,-2.0153,-2.1608,-2.2431,-2.268,-2.4134,-2.4938,-2.5138,-2.5126,-2.5115,-2.5115,-2.5087,-2.4994,-2.485,-2.4503,-2.4371,-2.4336,0.0,0.0,0.0,0.0,0.0,0.0,0.0,0.0,0.0,0.0,0.0,0.0,0.0,0.0,0.0,0.0,0.0,0.0,0.0,0.0,0.0,0.0,0.0,0.0,0.0,0.0,0.0,0.0,0.0,0.0,0.0,-1.4802,-1.4903,-1.456,-1.4176,-1.3847,-1.3382,-1.3132,-1.288,-1.2579,-1.2461,-1.2323,-1.2175,-1.1959,-1.185,-1.1873,-1.1715,-1.1665,-1.1665,-1.1566,-1.1516,-1.1416,-1.1107,-1.0956,-1.0906,-1.0399,-1.0026,-0.9857,-0.92,-0.8626,-0.8088,-0.7287,-0.6543,-0.5797,-0.4751,-0.3712,-0.2554,0.0389,0.2168,0.3274,0.4378,0.5959,0.7576,0.0,0.0,0.0,0.0,0.0,0.0,0.0,0.0,0.0,0.0,-1.9889,-1.9911,-1.9955,-1.9977,-2.0019,-2.0059,-2.0088,-2.0098,-2.0108,0.0,0.0,0.0,0.0,-2.0199,-2.0208,-2.0205,-2.0214,-2.0241,-2.1921,-2.2756,-2.2822,-2.4505,-2.5303,-2.5322,-2.5293,-2.5293,-2.5322,-2.5293,-2.5264,-2.5194,-2.4943,-2.479,-2.4697,-2.4554,-2.4508,-2.4493,-2.4355,-2.4284,-2.4174,-2.4098,0.0,0.0,0.0,0.0,0.0,0.0,0.0,0.0,0.0,0.0,0.0,0.0,0.0,0.0,0.0,0.0,0.0,0.0,0.0,0.0,0.0,0.0,0.0,0.0,-1.482,-1.5012,-1.484,-1.4608,-1.4269,-1.3894,-1.3695,-1.3542,-1.3294,-1.3276,-1.319,-1.3055,-1.2987,-1.2967,-1.2996,-1.2948,-1.2948,-1.2948,-1.2948,-1.2938,-1.287,-1.2638,-1.2541,-1.2541,-1.2092,-1.1787,-1.1571,-1.1032,-1.0468,-0.99,-0.9172,-0.8397,-0.7617,-0.6592,-0.5621,-0.4477,0.0,0.0,0.0,0.0,0.4696,0.6166,0.0,0.0,0.0,0.0,0.0,0.0,0.0,0.0,0.0,0.0,0.0,-1.99,-1.99,-1.9955,-1.999,-2.0001,-2.0059,-2.0098,0.0,0.0,0.0,-2.0197,-2.0216,-2.0214,-2.0219,-2.02,-2.0227,-2.03,-2.191,-2.2763,-2.2952,-2.4521,-2.5364,-2.551,-2.5456,-2.5464,-2.551,-2.5441,-2.5426,-2.5418,-2.5365,-2.5205,-2.5013,-2.4888,-2.4847,-2.4832,-2.4682,-2.4604,-2.4538,-2.4474,0.0,0.0,0.0,0.0,0.0,0.0,0.0,0.0,0.0,0.0,0.0,0.0,0.0,0.0,0.0,0.0,0.0,0.0,0.0,0.0,0.0,0.0,0.0,0.0,-1.4916,-1.5282,-1.5073,-1.4917,-1.4675,-1.4351,-1.4316,-1.4258,-1.4118,-1.4118,-1.4071,-1.3952,-1.4071,-1.4107,-1.4003,-1.4107,0.0,0.0,0.0,-1.4283,-1.4321,-1.4122,-1.4086,-1.4122,-1.3784,-1.349,-1.3253,-1.2812,-1.2308,-1.1661,-1.0973,-1.0222,-0.94,-0.8449,-0.7446,-0.622,-0.3159,-0.1279,-0.0111,0.1829,0.3212,0.4149,0.0,0.0,0.0,0.0,0.0,0.0,0.0,0.0,0.0,-1.98,-1.9854,-1.9908,-1.99,-1.9955,-1.999,-2.0001,-2.0059,-2.0108,0.0,0.0,-2.0197,-2.0203,-2.0249,-2.0292,-2.0277,-2.0287,-2.0288,-2.0308,-2.1378,-2.2288,-2.2998,-2.4024,-2.4896,-2.5582,-2.5579,-2.5565,-2.5585,-2.5565,-2.5549,-2.5556,-2.555,-2.5422,-2.5225,-2.5141,-2.5126,-2.5115,-2.4962,-2.4915,-2.4879,-2.476,-2.467,-2.4578,-2.4461,-2.4375,0.0,0.0,0.0,0.0,0.0,0.0,0.0,0.0,0.0,0.0,0.0,0.0,0.0,0.0,0.0,0.0,0.0,0.0,0.0,-1.4462,-1.4505,-1.4752,-1.5336,-1.5379,-1.5258,-1.5119,-1.4915,-1.4823,-1.4869,-1.4766,-1.4766,-1.4834,-1.4949,-1.5073,-1.5107,-1.5231,-1.5377,-1.5623,-1.5623,-1.5656,-1.5696,-1.5552,-1.5508,-1.5508,-1.5151,0.0,-1.4914,-1.4332,-1.3867,-1.3365,-1.2754,-1.1975,-1.1099,-1.0316,-0.8912,-0.6913,-0.3978,-0.222,-0.1166,0.0111,0.1109,0.1994,0.0,0.0,0.0,0.0,0.0,0.0,0.0,0.0,0.0,0.0,-1.9861,-1.9896,-1.9908,-1.9955,-1.999,-2.0001,-2.0089,0.0,0.0,-2.0233,-2.0249,-2.0254,-2.0284,-2.0325,-2.0346,-2.0341,-2.0352,-2.0349,-2.1293,-2.2202,-2.3076,-2.3937,-2.4821,-2.5648,-2.5655,-2.5642,-2.5651,-2.5645,-2.5658,-2.5652,-2.5609,-2.5532,-2.5434,-2.5379,-2.533,-2.5283,-2.5186,-2.5141,-2.5134,-2.5,-2.491,-2.4818,-2.4734,-2.461,-2.4479,0.0,0.0,0.0,0.0,0.0,0.0,0.0,0.0,0.0,0.0,0.0,0.0,0.0,0.0,-1.5676,-1.5051,0.0,-1.446,-1.4413,-1.4498,-1.4816,-1.5414,-1.5678,-1.577,-1.5732,-1.5647,-1.5603,-1.5647,-1.5623,-1.5611,-1.5712,-1.592,-1.6051,-1.6095,-1.633,-1.6502,-1.6655,-1.6727,-1.6811,-1.6941,-1.6815,-1.6802,-1.6886,-1.6634,-1.6283,-1.5894,-1.5429,-1.4759,-1.3957,-1.3466,-1.2754,-1.1889,-1.0815,-0.9545,-0.8035,-0.6354,-0.4659,-0.2989,-0.1994,-0.1162,-0.0332,0.0,0.0,0.0,0.0,0.0,0.0,0.0,0.0,0.0,0.0,-1.9849,-1.9896,-1.9896,-1.9955,-2.0,0.0,0.0,0.0,0.0,-2.0265,-2.0308,-2.0318,-2.0314,-2.0341,-2.0398,-2.0413,-2.042,-2.0419,-2.1184,-2.2072,-2.3112,-2.3825,-2.4693,-2.5693,-2.5694,-2.5698,-2.5702,-2.57,-2.5698,-2.5698,-2.5637,-2.5611,-2.5612,-2.5552,-2.5511,-2.5432,-2.5368,-2.5337,-2.5331,-2.5196,-2.5111,-2.5056,-2.4974,-2.4818,-2.4651,-2.4524,-2.4337,0.0,0.0,0.0,0.0,0.0,0.0,0.0,0.0,-1.9193,-1.8603,-1.7588,-1.694,-1.6349,-1.5574,-1.5065,-1.4669,-1.4447,-1.4647,-1.5007,-1.5581,-1.5904,-1.6202,-1.6519,-1.6405,-1.6362,-1.6405,-1.6423,-1.6484,-1.657,-1.6824,-1.6993,-1.7034,-1.7353,-1.7558,-1.7598,-1.7733,-1.7894,-1.8066,-1.7973,-1.7958,-1.7965,-1.7769,-1.7259,-1.6501,-1.614,-1.5452,-1.444,-1.3875,-1.3215,-1.2394,-1.1126,-1.0142,-0.9396,-0.8882,-0.7407,-0.5398,-0.428,-0.3479,-0.2707,0.0,0.0,0.0,0.0,0.0,0.0,0.0,0.0,0.0,0.0,0.0,0.0,0.0,0.0,0.0,0.0,0.0,0.0,-2.0285,-2.0308,-2.0325,-2.0392,-2.0392,-2.0396,-2.041,-2.0463,-2.0491,-2.0488,-2.0593,-2.1486,-2.3109,-2.3196,-2.4119,-2.5703,-2.5703,-2.5703,-2.5701,-2.5702,-2.5702,-2.5702,-2.5682,-2.5683,-2.5684,-2.5682,-2.5642,-2.5561,-2.551,-2.5473,-2.5473,-2.5387,-2.532,-2.5255,-2.5192,-2.5068,-2.4942,-2.4785,-2.4623,-2.4389,-2.4118,-2.3608,-2.3094,-2.2726,-2.227,-2.1658,0.0,-2.0274,-1.9695,-1.8589,-1.7532,-1.6758,-1.6422,-1.5585,-1.4951,-1.4859,-1.4651,-1.4914,-1.5973,-1.6118,-1.6528,-1.7652,-1.724,-1.6876,-1.7073,-1.7073,-1.7227,-1.7503,-1.7625,-1.7774,-1.7947,-1.8212,-1.8461,-1.8616,-1.875,-1.8902,-1.9043,-1.9089,-1.8812,-1.8251,-1.8057,-1.762,-1.6935,-1.65,-1.6136,-1.5741,-1.4661,-1.3846,-1.323,-1.2394,-1.1648,-1.1004,-1.0382,-0.9628,-0.8634,-0.6749,-0.5675,-0.5019,0.0,0.0,0.0,0.0,0.0,0.0,0.0,0.0,0.0,0.0,0.0,0.0,0.0,0.0,0.0,0.0,0.0,0.0,-2.0308,-2.0345,-2.0379,-2.0399,-2.0441,-2.0454,-2.0454,-2.048,-2.0496,-2.0503,-2.0543,-2.1421,-2.3105,-2.3103,-2.4033,-2.5701,-2.5668,-2.5645,-2.5648,-2.5645,-2.5642,-2.5642,-2.5642,-2.5648,-2.564,-2.5642,-2.5657,-2.5643,-2.5626,-2.5589,0.0,0.0,-2.5479,-2.5398,-2.534,-2.5214,-2.5091,-2.4955,-2.4804,-2.4607,-2.4302,-2.386,-2.3468,-2.3206,-2.2859,-2.2361,-2.1737,-2.1242,-2.0645,-1.9603,-1.8781,-1.8112,-1.7497,-1.6868,-1.6422,-1.6372,-1.6149,-1.6278,-1.7078,-1.7169,-1.7492,-1.8363,-1.8187,-1.7962,-1.7788,-1.7882,-1.8028,-1.8226,-1.8422,-1.8655,-1.8855,-1.9058,-1.9281,-1.9449,-1.9558,-1.9737,-1.9949,-1.9569,-1.9269,-1.9094,-1.8485,-1.7794,-1.71,-1.6784,-1.6178,-1.5313,-1.4541,-1.3943,-1.3484,-1.2805,-1.2196,-1.1654,-1.1337,-1.0841,-1.0117,-0.8311,-0.7395,-0.7058,0.0,0.0,0.0,0.0,0.0,0.0,0.0,0.0,0.0,0.0,0.0,0.0,0.0,0.0,0.0,0.0,0.0,0.0,0.0,-2.0353,-2.0405,-2.0404,-2.0448,-2.0502,-2.0504,-2.0499,-2.0503,-2.0525,-2.0583,-2.1327,-2.2742,-2.2984,-2.3881,-2.5321,-2.5503,-2.5595,-2.5566,-2.5571,-2.5565,-2.5565,-2.5565,-2.5576,-2.5576,-2.5561,-2.5598,-2.5645,-2.5683,-2.567,0.0,0.0,-2.5576,-2.5517,-2.5464,-2.5376,-2.5264,-2.5118,-2.4949,-2.4746,-2.4373,-2.404,-2.3735,-2.345,-2.3157,-2.2825,-2.2419,-2.1982,-2.142,-2.0596,-1.9925,-1.9278,-1.8545,-1.8014,-1.7682,-1.7569,-1.7405,-1.7457,-1.8006,-1.8072,-1.8303,-1.8939,-1.9011,-1.8936,-1.8669,-1.8669,-1.8745,-1.8884,-1.9161,-1.9384,-1.9609,-1.9839,-2.0015,-2.0177,-2.0345,-2.0436,-2.0447,-1.9925,-1.9561,-1.9317,-1.8584,-1.784,-1.713,-1.6828,-1.6144,-1.512,-1.4658,-1.4232,-1.3828,-1.3302,-1.28,-1.2354,-1.2174,-1.1811,-1.1214,-0.9906,-0.915,-0.8726,0.0,0.0,0.0,0.0,0.0,0.0,0.0,0.0,0.0,0.0,0.0,0.0,0.0,0.0,0.0,0.0,0.0,0.0,0.0,-2.0366,-2.0404,-2.0395,-2.0458,-2.0504,-2.0497,-2.0506,-2.0527,-2.0604,-2.0605,-2.1024,-2.1857,-2.2702,-2.3544,-2.4384,-2.5221,-2.5568,-2.5499,-2.5506,-2.5499,-2.5499,-2.5499,-2.5499,-2.5506,-2.5492,-2.5504,-2.5521,-2.5651,0.0,0.0,0.0,-2.5659,-2.56,-2.5586,-2.555,-2.5452,-2.5329,-2.5096,-2.4842,-2.4561,-2.4302,-2.4001,-2.3674,-2.3376,-2.3095,-2.2764,-2.2364,-2.1965,-2.1535,-2.0677,-1.989,-1.9515,-1.8749,-1.8144,-1.7988,-1.7812,-1.7888,-1.8495,-1.851,-1.8726,-1.9419,-1.9603,-1.9711,-1.9752,-1.9347,-1.925,-1.9654,-1.9732,-1.9894,-2.0174,-2.0429,-2.0663,-2.0861,-2.1151,-2.0969,-2.03,-2.0355,-1.9682,-1.8353,-1.8188,-1.772,-1.7,-1.6601,-1.6179,-1.5754,-1.5463,-1.5074,-1.4533,-1.4214,-1.3776,-1.334,-1.301,-1.2626,-1.221,-1.1895,-1.1045,-1.0024,0.0,0.0,0.0,0.0,0.0,0.0,0.0,0.0,0.0,0.0,0.0,0.0,0.0,0.0,0.0,0.0,0.0,0.0,0.0,-2.0366,-2.0408,-2.0395,-2.0456,-2.0503,-2.0503,-2.0531,-2.0572,-2.0605,-2.0598,-2.1006,-2.1822,-2.2641,-2.3495,-2.4339,-2.5169,-2.5503,-2.5426,-2.5421,-2.5404,-2.5367,-2.5367,-2.5376,-2.5382,-2.5426,-2.543,-2.5439,0.0,0.0,0.0,-2.5682,-2.5681,-2.5666,-2.56,-2.5195,-2.4552,-2.386,-2.3475,-2.3392,-2.3752,-2.367,-2.3565,-2.3812,-2.3667,-2.3376,-2.3052,-2.2677,-2.2337,-2.1982,-2.1431,-2.0904,-2.0671,-2.0161,-1.976,-1.9661,-1.9544,-1.9501,-1.9714,-1.9726,-1.9767,-2.0015,-2.01,-2.0204,-2.0273,-2.0015,-1.9909,-2.017,-2.0361,-2.0579,-2.086,-2.0974,-2.1198,-2.1509,-2.157,-2.1345,-2.0772,-2.0317,-1.961,-1.8692,-1.8004,-1.7494,-1.7117,-1.6815,-1.6528,-1.6258,-1.5924,-1.5551,-1.5165,-1.4845,-1.447,-1.4038,-1.3742,-1.3421,-1.3057,-1.2801,-1.2361,-1.1778,0.0,0.0,0.0,0.0,0.0,0.0,0.0,0.0,0.0,0.0,0.0,0.0,0.0,0.0,0.0,0.0,0.0,-2.0306,0.0,0.0,-2.0404,-2.0425,-2.048,-2.051,-2.0509,-2.0575,-2.0593,-2.0605,-2.0593,-2.0843,-2.1351,-2.2181,-2.3003,-2.3825,-2.4641,-2.5134,-2.536,-2.5351,-2.5293,-2.5262,-2.5262,-2.5264,-2.5264,-2.5313,-2.534,0.0,0.0,0.0,0.0,-2.5632,-2.5677,-2.5644,-2.5284,-2.4553,-2.3694,-2.3035,-2.2737,-2.2694,-2.3051,-2.3215,-2.3359,-2.3603,-2.368,-2.3667,-2.3319,-2.2985,-2.2677,-2.2337,-2.1982,-2.1658,-2.1386,-2.1071,-2.0811,-2.0728,-2.0595,-2.0475,-2.0475,-2.0475,-2.0494,-2.0527,-2.0579,-2.0695,-2.0728,-2.0712,-2.0697,-2.0697,-2.0877,-2.1151,-2.1419,-2.1495,-2.1691,-2.1986,-2.2032,-2.1642,-2.0789,-2.0314,-1.9568,-1.8585,-1.7946,-1.7526,-1.7296,-1.7052,-1.6815,-1.6607,-1.6274,-1.5968,-1.5682,-1.5344,-1.5013,-1.4704,-1.4438,-1.413,-1.3782,-1.3615,-1.3353,-1.2978,0.0,0.0,0.0,0.0,0.0,0.0,0.0,0.0,0.0,0.0,0.0,0.0,0.0,0.0,0.0,0.0,0.0,0.0,0.0,0.0,0.0,-2.0497,-2.0495,-2.0506,-2.0497,-2.0577,-2.0593,-2.0605,-2.0593,-2.057,-2.0519,-2.1383,-2.2186,-2.2933,-2.3732,-2.455,-2.5303,-2.5233,-2.519,-2.5187,-2.5187,-2.5187,-2.5206,-2.5201,0.0,0.0,0.0,0.0,-2.541,-2.5547,-2.5606,-2.5476,-2.4569,-2.3657,-2.2929,-2.2815,-2.2736,-2.2642,-2.249,-2.2899,-2.3328,-2.3077,-2.3492,-2.3881,-2.3576,-2.3295,-2.3003,-2.2598,-2.2364,-2.2096,-2.1694,-2.145,-2.1277,-2.1167,-2.0958,-2.0827,-2.0827,-2.0827,-2.086,-2.0893,-2.1055,-2.1135,-2.1215,-2.1466,-2.1511,-2.1261,-2.1355,-2.154,-2.1827,-2.194,-2.2141,-2.2426,-2.2497,-2.1841,-2.0435,-2.0349,-1.9522,-1.8005,-1.7944,-1.7755,-1.7509,-1.7313,-1.7068,-1.6815,-1.6543,-1.6316,-1.6095,-1.5755,-1.5507,-1.5268,-1.5027,-1.4704,-1.4429,-1.4332,-1.4059,-1.3635,0.0,0.0,0.0,0.0,0.0,0.0,0.0,0.0,0.0,0.0,0.0,0.0,0.0,0.0,0.0,0.0,0.0,0.0,0.0,0.0,0.0,0.0,0.0,0.0,0.0,0.0,0.0,0.0,-2.0593,-2.057,-2.0519,-2.1336,-2.215,-2.2931,-2.3739,-2.4524,-2.5233,-2.5217,-2.5172,-2.5137,0.0,-2.512,-2.5132,0.0,0.0,0.0,0.0,0.0,-2.5423,-2.5544,-2.5212,-2.4479,-2.2948,-2.2297,-2.1987,-2.1312,-2.1066,-2.1116,-2.157,-2.1725,-2.201,-2.2977,-2.3246,-2.3308,-2.3587,-2.3486,-2.3217,-2.2876,-2.2588,-2.2343,-2.2027,-2.1751,-2.1573,-2.1481,-2.1309,-2.1183,-2.1183,-2.1183,-2.1183,-2.1214,-2.1356,-2.1497,-2.1497,-2.1738,-2.1882,-2.1866,-2.1853,-2.1969,-2.2215,-2.2315,-2.2497,-2.2747,-2.279,-2.2121,-2.0695,-1.9516,-1.8666,-1.8142,-1.8134,-1.7983,-1.7726,-1.7566,-1.7361,-1.7093,-1.6815,-1.657,-1.6316,-1.6024,-1.5711,-1.5433,-1.5193,-1.4994,-1.4746,-1.4515,-1.4374,-1.4246,0.0,0.0,0.0,0.0,0.0,0.0,0.0,0.0,0.0,0.0,0.0,0.0,0.0,0.0,0.0,0.0,0.0,0.0,0.0,0.0,0.0,0.0,0.0,0.0,0.0,0.0,0.0,0.0,0.0,0.0,-2.0503,-2.0955,-2.1604,-2.2411,-2.3187,-2.3966,-2.4704,-2.5053,0.0,0.0,0.0,0.0,0.0,0.0,0.0,0.0,0.0,-2.5072,-2.4797,-2.4516,-2.3898,-2.3083,-2.2104,-2.1542,-2.1128,-2.0633,-2.0439,-2.0475,-2.082,-2.1091,-2.151,-2.2581,-2.297,-2.3233,-2.3775,-2.3703,-2.343,-2.3102,-2.2842,-2.2561,-2.2287,-2.2044,-2.184,-2.1738,-2.1587,-2.1481,-2.1481,-2.1481,-2.1495,-2.1526,-2.1648,-2.1784,-2.1844,-2.2032,-2.2186,-2.2326,-2.2243,-2.2298,-2.2508,-2.2632,-2.2764,-2.2995,-2.302,-2.2341,-2.0907,-1.9612,-1.874,-1.8287,-1.8236,-1.8065,-1.7789,-1.7612,-1.7361,-1.7093,-1.685,-1.6607,-1.6382,-1.6136,-1.5898,-1.5639,-1.5403,-1.5238,-1.5056,-1.4873,-1.4735,-1.4624,0.0,0.0,0.0,0.0,0.0,0.0,0.0,0.0,0.0,0.0,0.0,0.0,0.0,0.0,0.0,0.0,0.0,0.0,0.0,0.0,0.0,0.0,0.0,0.0,0.0,0.0,0.0,0.0,0.0,0.0,0.0,0.0,0.0,0.0,0.0,0.0,0.0,0.0,0.0,0.0,0.0,0.0,0.0,0.0,0.0,0.0,0.0,-2.4667,-2.3832,-2.3146,-2.2406,-2.1776,-2.1659,-2.1112,-2.0497,-2.0499,-2.0457,-2.0404,-2.0328,-2.0721,-2.1337,-2.213,-2.2682,-2.3243,-2.3932,-2.3894,-2.3616,-2.3289,-2.3045,-2.2816,-2.2487,-2.2287,-2.2084,-2.1957,-2.1827,-2.1738,-2.1738,-2.1738,-2.1768,-2.1811,-2.1899,-2.2032,-2.2192,-2.2293,-2.2432,-2.2605,-2.2579,-2.2632,-2.2738,-2.285,-2.2995,-2.3144,-2.3111,-2.247,-2.1192,-2.0191,-1.9333,-1.8563,-1.8312,-1.8048,-1.7811,-1.7526,-1.7288,-1.7018,-1.6799,-1.6607,-1.6382,-1.6179,-1.6026,-1.5827,-1.558,-1.5403,-1.5283,-1.5222,-1.5056,-1.4825,0.0,0.0,0.0,0.0,0.0,0.0,0.0,0.0,0.0,0.0,-1.9877,-1.9941,0.0,0.0,0.0,0.0,0.0,0.0,0.0,0.0,0.0,0.0,0.0,0.0,0.0,-2.051,-2.0516,-2.0516,-2.0566,0.0,0.0,0.0,0.0,0.0,0.0,0.0,0.0,0.0,0.0,0.0,0.0,0.0,0.0,0.0,0.0,0.0,-2.5187,-2.4303,-2.3091,-2.2944,-2.2408,-2.1671,-2.0945,-2.062,-2.0507,-2.051,-2.049,-2.0468,-2.034,-2.0327,-2.0709,-2.204,-2.2351,-2.2616,-2.3805,-2.3939,-2.3685,-2.3342,-2.3095,-2.2868,-2.2685,-2.2443,-2.2265,-2.2237,-2.2061,-2.194,-2.194,-2.194,-2.194,-2.1969,-2.2118,-2.2237,-2.2282,-2.2487,-2.2632,-2.2685,-2.2893,-2.302,-2.3045,-2.3052,-2.3144,-2.3336,-2.2767,-2.2331,-2.2086,-2.054,-1.9697,-1.9471,-1.8621,-1.81,-1.7878,-1.7658,-1.7408,-1.7167,-1.6892,-1.6649,-1.6382,-1.6179,-1.5926,-1.5639,-1.5551,-1.5403,-1.5283,-1.5222,-1.5102,-1.4951,0.0,0.0,0.0,0.0,0.0,0.0,0.0,-1.9757,-1.9738,-1.9745,-1.9782,-1.9842,-1.9938,-1.9952,-1.9966,0.0,0.0,0.0,0.0,0.0,0.0,0.0,0.0,0.0,0.0,-2.0456,-2.0471,-2.0499,0.0,-2.0547,-2.0542,-2.0521,-2.0717,-2.1124,-2.232,-2.3076,-2.354,0.0,0.0,-2.5184,-2.5125,-2.5107,0.0,0.0,0.0,0.0,0.0,-2.4216,-2.286,-2.29,-2.2103,-2.1056,-2.062,-2.0515,-2.0547,-2.0516,-2.0503,-2.0487,-2.0388,-2.028,-2.0564,-2.2061,-2.226,-2.2461,-2.3878,-2.4019,-2.3771,-2.3476,-2.3193,-2.2944,-2.279,-2.2569,-2.2377,-2.2366,-2.2192,-2.2106,-2.2106,-2.2106,-2.2135,-2.2147,-2.2265,-2.2394,-2.246,-2.2605,-2.2738,-2.2816,-2.2995,-2.3095,-2.3095,-2.3241,-2.3336,-2.3448,-2.3124,-2.2775,-2.2285,-2.1061,-2.0177,-1.9685,-1.8687,-1.8053,-1.7794,-1.7549,-1.7288,-1.6993,-1.6763,-1.6517,-1.6262,-1.6083,-1.5885,-1.5668,-1.5477,-1.5358,-1.5283,-1.5163,-1.5027,-1.4935,0.0,0.0,0.0,0.0,0.0,0.0,0.0,-1.9686,-1.9686,-1.9686,-1.9694,-1.9745,-1.9849,-1.9866,-1.9889,0.0,0.0,0.0,0.0,0.0,0.0,0.0,0.0,0.0,0.0,0.0,0.0,-2.0487,-2.0499,0.0,0.0,0.0,0.0,0.0,-2.2274,-2.3018,-2.3272,-2.4705,-2.5293,0.0,0.0,-2.518,0.0,0.0,0.0,0.0,0.0,-2.4233,-2.2837,-2.2908,-2.1842,-2.0492,-2.0494,-2.0549,-2.0586,-2.0521,-2.0492,-2.05,-2.0429,-2.0301,-2.0564,-2.2106,-2.2286,-2.2495,-2.3969,-2.4077,-2.3813,-2.3562,-2.3289,-2.3045,-2.2842,-2.2632,-2.2487,-2.2405,-2.231,-2.2214,-2.2214,-2.2214,-2.2242,-2.231,-2.2394,-2.246,-2.2579,-2.2685,-2.279,-2.2893,-2.3045,-2.3144,-2.3168,-2.3383,-2.3517,-2.3494,-2.3562,-2.3258,-2.2531,-2.1679,-2.0792,-1.9889,-1.8884,-1.8137,-1.7664,-1.7392,-1.7076,-1.6763,-1.6528,-1.6328,-1.6111,-1.5885,-1.577,-1.5654,-1.5403,-1.5268,-1.5208,-1.5043,-1.4966,-1.4902,0.0,0.0,0.0,0.0,0.0,0.0,0.0,-1.9686,-1.9686,-1.9686,-1.9699,-1.9699,-1.9712,-1.977,-1.9811,0.0,0.0,0.0,0.0,0.0,0.0,0.0,0.0,0.0,0.0,0.0,0.0,-2.0405,-2.0467,0.0,0.0,0.0,0.0,0.0,0.0,-2.3397,-2.4135,-2.502,0.0,0.0,0.0,0.0,0.0,0.0,0.0,0.0,0.0,-2.4304,-2.2893,-2.2966,-2.1872,-2.0492,-2.0494,-2.0549,-2.0586,-2.0524,-2.0497,-2.05,-2.0429,-2.0301,-2.0564,-2.2106,-2.2286,-2.2495,-2.3969,-2.4077,-2.3813,-2.3562,-2.3289,-2.3045,-2.2842,-2.2632,-2.2487,-2.2405,-2.2338,-2.2282,-2.2282,-2.2282,-2.231,-2.2377,-2.246,-2.2515,-2.2579,-2.2764,-2.2893,-2.2893,-2.3144,-2.3313,-2.336,-2.3517,-2.3562,-2.3494,-2.3562,-2.3504,-2.33,-2.2422,-2.1532,-2.0603,-1.9533,-1.8523,-1.7612,-1.7272,-1.6977,-1.6696,-1.6355,-1.6111,-1.5928,-1.5639,-1.5463,-1.5343,-1.5253,-1.5133,-1.5043,-1.5013,-1.4966,-1.4902,0.0,0.0,0.0,0.0,0.0,0.0,-1.9583,-1.9583,-1.9583,-1.9583,-1.9583,-1.9583,-1.9583,-1.9601,-1.9649,-1.9738,0.0,0.0,0.0,0.0,0.0,0.0,0.0,0.0,0.0,0.0,-2.1085,-2.112,-2.1667,0.0,0.0,0.0,0.0,0.0,0.0,-2.3992,-2.4307,-2.5118,0.0,0.0,0.0,0.0,0.0,0.0,0.0,0.0,0.0,0.0,-2.2978,-2.3042,-2.1913,-2.05,-2.0543,-2.0544,-2.0526,-2.0501,-2.047,-2.0419,-2.0363,-2.0246,-2.0518,-2.2049,-2.2279,-2.248,-2.386,-2.3999,-2.375,-2.3453,-2.3193,-2.2995,-2.279,-2.2605,-2.2487,-2.2405,-2.2338,-2.231,-2.231,-2.231,-2.2338,-2.2377,-2.246,-2.2542,-2.2579,-2.279,-2.297,-2.3144,-2.3241,-2.3336,-2.3453,-2.3539,-2.3562,-2.3494,-2.3562,-2.3539,-2.3383,-2.2546,-2.1615,-2.0639,-1.955,-1.8464,-1.7408,-1.7109,-1.6799,-1.6448,-1.6151,-1.5885,-1.5639,-1.5329,-1.5179,-1.5088,-1.4963,-1.4856,-1.4811,-1.4735,-1.469,-1.4641,0.0,0.0,0.0,0.0,0.0,-1.9508,-1.9497,-1.9501,-1.9483,-1.9468,-1.9468,-1.9468,-1.9435,-1.9446,-1.9485,-1.9577,-1.9636,0.0,0.0,0.0,0.0,0.0,0.0,0.0,0.0,0.0,-2.1845,-2.1922,-2.2564,-2.2893,0.0,0.0,-2.323,-2.3515,0.0,0.0,0.0,0.0,0.0,0.0,0.0,0.0,0.0,0.0,0.0,0.0,0.0,0.0,0.0,0.0,0.0,-2.0508,-2.0561,-2.0546,-2.0494,-2.0506,-2.0448,-2.0381,-2.0308,-2.0196,-2.0461,-2.199,-2.2192,-2.2399,-2.3787,-2.3937,-2.3685,-2.3383,-2.3102,-2.2919,-2.2712,-2.2525,-2.2405,-2.2366,-2.2265,-2.2192,-2.2192,-2.2254,-2.2282,-2.2366,-2.2432,-2.2515,-2.2579,-2.279,-2.2977,-2.3217,-2.3289,-2.3336,-2.3453,-2.3539,-2.3539,-2.3494,-2.3539,-2.3494,-2.3336,-2.2688,-2.1831,-2.0828,-1.9733,-1.8658,-1.756,-1.7007,-1.6565,-1.6191,-1.5898,-1.561,-1.5329,-1.4982,-1.4845,-1.4814,-1.4655,-1.4588,-1.4574,-1.4497,-1.4452,-1.4452,0.0,0.0,0.0,0.0,0.0,0.0,-1.9501,-1.9501,-1.9487,-1.9405,-1.939,-1.939,-1.9305,-1.9305,-1.9305,-1.9305,-1.9493,0.0,0.0,0.0,0.0,0.0,0.0,0.0,0.0,0.0,-2.2541,-2.2681,-2.2763,-2.2832,-2.2908,-2.2975,-2.349,-2.4381,0.0,0.0,0.0,0.0,0.0,0.0,0.0,0.0,0.0,0.0,0.0,0.0,0.0,0.0,0.0,0.0,0.0,0.0,0.0,-2.0495,0.0,0.0,-2.0452,-2.0385,-2.0321,-2.0203,-2.045,-2.1928,-2.2092,-2.2305,-2.3748,-2.3891,-2.3634,-2.336,-2.3095,-2.2842,-2.2632,-2.2432,-2.2282,-2.2197,-2.2089,-2.1998,-2.1998,-2.2106,-2.2242,-2.2282,-2.2366,-2.246,-2.2596,-2.279,-2.297,-2.3095,-2.3217,-2.3336,-2.3401,-2.3453,-2.3494,-2.3494,-2.3494,-2.3407,-2.3217,-2.3003,-2.2392,-2.1379,-2.0305,-1.9214,-1.8143,-1.7014,-1.6313,-1.5968,-1.5595,-1.5255,-1.4968,-1.4627,-1.4501,-1.4501,-1.4351,-1.43,-1.43,-1.43,-1.43,-1.43,0.0,0.0,0.0,0.0,0.0,0.0,0.0,-1.9298,-1.9282,-1.9266,-1.9266,-1.9266,-1.9232,-1.9232,-1.9232,-1.9232,-1.9375,0.0,0.0,0.0,0.0,0.0,0.0,0.0,0.0,0.0,-2.3297,-2.3381,-2.4077,-2.4476,-2.4535,-2.4652,-2.4894,-2.5211,-2.5216,-2.5398,0.0,0.0,0.0,0.0,0.0,0.0,-2.5638,0.0,0.0,0.0,0.0,0.0,0.0,0.0,0.0,0.0,0.0,0.0,0.0,-2.0434,-2.0377,-2.0321,-2.0262,-2.0107,-2.0316,-2.1789,-2.199,-2.2185,-2.3535,-2.3642,-2.3407,-2.3077,-2.2893,-2.2685,-2.2432,-2.2338,-2.2237,-2.2089,-2.2044,-2.1998,-2.1998,-2.2044,-2.2106,-2.2225,-2.2366,-2.2515,-2.2659,-2.2816,-2.297,-2.3095,-2.3193,-2.3265,-2.3336,-2.3336,-2.3383,-2.3448,-2.3448,-2.3336,-2.3126,-2.2944,-2.2306,-2.1257,-2.0127,-1.9007,-1.7898,-1.6776,-1.6052,-1.5624,-1.5285,-1.4937,-1.4627,-1.431,-1.4149,-1.4149,-1.3993,-1.3941,-1.3941,-1.4007,-1.404,-1.404,0.0,0.0,0.0,0.0,0.0,0.0,0.0,-1.9202,-1.9202,-1.917,-1.917,-1.9135,-1.9084,-1.9102,-1.9211,-1.9521,-1.9641,0.0,0.0,0.0,0.0,0.0,0.0,0.0,0.0,-2.363,-2.4011,-2.4071,-2.4746,-2.5126,-2.5224,-2.5367,-2.5449,-2.5531,-2.5542,-2.5609,0.0,0.0,0.0,0.0,0.0,0.0,-2.5697,0.0,0.0,0.0,0.0,0.0,0.0,0.0,0.0,0.0,0.0,0.0,0.0,0.0,-2.025,-2.0178,-2.0134,-1.9991,-2.02,-2.1626,-2.1847,-2.2027,-2.3328,-2.344,-2.3193,-2.2893,-2.2712,-2.2525,-2.2293,-2.218,-2.2077,-2.194,-2.1899,-2.1869,-2.1882,-2.1911,-2.2003,-2.2168,-2.2338,-2.2487,-2.2605,-2.2738,-2.2893,-2.3003,-2.3119,-2.3193,-2.3265,-2.3289,-2.3289,-2.3289,-2.3289,-2.3193,-2.3045,-2.2816,-2.2285,-2.1457,-2.0289,-1.9131,-1.8045,-1.6912,-1.5993,-1.5299,-1.5027,-1.4672,0.0,-1.4046,-1.3881,-1.3802,-1.3695,-1.3641,-1.3641,-1.3708,-1.3741,-1.3775,0.0,0.0,0.0,0.0,0.0,0.0,0.0,-1.9168,-1.917,-1.9087,-1.9087,-1.9035,-1.8913,-1.8949,-1.9291,-2.0027,0.0,0.0,0.0,0.0,0.0,0.0,0.0,0.0,0.0,-2.4479,-2.4613,-2.4692,-2.4804,-2.4961,-2.5101,-2.5217,-2.5322,-2.5387,-2.5456,-2.5531,0.0,0.0,0.0,0.0,0.0,0.0,0.0,0.0,0.0,0.0,0.0,0.0,0.0,0.0,0.0,0.0,0.0,0.0,0.0,0.0,0.0,0.0,0.0,-1.9873,-2.0107,-2.1438,-2.1606,-2.1821,-2.3173,-2.3271,0.0,-2.2738,-2.2497,-2.2321,-2.2192,-2.1945,-2.1797,-2.1797,-2.1694,-2.162,-2.1694,-2.1768,-2.1886,-2.214,-2.2254,-2.2366,-2.2487,-2.2623,-2.2764,-2.2893,-2.3003,-2.3119,-2.3193,-2.3241,-2.3217,-2.3095,-2.3095,-2.302,-2.2893,-2.2605,-2.226,-2.1853,-2.0638,-1.9509,-1.8406,-1.7228,-1.6066,-1.4982,-1.4763,-1.4401,-1.3967,-1.3808,-1.3641,-1.3459,-1.3391,-1.3357,-1.3357,-1.3391,-1.3425,-1.3459,0.0,0.0,0.0,0.0,0.0,0.0,0.0,0.0,0.0,0.0,-1.8948,-1.8948,-1.8913,-1.9453,-1.9884,0.0,0.0,0.0,0.0,0.0,0.0,0.0,0.0,0.0,0.0,-2.4284,-2.4392,-2.4476,-2.4588,-2.4779,-2.494,-2.5025,-2.5126,-2.5253,-2.5359,-2.5464,0.0,0.0,0.0,0.0,0.0,0.0,0.0,0.0,0.0,0.0,-2.5613,-2.451,0.0,0.0,0.0,0.0,0.0,0.0,0.0,0.0,-1.9939,-1.9823,-1.9657,0.0,-1.9903,-2.1239,-2.1387,-2.1563,0.0,0.0,-2.2738,-2.2515,-2.226,-2.2044,-2.1915,-2.1797,-2.1724,-2.1664,-2.162,-2.162,-2.162,-2.1724,-2.184,-2.1974,-2.218,-2.231,-2.2338,-2.2569,-2.2712,-2.2738,-2.2919,-2.3045,-2.3045,-2.307,-2.307,-2.3003,-2.285,-2.2764,-2.2659,-2.2354,-2.1982,-2.1568,-2.0411,-1.9264,-1.8084,-1.6965,-1.5833,-1.4763,-1.4388,-1.4032,-1.3682,-1.3425,-1.3267,-1.3198,-1.3047,-1.3012,-1.3047,-1.3129,-1.3163,-1.3232,0.0,0.0,0.0,0.0,0.0,0.0,0.0,0.0,0.0,0.0,0.0,0.0,0.0,0.0,0.0,0.0,0.0,0.0,0.0,0.0,0.0,0.0,0.0,0.0,0.0,-2.4095,-2.421,-2.432,-2.4441,-2.4591,-2.4768,-2.4865,-2.4968,-2.508,-2.5273,0.0,0.0,0.0,0.0,0.0,-2.56,0.0,0.0,0.0,0.0,0.0,-2.5104,-2.407,0.0,-2.2456,-2.139,-2.0238,0.0,0.0,0.0,0.0,-1.9726,-1.9577,-1.9409,-1.9365,-1.9675,-2.0988,-2.1133,-2.1308,-2.2628,0.0,-2.247,-2.2203,-2.2015,-2.1853,-2.1661,-2.1556,-2.1511,-2.1435,-2.1373,-2.1404,-2.145,-2.1617,-2.1797,-2.184,-2.2032,-2.2192,-2.2282,-2.2487,-2.2632,-2.2685,-2.2842,-2.2919,-2.2944,-2.2952,-2.2944,-2.285,-2.2685,-2.2579,-2.2525,-2.2169,-2.1748,-2.126,-2.0448,-1.9414,-1.8137,-1.7056,-1.5929,-1.4785,-1.4232,-1.3749,-1.3391,-1.3151,-1.299,-1.2885,-1.2768,-1.272,-1.272,-1.2885,-1.292,-1.299,0.0,0.0,0.0,0.0,0.0,0.0,0.0,0.0,0.0,0.0,0.0,0.0,0.0,0.0,0.0,0.0,0.0,0.0,0.0,0.0,0.0,0.0,0.0,-2.3765,-2.3774,-2.3896,-2.4018,-2.4154,-2.4302,-2.4444,-2.4566,-2.4689,-2.4808,-2.4902,-2.5164,-2.5303,0.0,0.0,-2.5422,-2.5473,-2.5479,0.0,0.0,0.0,0.0,0.0,0.0,0.0,0.0,-2.1751,-2.0839,-2.0069,-1.9991,0.0,0.0,0.0,0.0,0.0,-1.9166,-1.9224,-1.9557,-2.0757,-2.0972,-2.1202,-2.2384,0.0,-2.2248,-2.1928,-2.1781,-2.1631,-2.1417,-2.1309,-2.1262,-2.1183,-2.1135,-2.1135,-2.1294,-2.1511,-2.1694,-2.1768,-2.1882,-2.2044,-2.2237,-2.2377,-2.2542,-2.2659,-2.2738,-2.2816,-2.2868,-2.2868,-2.2816,-2.2659,-2.2525,-2.2371,-2.2287,-2.1986,-2.1554,-2.0975,-2.053,-1.9645,-1.8311,-1.7225,-1.6083,-1.4908,-1.4078,-1.3506,-1.3129,-1.2943,-1.2768,-1.2639,-1.2544,-1.2473,-1.2508,-1.2591,-1.2697,-1.2768,0.0,0.0,0.0,0.0,0.0,0.0,0.0,0.0,0.0,0.0,0.0,0.0,0.0,0.0,0.0,0.0,0.0,0.0,0.0,0.0,0.0,0.0,-2.3476,-2.3589,-2.3703,-2.3792,-2.3858,-2.3958,-2.4152,-2.4266,-2.4339,-2.4478,-2.4673,-2.4912,-2.5057,-2.5141,-2.5141,-2.5274,-2.5322,-2.5331,-2.5395,0.0,0.0,0.0,0.0,0.0,0.0,0.0,0.0,-2.1557,-2.0665,-1.9926,-1.9842,0.0,0.0,0.0,0.0,0.0,-1.893,-1.9233,-1.9825,-2.0629,-2.1127,-2.1591,-2.2283,-2.2203,-2.1928,-2.1768,-2.1526,-2.1356,-2.123,-2.1199,-2.1135,-2.1119,-2.1119,-2.1135,-2.1294,-2.1356,-2.1433,-2.1694,-2.1781,-2.1899,-2.2027,-2.222,-2.2394,-2.2515,-2.2632,-2.2712,-2.2738,-2.2738,-2.2659,-2.2525,-2.2298,-2.2056,-2.1797,-2.1601,-2.1261,-2.0811,-2.0304,-1.9431,-1.82,-1.698,-1.5839,-1.4774,-1.3874,-1.322,-1.2838,-1.278,-1.2627,-1.2449,-1.2401,-1.2401,-1.2401,-1.2449,-1.2449,-1.2484,0.0,0.0,0.0,0.0,0.0,0.0,0.0,0.0,0.0,0.0,0.0,0.0,0.0,0.0,0.0,0.0,0.0,0.0,0.0,0.0,0.0,0.0,-2.3336,-2.3453,-2.3607,-2.3656,-2.3728,-2.3855,-2.3958,-2.4113,-2.4247,-2.4409,-2.4594,-2.4749,-2.4879,-2.4961,-2.5006,-2.5099,-2.5134,-2.5138,0.0,0.0,0.0,0.0,0.0,0.0,0.0,0.0,0.0,0.0,-2.0113,-1.9663,-1.9609,0.0,0.0,0.0,0.0,0.0,-1.8697,-1.9345,-2.0124,-2.0362,-2.0872,-2.1489,-2.2006,-2.1945,-2.1738,-2.1526,-2.1356,-2.1199,-2.1006,-2.0941,-2.0924,-2.0907,-2.0924,-2.0974,-2.1071,-2.1214,-2.1356,-2.1481,-2.1678,-2.1811,-2.1899,-2.2135,-2.2338,-2.2394,-2.2515,-2.2579,-2.2579,-2.2569,-2.247,-2.2298,-2.2056,-2.1811,-2.1511,-2.1135,-2.0795,-2.0462,-1.9925,-1.9221,-1.8327,-1.6839,-1.5757,-1.4956,-1.369,-1.2965,-1.2733,-1.2508,-1.2365,-1.2222,-1.2222,-1.2186,-1.2125,-1.2258,-1.233,-1.2413,0.0,0.0,0.0,0.0,0.0,0.0,0.0,0.0,0.0,0.0,0.0,0.0,0.0,0.0,0.0,0.0,0.0,0.0,0.0,0.0,-2.3102,-2.3168,-2.3265,-2.336,-2.3453,-2.3562,-2.3656,-2.3792,-2.3837,-2.3996,-2.419,-2.4357,-2.4495,-2.4594,-2.4704,-2.4794,-2.4865,-2.4926,-2.4953,-2.4942,0.0,0.0,0.0,0.0,0.0,0.0,0.0,0.0,0.0,0.0,0.0,0.0,0.0,0.0,0.0,-1.8966,-1.8825,-1.8695,-1.8485,-1.9351,-2.0291,-2.0069,-2.0694,-2.1467,-2.1766,-2.1738,-2.1526,-2.1277,-2.1151,-2.1038,-2.0794,-2.0728,-2.0695,-2.0644,-2.0711,-2.0794,-2.0877,-2.1071,-2.1214,-2.1277,-2.1526,-2.1691,-2.1781,-2.202,-2.2209,-2.2265,-2.2377,-2.2432,-2.2432,-2.236,-2.2231,-2.2056,-2.184,-2.154,-2.1214,-2.073,-2.0395,-2.0154,-1.9588,-1.8997,-1.8355,-1.6682,-1.5623,-1.5019,-1.3518,-1.2733,-1.252,-1.2282,-1.2113,-1.2052,-1.2052,-1.1979,-1.1918,-1.2077,-1.2222,-1.2365,0.0,0.0,0.0,0.0,0.0,0.0,0.0,0.0,0.0,0.0,0.0,0.0,0.0,0.0,0.0,0.0,0.0,0.0,0.0,0.0,-2.3095,-2.3119,-2.3241,-2.3336,-2.3424,-2.3539,-2.3629,-2.3721,-2.3771,-2.3937,-2.419,-2.421,-2.4321,-2.4517,-2.4582,-2.4647,-2.4714,-2.4791,-2.4821,-2.4802,-2.4823,0.0,0.0,0.0,0.0,0.0,0.0,0.0,0.0,0.0,0.0,0.0,0.0,0.0,-1.8895,-1.8753,-1.8639,-1.8465,-1.8211,-1.911,-2.0069,-1.9796,-2.0811,-2.1832,-2.1738,-2.1495,-2.1246,-2.0991,-2.0877,-2.0761,-2.0561,-2.0527,-2.0527,-2.0527,-2.061,-2.0711,-2.0794,-2.0877,-2.1039,-2.1277,-2.1309,-2.1464,-2.1768,-2.1827,-2.1945,-2.2192,-2.222,-2.222,-2.222,-2.2101,-2.1969,-2.1827,-2.157,-2.1293,-2.0926,-2.0447,-2.017,-2.0005,-1.9398,-1.8798,-1.8161,-1.6431,-1.5336,-1.4737,-1.3313,-1.2484,-1.215,-1.2113,-1.1979,-1.1819,-1.1819,-1.1856,-1.1881,-1.1918,-1.2052,-1.221,0.0,0.0,0.0,0.0,0.0,0.0,0.0,0.0,0.0,0.0,0.0,0.0,0.0,0.0,0.0,0.0,0.0,0.0,0.0,0.0,-2.3095,-2.3095,-2.3241,-2.3313,-2.3336,-2.3471,-2.3562,-2.3629,-2.375,-2.3876,-2.4016,-2.4152,-2.4228,-2.4321,-2.443,-2.45,-2.4517,-2.4547,-2.4561,-2.4561,-2.454,-2.4561,0.0,0.0,0.0,0.0,0.0,0.0,0.0,0.0,-1.9101,-1.8981,-1.8878,-1.8789,-1.8679,-1.8508,-1.8371,-1.8211,-1.804,-1.89,-1.9813,-1.9628,-2.0578,-2.1509,-2.1464,-2.123,-2.1007,-2.0877,-2.0728,-2.0561,-2.0475,-2.0407,-2.0407,-2.0441,-2.0491,-2.0559,-2.0711,-2.0794,-2.0925,-2.1151,-2.1262,-2.1371,-2.154,-2.1691,-2.1857,-2.1945,-2.2015,-2.2044,-2.2032,-2.1928,-2.1781,-2.157,-2.1324,-2.1007,-2.0597,-2.0174,-1.9732,-1.9325,-1.8936,-1.8278,-1.7349,-1.5979,-1.4941,-1.4113,-1.3047,-1.2401,-1.2077,-1.2016,-1.1881,-1.1756,-1.1756,-1.1793,-1.1856,-1.1856,-1.1918,-1.2016,0.0,0.0,0.0,0.0,0.0,0.0,0.0,0.0,0.0,0.0,0.0,0.0,0.0,0.0,0.0,0.0,0.0,0.0,0.0,-2.3095,-2.3119,-2.3144,-2.3241,-2.3313,-2.3336,-2.3448,-2.3539,-2.3585,-2.3725,-2.3813,-2.3876,-2.4016,-2.4132,-2.417,-2.4247,-2.4321,-2.434,-2.4339,-2.4338,-2.4338,-2.4338,-2.4321,0.0,0.0,0.0,0.0,0.0,0.0,0.0,0.0,-1.8878,-1.8789,-1.8623,-1.8547,-1.8469,-1.8249,-1.8125,-1.8001,-1.7822,-1.854,-1.9329,-1.9389,-2.0183,-2.0971,-2.1103,-2.1007,-2.0811,-2.0695,-2.0527,-2.0357,-2.0304,-2.027,-2.027,-2.0304,-2.0354,-2.0457,-2.0592,-2.0711,-2.081,-2.1006,-2.1103,-2.123,-2.1371,-2.154,-2.1678,-2.1738,-2.1811,-2.184,-2.1751,-2.1661,-2.1556,-2.1293,-2.1087,-2.0761,-2.0308,-1.9909,-1.9354,-1.8784,-1.8226,-1.7573,-1.674,-1.5646,-1.4626,-1.3668,-1.2842,-1.2294,-1.2016,-1.1918,-1.1782,-1.1645,-1.1645,-1.1682,-1.1756,-1.1756,-1.1819,-1.1881,0.0,0.0,0.0,0.0,0.0,0.0,0.0,0.0,0.0,0.0,0.0,0.0,0.0,0.0,0.0,0.0,0.0,0.0,0.0,-2.3095,-2.3144,-2.3193,-2.3265,-2.3336,-2.3383,-2.3471,-2.3539,-2.3585,-2.3739,-2.3807,-2.3795,-2.3876,-2.3976,-2.4094,-2.4094,-2.4151,-2.4208,-2.4208,-2.4208,-2.4208,-2.4208,-2.4151,-2.4002,0.0,0.0,0.0,0.0,0.0,0.0,0.0,-1.8585,-1.8566,-1.8371,-1.829,-1.8249,-1.807,-1.7944,-1.7839,-1.7555,-1.7987,-1.8597,-1.9082,-1.9664,-2.022,-2.0686,-2.0794,-2.0728,-2.0457,-2.0235,-2.01,-2.01,-2.01,-2.01,-2.01,-2.027,-2.0388,-2.0388,-2.0559,-2.0711,-2.0794,-2.0877,-2.1007,-2.1277,-2.1309,-2.1388,-2.1589,-2.1589,-2.1542,-2.1386,-2.134,-2.123,-2.1103,-2.081,-2.0509,-2.01,-1.9624,-1.9109,-1.8486,-1.7424,-1.6753,-1.6467,-1.5531,-1.4513,-1.3457,-1.271,-1.2161,-1.1782,-1.1782,-1.1671,-1.1485,-1.1485,-1.1571,-1.1693,-1.1693,-1.1756,-1.1819,0.0,0.0,0.0,0.0,0.0,0.0,0.0,0.0,0.0,0.0,0.0,0.0,0.0,0.0,0.0,0.0,0.0,0.0,0.0,-2.3095,-2.3144,-2.3193,-2.3265,-2.3336,-2.3383,-2.3471,-2.3539,-2.3585,-2.3696,-2.3743,-2.3807,-2.3873,-2.3917,-2.3958,-2.4016,-2.4016,-2.3996,-2.3996,-2.3958,-2.3917,-2.3917,-2.3873,-2.3738,0.0,0.0,0.0,0.0,0.0,0.0,0.0,0.0,0.0,-1.8243,-1.8176,-1.8053,-1.79,-1.7749,-1.7595,-1.7455,-1.7831,-1.8231,-1.8324,-1.9135,-1.9893,-1.9892,-2.025,-2.0527,-2.0254,-2.015,-2.008,-2.0025,-2.0025,-2.0025,-2.0025,-2.0115,-2.022,-2.0304,-2.0423,-2.0559,-2.0711,-2.0794,-2.0877,-2.1007,-2.1151,-2.123,-2.131,-2.1356,-2.1325,-2.1183,-2.1151,-2.1023,-2.0695,-2.0478,-2.012,-1.9675,-1.9273,-1.8593,-1.7664,-1.7027,-1.6347,-1.5543,-1.4601,-1.368,-1.277,-1.2364,-1.2052,-1.1782,-1.1634,-1.156,-1.1485,-1.1485,-1.1522,-1.1571,-1.1571,-1.1645,-1.1719,0.0,0.0,0.0,0.0,0.0,0.0,0.0,0.0,0.0,0.0,0.0,0.0,0.0,0.0,0.0,0.0,0.0,0.0,0.0,0.0,-2.3144,-2.3241,-2.3289,-2.3336,-2.3448,-2.3494,-2.3517,-2.3562,-2.3629,-2.3696,-2.3718,-2.3789,-2.3831,-2.3831,-2.3852,-2.3852,-2.3831,-2.3831,-2.3789,-2.3725,-2.3725,-2.3462,-2.3016,0.0,0.0,0.0,0.0,0.0,0.0,0.0,0.0,0.0,-1.807,-1.7983,-1.7878,-1.7698,-1.7566,-1.7432,-1.7305,-1.7485,-1.7737,-1.785,-1.8445,-1.8964,-1.9014,-1.971,-2.0289,-2.0135,-2.0045,-1.9975,-1.9919,-1.9919,-1.9919,-1.9919,-1.999,-2.008,-2.02,-2.0304,-2.0423,-2.0559,-2.0644,-2.0728,-2.0827,-2.0941,-2.1022,-2.1038,-2.1087,-2.1023,-2.086,-2.086,-2.0695,-2.0323,-2.01,-1.9803,-1.9347,-1.8691,-1.7951,-1.7136,-1.6233,-1.541,-1.4663,-1.4063,-1.3326,-1.2473,-1.2125,-1.1881,-1.1756,-1.156,-1.1485,-1.1485,-1.1485,-1.1485,-1.1485,-1.1485,-1.156,-1.1645,0.0,0.0,0.0,0.0,0.0,0.0,0.0,0.0,0.0,0.0,0.0,0.0,0.0,0.0,0.0,0.0,0.0,0.0,0.0,0.0,-2.3168,-2.3289,-2.3242,-2.3218,-2.328,-2.3262,-2.3262,-2.3262,-2.3491,-2.3585,-2.3585,-2.3656,-2.37,-2.37,-2.37,-2.37,-2.3678,-2.3606,-2.3526,-2.3455,-2.3383,-2.2834,-2.1981,-2.1175,0.0,0.0,0.0,0.0,0.0,0.0,0.0,0.0,-1.7856,-1.7789,-1.7721,-1.7455,-1.7401,-1.7329,-1.7141,-1.7083,-1.7152,-1.7511,-1.7618,-1.777,-1.8192,-1.9127,-1.9897,-1.9897,-1.9758,-1.9617,-1.9617,-1.9617,-1.9617,-1.9617,-1.9748,-1.9934,-1.9989,-2.0154,-2.0304,-2.0354,-2.0441,-2.0494,-2.061,-2.066,-2.0693,-2.0761,-2.0761,-2.0662,-2.046,-2.046,-2.0289,-1.997,-1.9762,-1.9472,-1.9064,-1.7984,-1.7222,-1.6775,-1.5157,-1.4179,-1.3802,-1.3729,-1.3216,-1.2401,-1.1991,-1.1756,-1.1682,-1.156,-1.1485,-1.1485,-1.1485,-1.1485,-1.1485,-1.1485,-1.1485,-1.1522,0.0,0.0,0.0,0.0,0.0,0.0,0.0,0.0,0.0,0.0,0.0,0.0,0.0,0.0,0.0,0.0,0.0,0.0,0.0,0.0,-2.3168,-2.3289,-2.2802,-2.2228,-2.1643,-2.1625,-2.1625,-2.1625,-2.2936,-2.3585,-2.3585,-2.3656,-2.37,-2.37,-2.37,-2.3634,-2.3508,-2.2865,-2.2571,-2.2442,-2.1759,-2.1344,-2.1009,-2.0209,-1.9738,0.0,0.0,0.0,0.0,0.0,0.0,0.0,-1.7811,-1.7658,-1.7455,-1.7408,-1.7297,-1.7158,-1.7108,-1.6914,-1.6723,-1.6797,-1.7061,-1.7466,-1.8022,-1.8278,-1.8362,-1.8362,-1.8329,-1.8296,-1.8182,-1.8149,-1.8149,-1.8149,-1.8699,-1.9148,-1.9167,-1.9691,-2.0076,-2.0061,-2.015,-2.022,-2.022,-2.0323,-2.0407,-2.0407,-2.0407,-2.0304,-2.0131,-2.0096,-1.9919,-1.9523,-1.9325,-1.9049,-1.863,-1.763,-1.6715,-1.5958,-1.4805,-1.3846,-1.3103,-1.289,-1.2471,-1.1918,-1.1856,-1.1708,-1.1522,-1.1522,-1.1485,-1.1485,-1.1485,-1.1485,-1.1485,-1.1485,-1.1485,-1.1485,0.0,0.0,0.0,0.0,0.0,0.0,0.0,0.0,0.0,0.0,0.0,0.0,0.0,0.0,0.0,0.0,0.0,0.0,0.0,0.0,0.0,0.0,-2.1882,-2.1536,-2.1108,-2.1108,-2.1108,-2.1108,-2.1968,-2.24,-2.24,-2.2443,-2.2461,-2.2457,-2.2457,-2.2396,-2.2273,-2.1864,-2.1622,-2.1494,-2.1049,-2.0578,-2.0123,-1.9634,-1.9182,-1.875,-1.8267,0.0,0.0,0.0,0.0,0.0,0.0,0.0,-1.7361,-1.7281,-1.7191,-1.7057,-1.6898,-1.6727,-1.657,-1.6436,-1.6524,-1.6751,-1.6984,-1.6985,-1.6924,-1.6894,-1.739,-1.7794,-1.773,-1.7697,-1.7697,-1.7697,-1.8047,-1.8353,-1.8419,-1.8755,-1.9015,-1.9019,-1.9341,-1.9573,-1.9573,-1.9863,-2.0061,-2.0061,-2.001,-1.9904,-1.9705,-1.9654,-1.9457,-1.9139,-1.8611,-1.8139,-1.7796,-1.6576,-1.5615,-1.4982,-1.4018,-1.3201,-1.2567,-1.2401,-1.2125,-1.1782,-1.1756,-1.1645,-1.1485,-1.1485,-1.1485,-1.1485,-1.1485,-1.1485,-1.1485,-1.1485,-1.1485,-1.1485,0.0,0.0,0.0,0.0,0.0,0.0,0.0,0.0,0.0,0.0,0.0,0.0,0.0,0.0,0.0,0.0,0.0,0.0,0.0,0.0,0.0,0.0,-2.0847,-2.082,-2.0677,-2.0677,-2.0677,-2.0677,-2.0677,-2.0677,-2.0677,-2.0963,-2.1084,-2.1078,-2.1078,-2.1036,-2.0958,-2.0817,-2.07,-2.0552,-2.0407,-1.9905,-1.926,-1.9134,-1.8689,-1.813,-1.8005,-1.7895,-1.7789,-1.7766,0.0,0.0,0.0,0.0,-1.7329,-1.7141,-1.7083,-1.7007,-1.6675,-1.6554,-1.649,-1.6234,-1.6123,-1.6039,-1.5928,-1.59,-1.5871,-1.5799,-1.6637,-1.7354,-1.7354,-1.7354,-1.7354,-1.7354,-1.7443,-1.7565,-1.7661,-1.7767,-1.7859,-1.7908,-1.8407,-1.8736,-1.8736,-1.9116,-1.9396,-1.9396,-1.931,-1.9218,-1.9002,-1.8863,-1.8664,-1.838,-1.766,-1.7098,-1.6797,-1.5402,-1.4518,-1.4181,-1.326,-1.2615,-1.2174,-1.2077,-1.1943,-1.1782,-1.1719,-1.1608,-1.1485,-1.1485,-1.1485,-1.1485,-1.1485,-1.1485,-1.1485,-1.1485,-1.1485,-1.1485,0.0,0.0,0.0,0.0,0.0,0.0,0.0,0.0,0.0,0.0,0.0,0.0,0.0,0.0,0.0,0.0,0.0,0.0,0.0,0.0,0.0,0.0,-1.9987,-1.9728,-1.9036,-1.9018,-1.9018,-1.9018,-1.8961,-1.8942,-1.8977,-2.0421,-2.1078,-2.1018,-2.1018,-2.0937,-2.0776,-2.0146,-1.9802,-1.9599,-1.8849,-1.8495,-1.8349,-1.8224,-1.809,-1.7922,-1.7856,-1.7772,-1.771,-1.7658,-1.7542,0.0,0.0,0.0,-1.7224,-1.7108,-1.7007,-1.6879,-1.6649,-1.649,-1.6301,-1.6151,-1.6067,-1.5983,-1.5928,-1.5871,-1.5799,-1.5799,-1.5948,-1.6053,-1.6053,-1.6053,-1.6053,-1.6053,-1.6473,-1.6815,-1.6769,-1.726,-1.7632,-1.7581,-1.7637,-1.7696,-1.7696,-1.7722,-1.7714,-1.7714,-1.7665,-1.7529,-1.7309,-1.7211,-1.6987,-1.6731,-1.6359,-1.6113,-1.5891,-1.4792,-1.4217,-1.4109,-1.3046,-1.2389,-1.2113,-1.1918,-1.1819,-1.1782,-1.1719,-1.1608,-1.1485,-1.1485,-1.1485,-1.1485,-1.1485,-1.1485,-1.1485,-1.1485,-1.1485,-1.1522,0.0,0.0,0.0,0.0,0.0,0.0,0.0,0.0,0.0,0.0,0.0,0.0,0.0,0.0,0.0,0.0,0.0,0.0,0.0,0.0,0.0,-1.9109,-1.9133,-1.8995,-1.8659,-1.8642,-1.8642,-1.8642,-1.8604,-1.8603,-1.8617,-1.9345,-1.9681,-1.9644,-1.9606,-1.9544,-1.9426,-1.9073,-1.885,-1.8724,-1.8353,-1.8151,-1.8065,-1.7939,-1.7856,-1.7816,-1.7743,-1.7635,-1.7589,-1.7519,-1.7441,-1.7386,-1.7314,0.0,0.0,0.0,-1.6863,-1.6691,-1.649,-1.6301,-1.6163,-1.6067,-1.5983,-1.5942,-1.5856,-1.5827,-1.5799,-1.5799,-1.5799,-1.5799,-1.5799,-1.5741,-1.5697,-1.5697,-1.5876,-1.6039,-1.5995,-1.6246,-1.6393,-1.6377,-1.6684,-1.6887,-1.6887,-1.7096,-1.7214,-1.7166,-1.7064,-1.6927,-1.667,-1.6564,-1.6387,-1.6064,-1.5488,-1.5049,-1.4844,-1.3932,-1.3358,-1.3143,-1.2543,-1.2186,-1.1979,-1.1819,-1.1756,-1.1756,-1.1645,-1.156,-1.1485,-1.1485,-1.1485,-1.1485,-1.1485,-1.1485,-1.1485,-1.1485,-1.1571,-1.1608,0.0,0.0,0.0,0.0,0.0,0.0,0.0,0.0,0.0,0.0,0.0,0.0,0.0,0.0,0.0,0.0,0.0,0.0,0.0,0.0,0.0,-1.8579,-1.8582,-1.8584,-1.8584,-1.8584,-1.8584,-1.8584,-1.8584,-1.8563,-1.854,-1.854,-1.854,-1.8522,-1.8502,-1.8443,-1.8383,-1.8304,-1.8239,-1.8172,-1.813,-1.8048,-1.7939,-1.7833,-1.7749,-1.7726,-1.7612,-1.7519,-1.7465,-1.7417,-1.7362,-1.7338,-1.7199,-1.7124,0.0,0.0,0.0,-1.6517,-1.6328,-1.6207,-1.6067,-1.5983,-1.5942,-1.5871,-1.5827,-1.5799,-1.5799,-1.5799,-1.577,-1.5741,-1.5741,-1.5668,-1.558,-1.558,-1.5551,-1.5477,-1.5477,-1.5477,-1.5448,-1.5433,-1.5812,-1.6087,-1.6024,-1.6315,-1.6475,-1.636,-1.6273,-1.6055,-1.5813,-1.5735,-1.5524,-1.5224,-1.454,-1.4072,-1.3871,-1.3139,-1.2615,-1.233,-1.215,-1.1968,-1.1856,-1.1756,-1.1682,-1.1645,-1.1522,-1.1485,-1.1485,-1.1485,-1.1485,-1.1485,-1.1485,-1.1485,-1.1485,-1.1522,-1.1608,-1.1693,0.0,0.0,0.0,0.0,0.0,0.0,0.0,0.0,0.0,0.0,0.0,0.0,0.0,0.0,-1.8232,-1.8295,0.0,0.0,0.0,0.0,0.0,-1.8522,-1.8579,0.0,-1.8616,-1.8616,-1.8616,-1.8616,-1.8542,-1.8465,-1.8406,-1.8406,-1.8385,-1.831,-1.8385,-1.8363,-1.8315,-1.8215,-1.8172,-1.8091,-1.7966,-1.7861,-1.7811,-1.7726,-1.7681,-1.7612,-1.7536,-1.7472,-1.7401,-1.7403,-1.7338,-1.7215,-1.7149,-1.7074,-1.6972,0.0,0.0,0.0,-1.6234,-1.6151,-1.6067,-1.5942,-1.5885,-1.5871,-1.5827,-1.5799,-1.5799,-1.5799,-1.5712,-1.561,-1.561,-1.561,-1.558,-1.5522,-1.5507,-1.5477,-1.5418,-1.5418,-1.5374,-1.5238,-1.5237,-1.5205,-1.502,-1.4941,-1.4847,-1.463,-1.4562,-1.44,-1.4159,-1.4053,-1.39,-1.3638,-1.3386,-1.3166,-1.298,-1.2603,-1.233,-1.2113,-1.1993,-1.1822,-1.1719,-1.1693,-1.1645,-1.1522,-1.1485,-1.1485,-1.1485,-1.1485,-1.1485,-1.1485,-1.1485,-1.1485,-1.1522,-1.1645,-1.1682,-1.1719,0.0,0.0,0.0,0.0,0.0,0.0,0.0,0.0,0.0,0.0,0.0,0.0,0.0,-1.8151,-1.8211,-1.8232,-1.8284,0.0,0.0,0.0,0.0,-1.8485,-1.8522,-1.8542,-1.8542,-1.8542,-1.8502,0.0,-1.8463,-1.8406,-1.8348,-1.8348,-1.8307,-1.8301,-1.8339,-1.8298,-1.8232,-1.8172,-1.807,-1.7966,-1.7861,-1.7794,-1.7726,-1.7612,-1.7559,-1.7536,-1.7474,-1.7427,-1.7444,-1.7805,-1.7841,-1.7779,-1.771,-1.7588,-1.7375,-1.6712,-1.6436,-1.6301,-1.6179,-1.6095,-1.6011,-1.5913,-1.5871,-1.5827,-1.5799,-1.5741,-1.5668,-1.5668,-1.561,-1.5522,-1.5477,-1.5477,-1.5448,-1.5448,-1.5403,-1.5358,-1.5358,-1.5298,-1.5268,-1.5222,-1.5056,-1.4902,-1.4839,-1.4651,-1.4511,-1.4383,-1.4241,-1.4046,-1.3769,-1.3682,-1.3493,-1.3138,-1.3012,-1.2768,-1.2401,-1.2174,-1.2004,-1.1918,-1.1723,-1.1623,-1.1571,-1.1533,-1.1496,-1.1459,-1.1485,-1.1485,-1.1485,-1.1485,-1.1485,-1.1485,-1.1485,-1.156,-1.1645,-1.1682,-1.1756,-1.1856,0.0,0.0,0.0,0.0,0.0,0.0,0.0,0.0,0.0,0.0,0.0,0.0,0.0,0.0,-1.8172,-1.8232,-1.8281,-1.8325,-1.8348,-1.8426,-1.8428,-1.8428,-1.8428,-1.8428,-1.8428,-1.8428,0.0,0.0,0.0,0.0,-1.8304,-1.8284,-1.8243,-1.8236,-1.8215,-1.8194,-1.8151,-1.807,-1.7966,-1.7878,-1.7794,-1.7704,-1.7618,-1.7519,-1.7505,-1.7491,-1.7658,-1.7708,-1.7756,-1.8382,-1.8519,-1.8409,-1.8354,-1.8215,-1.7903,-1.7027,-1.6685,-1.6512,-1.6141,-1.6011,-1.5955,-1.5885,-1.5827,-1.5799,-1.5741,-1.5668,-1.558,-1.558,-1.5507,-1.5448,-1.5418,-1.5374,-1.5374,-1.5374,-1.5328,-1.5283,-1.5283,-1.5222,-1.5178,-1.5117,-1.4932,-1.4777,-1.4683,-1.4493,-1.43,-1.4138,-1.398,-1.3735,-1.3493,-1.3344,-1.3138,-1.2756,-1.2615,-1.2365,-1.1993,-1.1847,-1.1723,-1.1671,-1.1485,-1.141,-1.141,-1.1346,-1.1346,-1.1394,-1.1459,-1.1485,-1.1485,-1.1485,-1.1485,-1.1485,-1.1571,-1.1608,-1.1719,-1.1756,-1.1819,-1.1918,0.0,0.0,0.0,0.0,0.0,0.0,0.0,0.0,0.0,0.0,0.0,0.0,0.0,0.0,0.0,-1.8347,-1.8347,-1.8371,-1.836,-1.8342,-1.8345,-1.8345,0.0,0.0,0.0,0.0,0.0,0.0,0.0,0.0,0.0,0.0,-1.8151,-1.8091,-1.8027,-1.8027,-1.8091,-1.7966,-1.7878,-1.7789,-1.771,-1.7612,-1.7512,-1.7489,-1.7474,-1.7494,-1.816,-1.8303,-1.8312,-1.9061,-1.9236,-1.9122,-1.9052,-1.8815,-1.8449,-1.7715,-1.7339,-1.701,0.0,0.0,0.0,-1.5827,-1.5799,-1.577,-1.5639,-1.561,-1.558,-1.5507,-1.5448,-1.5389,-1.5389,-1.5344,-1.5313,-1.5313,-1.5313,-1.5283,-1.5222,-1.5192,-1.5117,-1.4932,-1.4825,-1.4683,-1.4429,-1.4332,-1.4138,-1.3821,-1.3661,-1.3459,-1.3198,-1.2978,-1.272,-1.2401,-1.2186,-1.2004,-1.1774,-1.1586,-1.1459,-1.1384,-1.1271,-1.1185,-1.1185,-1.1185,-1.1271,-1.1394,-1.1394,-1.1459,-1.1485,-1.1485,-1.1485,-1.1522,-1.1645,-1.1693,-1.1719,-1.1856,-1.1881,-1.1918,0.0,0.0,0.0,0.0,0.0,0.0,0.0,0.0,0.0,0.0,0.0,0.0,0.0,-1.9379,-1.9774,-1.9815,-1.9866,-1.9888,-1.9894,-1.9434,-1.9181,-1.9181,-1.8624,-1.829,0.0,0.0,0.0,0.0,0.0,0.0,0.0,0.0,0.0,0.0,-1.7966,-1.79,-1.7878,-1.7856,-1.7794,-1.7726,-1.7612,-1.7519,-1.7489,-1.7451,-1.7419,-1.7469,-1.8058,-1.8225,-1.8351,-1.9499,-1.9814,-1.9711,-1.9482,-1.9028,-1.8374,-1.7584,-1.7236,-1.6951,-1.6222,0.0,0.0,0.0,0.0,0.0,-1.561,-1.5522,-1.5448,-1.5418,-1.5374,-1.5328,-1.5328,-1.5298,-1.5313,-1.5313,-1.5313,-1.5283,-1.5222,-1.5133,-1.4996,-1.4839,-1.4686,-1.4529,-1.4351,-1.4138,-1.3941,-1.3821,-1.3506,-1.322,-1.2978,-1.2544,-1.221,-1.1957,-1.176,-1.1623,-1.1522,-1.1373,-1.126,-1.126,-1.1158,-1.112,-1.112,-1.112,-1.1158,-1.1206,-1.1357,-1.1421,-1.1421,-1.1485,-1.1571,-1.1645,-1.1693,-1.1756,-1.1856,-1.1881,-1.1943,-1.2041,0.0,0.0,0.0,0.0,0.0,0.0,-1.8094,-1.8387,-1.8653,0.0,0.0,0.0,0.0,0.0,-2.0394,-2.0394,-2.0442,-2.0465,-2.0465,-2.0073,-1.9894,-1.9894,-1.9421,-1.9022,-1.871,0.0,0.0,0.0,0.0,0.0,0.0,0.0,0.0,0.0,0.0,-1.7794,-1.7749,-1.7698,-1.7635,-1.7612,-1.7536,-1.7465,-1.7451,-1.7419,-1.7363,-1.7429,-1.8349,-1.8654,-1.881,-2.0118,-2.0493,-2.0337,-2.0114,-1.9718,-1.9139,-1.8082,-1.7608,-1.7273,-1.6255,-1.5926,-1.5827,-1.5741,0.0,0.0,-1.5551,-1.5448,-1.5389,-1.5374,-1.5328,-1.5313,-1.5313,-1.5313,-1.5313,-1.5313,-1.5283,-1.5222,-1.5133,-1.5027,-1.4904,-1.4763,-1.4592,-1.4401,-1.4254,-1.4007,-1.3821,-1.3641,-1.3301,-1.2943,-1.2579,-1.221,-1.192,-1.1686,-1.1463,-1.1325,-1.1174,-1.105,-1.0975,-1.0947,-1.0909,-1.0919,-1.0957,-1.0957,-1.1006,-1.113,-1.1233,-1.1346,-1.1421,-1.1533,-1.1645,-1.1693,-1.1719,-1.1819,-1.1918,-1.1979,-1.2077,-1.2138,0.0,0.0,0.0,-1.7607,-1.8219,-1.8743,-1.8801,-1.9437,-1.9925,0.0,0.0,0.0,0.0,0.0,0.0,0.0,-2.0653,-2.0653,-2.0653,-2.0584,-2.0532,-2.0532,-2.0446,-2.0084,-1.943,-1.9413,0.0,0.0,0.0,0.0,0.0,0.0,0.0,0.0,0.0,0.0,-1.7664,-1.7542,-1.7489,-1.7489,-1.7489,-1.7451,-1.7411,-1.7371,-1.7298,-1.7378,-1.8686,-1.9179,-1.9398,-2.0732,-2.1055,-2.0877,-2.0711,-2.0548,-2.012,-1.8765,-1.8161,-1.7608,-1.6346,-1.5898,-1.577,-1.5639,-1.558,0.0,-1.5418,-1.5389,-1.5374,-1.5313,-1.5313,-1.5313,-1.5313,-1.5313,-1.5313,-1.5313,-1.5238,-1.5133,-1.5013,-1.4949,-1.4825,-1.47,-1.4511,-1.4332,-1.417,-1.3941,-1.3674,-1.3391,-1.3035,-1.2615,-1.2102,-1.192,-1.1748,-1.1448,-1.1266,-1.1067,-1.0878,-1.0764,-1.0649,-1.0582,-1.0582,-1.0659,-1.0784,-1.0784,-1.0909,-1.1082,-1.1147,-1.1271,-1.1384,-1.1619,-1.1693,-1.1719,-1.1793,-1.1856,-1.1943,-1.2138,-1.221,-1.2246,0.0,0.0,-1.8319,-1.8319,-1.8915,-1.9448,-1.9562,-1.9705,-1.9857,0.0,0.0,0.0,0.0,0.0,0.0,0.0,-2.2237,-2.2237,-2.2237,-2.1711,-2.1384,-2.1384,-2.0739,-2.0325,-2.0188,-2.014,0.0,0.0,0.0,0.0,0.0,0.0,0.0,0.0,0.0,-1.7658,-1.7519,-1.7448,-1.7417,-1.7419,-1.7419,-1.7419,-1.7387,-1.7289,-1.724,-1.7288,-1.8048,-1.8658,-1.9328,-2.0543,-2.0909,-2.0794,-2.0595,-2.0153,-1.9513,-1.8516,-1.7746,-1.7015,-1.6224,-1.5898,-1.577,-1.5639,-1.5551,0.0,-1.5418,-1.5344,-1.5313,-1.5313,-1.5313,-1.5313,-1.5313,-1.5313,-1.5313,-1.5313,-1.5163,-1.5013,-1.5013,-1.4949,-1.4825,-1.4578,-1.4465,-1.4268,-1.3974,-1.3762,-1.3527,-1.3267,-1.2768,-1.2294,-1.1884,-1.1686,-1.1389,-1.104,-1.0992,-1.084,-1.0659,-1.0611,-1.0621,-1.0582,-1.0582,-1.0621,-1.0621,-1.0736,-1.0822,-1.086,-1.1109,-1.1223,-1.1271,-1.1571,-1.1719,-1.1782,-1.1856,-1.1979,-1.2138,-1.221,-1.2258,-1.2365,0.0,-1.8286,-1.8608,-1.8972,-1.9677,-2.0212,-2.0364,-2.0676,-2.0965,0.0,0.0,0.0,-2.1934,-2.2329,-2.2649,-2.2685,0.0,0.0,-2.2712,-2.2367,-2.216,-2.216,-2.1755,-2.1359,-2.1022,-2.0948,-2.0693,0.0,0.0,0.0,0.0,0.0,0.0,0.0,0.0,-1.8076,-1.7979,-1.7559,-1.7378,-1.7346,-1.7346,-1.7322,-1.7273,-1.724,-1.7174,-1.723,-1.7886,-1.8518,-1.9145,-1.9714,-1.9845,-1.972,-1.9577,-1.9264,-1.8827,-1.7961,-1.7364,-1.6848,-1.6179,-1.5898,-1.577,-1.558,-1.5522,0.0,0.0,-1.5328,-1.5313,-1.5313,-1.5313,-1.5313,-1.5313,-1.5313,-1.5283,-1.5253,-1.5118,-1.4982,-1.4966,-1.4856,-1.4732,-1.4533,-1.4369,-1.4203,-1.3908,-1.3661,-1.331,-1.2861,-1.2508,-1.215,-1.1771,-1.156,-1.1287,-1.0916,-1.0802,-1.0659,-1.0428,-1.039,-1.0312,-1.0283,-1.0312,-1.039,-1.0477,-1.0621,-1.0746,-1.0822,-1.1061,-1.1185,-1.1223,-1.1608,-1.1756,-1.1819,-1.1943,-1.2077,-1.221,-1.2318,-1.2437,-1.2556,-1.8592,-1.8823,-1.9131,-1.97,-2.0423,-2.0976,-2.115,-2.1647,-2.2073,0.0,0.0,-2.2432,-2.2487,-2.2569,-2.2649,-2.2685,-2.2712,-2.2712,-2.2712,-2.2712,-2.2712,-2.2712,-2.2712,-2.241,-2.1807,-2.173,-2.137,-2.0695,0.0,0.0,0.0,0.0,0.0,0.0,0.0,-1.8759,-1.8632,-1.7881,-1.7519,-1.7453,-1.7322,-1.7248,-1.7215,-1.7174,-1.7149,-1.7164,-1.7834,-1.837,-1.8786,-1.884,-1.8783,-1.8679,-1.8545,-1.8421,-1.8172,-1.7421,-1.7013,-1.668,-1.6148,-1.5898,-1.5741,-1.558,-1.5507,-1.5463,0.0,0.0,0.0,-1.5313,-1.5313,-1.5313,-1.5313,-1.5313,-1.5283,-1.5222,-1.5102,-1.4996,-1.4932,-1.4763,-1.4624,-1.4501,-1.4305,-1.4105,-1.3921,-1.3527,-1.3069,-1.2544,-1.2282,-1.2004,-1.1671,-1.1459,-1.1217,-1.0974,-1.0742,-1.0607,-1.0497,-1.0377,-1.0297,-1.0226,-1.0297,-1.0369,-1.0361,-1.0596,-1.0702,-1.0784,-1.1061,-1.1185,-1.1223,-1.1634,-1.1782,-1.1819,-1.2041,-1.2174,-1.2246,-1.2473,-1.2627,-1.2745,-1.9452,-2.0009,-2.0472,-2.0555,-2.1168,-2.1707,-2.1852,-2.1948,-2.2073,0.0,-2.2366,-2.2432,-2.2487,-2.2569,-2.2649,-2.2685,-2.2712,-2.2712,-2.2712,-2.2712,-2.2712,-2.2712,-2.2712,-2.2624,-2.2485,-2.2405,-2.2317,-2.215,0.0,0.0,0.0,0.0,0.0,-1.9717,-1.9555,-1.9442,-1.9328,-1.8473,-1.8111,-1.802,-1.7393,-1.7149,-1.7174,-1.7149,-1.7108,-1.718,-1.7717,-1.7912,-1.8015,-1.8532,-1.8708,-1.8679,-1.8545,-1.8092,-1.7564,-1.7282,-1.6676,-1.6102,-1.6026,-1.5898,-1.577,-1.561,-1.5551,-1.5477,-1.5418,0.0,-1.5313,-1.5313,0.0,-1.5313,-1.5313,0.0,0.0,-1.5222,-1.5102,-1.4996,-1.4932,-1.4686,-1.4501,-1.4501,-1.4305,-1.4105,-1.3854,-1.322,-1.2768,-1.2508,-1.2162,-1.1799,-1.1527,-1.1266,-1.1152,-1.1186,-1.0982,-1.1013,-1.1272,-1.1141,-1.1054,-1.1054,-1.1185,-1.106,-1.0666,-1.0922,-1.0875,-1.0621,-1.0964,-1.1136,-1.1223,-1.1634,-1.1782,-1.1819,-1.2077,-1.2258,-1.2413,-1.2591,-1.2733,-1.2803,-2.024,-2.0472,-2.082,-2.1251,-2.1641,-2.1899,-2.1998,-2.2101,-2.2192,-2.2282,-2.2366,-2.2432,-2.2487,-2.2569,-2.2649,-2.2685,-2.2712,-2.2712,-2.2712,-2.2712,-2.2712,-2.2712,-2.2712,-2.2659,-2.2605,-2.2525,-2.246,-2.2405,-2.1989,0.0,0.0,0.0,0.0,-2.095,-2.0439,-2.0146,-2.0029,-1.9197,-1.8573,-1.8097,-1.7805,-1.7439,-1.709,-1.7099,-1.7074,-1.7055,-1.7241,-1.7284,-1.7236,-1.7425,-1.7464,-1.7464,-1.7311,-1.7096,-1.6834,-1.6666,-1.6325,-1.5996,-1.5996,-1.5898,-1.577,-1.5639,-1.5551,-1.5477,-1.5418,-1.5344,-1.5313,-1.5313,0.0,0.0,0.0,0.0,0.0,0.0,-1.5043,-1.4951,-1.4856,-1.4641,-1.4501,-1.4501,-1.4259,-1.3914,-1.3506,-1.3047,-1.2662,-1.2354,-1.2341,-1.2211,-1.1817,-1.185,-1.1758,-1.1608,-1.1384,-1.1267,-1.1265,-1.1142,-1.1053,-1.1053,-1.1221,-1.1037,-1.066,-1.0991,-1.0955,-1.0621,-1.1023,-1.1174,-1.1223,-1.1634,-1.1808,-1.1895,-1.2186,-1.2365,-1.2449,-1.2662,-1.2803,-1.2873,-2.1071,-2.1043,-2.1197,-2.1728,-2.1869,-2.1928,-2.2044,-2.2192,-2.231,-2.2338,-2.2394,-2.246,-2.2515,-2.2596,-2.2632,-2.2685,-2.2712,-2.2712,-2.2712,-2.2712,-2.2712,-2.2712,-2.2712,-2.2659,-2.2579,-2.2525,-2.246,-2.2377,0.0,0.0,0.0,0.0,0.0,0.0,-2.1147,-2.0845,-2.0708,-1.9919,-1.913,-1.8378,-1.8157,-1.7619,-1.6972,-1.7048,-1.7007,-1.6946,-1.6879,-1.6811,-1.6717,-1.6623,-1.6596,-1.657,-1.6463,-1.6409,-1.6371,-1.6262,-1.6123,-1.6024,-1.5996,-1.5926,-1.5799,-1.5668,-1.558,-1.5507,-1.5448,-1.5374,-1.5328,-1.5313,-1.5313,0.0,0.0,0.0,-1.5208,-1.5043,0.0,-1.4935,-1.4794,-1.4624,-1.4501,-1.4483,-1.413,-1.3702,-1.3232,-1.3078,-1.2794,-1.2467,-1.2689,-1.2658,-1.2235,-1.232,-1.2306,-1.2091,-1.1748,-1.1583,-1.1552,-1.1379,-1.1297,-1.1242,-1.1461,-1.1334,-1.0937,-1.1227,-1.1135,-1.0792,-1.1037,-1.1185,-1.126,-1.1634,-1.187,-1.1993,-1.2294,-1.2449,-1.252,-1.2733,-1.2908,-1.3012,-2.1965,-2.1849,-2.1777,-2.1882,-2.1899,-2.1974,-2.2168,-2.2254,-2.2338,-2.2377,-2.246,-2.2515,-2.2579,-2.2659,-2.2712,-2.2712,-2.2712,-2.2712,-2.2712,-2.2712,-2.2712,-2.2712,-2.2712,-2.2632,-2.2515,-2.2515,-2.2432,-2.231,-2.2225,0.0,0.0,0.0,0.0,0.0,-2.1617,-2.1509,-2.1305,-2.0578,-1.9835,-1.9119,-1.8313,-1.7567,-1.6905,-1.6905,-1.6879,-1.6811,-1.6811,-1.6717,-1.6623,-1.6596,-1.6596,-1.6596,-1.6528,-1.6463,-1.6398,-1.6328,-1.6191,-1.6067,-1.6024,-1.597,-1.5871,-1.5799,-1.5697,-1.558,-1.5507,-1.5448,-1.5374,-1.5298,-1.5313,-1.5313,-1.5313,-1.5253,-1.5178,-1.5013,-1.4949,0.0,0.0,-1.4592,-1.4483,-1.4415,-1.3947,-1.348,-1.3232,-1.3301,-1.3269,-1.2988,-1.3145,-1.3151,-1.2795,-1.2468,-1.2384,-1.2574,-1.2068,-1.2026,-1.2433,-1.2187,-1.2039,-1.208,-1.2335,-1.2215,-1.1752,-1.1704,-1.1489,-1.1186,-1.1123,-1.1212,-1.1421,-1.1671,-1.1918,-1.2113,-1.2401,-1.2591,-1.2709,-1.2838,-1.3012,-1.3198,-2.1998,-2.1969,-2.194,-2.1969,-2.2032,-2.2123,-2.2254,-2.2282,-2.2338,-2.2377,-2.246,-2.2542,-2.2579,-2.2659,-2.2712,-2.2712,-2.2712,-2.2712,-2.2712,-2.2712,-2.2712,-2.2712,-2.2712,-2.2632,-2.2515,-2.2515,-2.2432,-2.231,-2.2135,0.0,0.0,0.0,0.0,0.0,-2.165,-2.1542,-2.137,-2.1097,-2.0259,-1.9034,-1.7722,-1.7061,-1.6853,-1.6879,-1.6853,-1.6811,-1.6811,-1.6717,-1.6596,-1.6596,-1.6596,-1.6596,-1.6528,-1.6474,-1.6448,-1.6313,-1.6234,-1.6166,-1.6067,-1.5983,-1.59,-1.5871,-1.5741,-1.558,-1.558,-1.5477,-1.5389,-1.5374,-1.5328,-1.5313,-1.5313,-1.5253,-1.5178,-1.5013,-1.4935,-1.498,0.0,-1.538,-1.5383,-1.5221,-1.4607,-1.4057,-1.3749,-1.3838,-1.3792,-1.342,-1.3561,-1.3498,-1.3161,-1.309,-1.3042,-1.3007,-1.2541,-1.2338,-1.248,-1.2224,-1.2076,-1.2076,-1.2372,-1.2111,-1.1393,-1.1694,-1.1476,-1.0901,-1.1086,-1.1298,-1.1485,-1.176,-1.1957,-1.221,-1.2508,-1.278,-1.299,-1.306,-1.3129,-1.3232,-2.2118,-2.2118,-2.2118,-2.2089,-2.2152,-2.2254,-2.2282,-2.231,-2.2366,-2.2432,-2.2487,-2.2569,-2.2632,-2.2659,-2.2712,-2.2712,-2.2712,-2.2712,-2.2712,-2.2712,-2.2712,-2.2712,-2.2712,-2.2632,-2.2515,-2.2515,-2.2432,-2.231,-2.2101,-2.1998,0.0,0.0,0.0,0.0,-2.162,-2.1511,-2.1371,-2.1309,-2.0584,-1.9315,-1.778,-1.6982,-1.6743,-1.6811,-1.6853,-1.6785,-1.6743,-1.6691,-1.6649,-1.6623,-1.6596,-1.6596,-1.6554,-1.6528,-1.6474,-1.6382,-1.6289,-1.6207,-1.6123,-1.6055,-1.597,-1.5928,-1.5799,-1.5697,-1.561,-1.5507,-1.5418,-1.5389,-1.5358,-1.5283,-1.5283,-1.5178,-1.5174,-1.531,-1.5213,-1.5277,0.0,-1.582,-1.5784,-1.5599,-1.5099,-1.4622,-1.4275,-1.4411,-1.431,-1.3868,-1.3981,-1.3914,-1.3563,-1.3455,-1.3314,-1.3218,-1.2754,-1.248,-1.248,-1.2224,-1.2126,-1.2175,-1.2372,-1.2168,-1.1538,-1.1792,-1.157,-1.0999,-1.1172,-1.1384,-1.1597,-1.1859,-1.2102,-1.2354,-1.2627,-1.2885,-1.3141,-1.3163,-1.3301,-1.3472,-2.231,-2.231,-2.2282,-2.2214,-2.2254,-2.231,-2.231,-2.2366,-2.2432,-2.2487,-2.2569,-2.2649,-2.2685,-2.2712,-2.2712,-2.2712,-2.2712,-2.2729,-2.2763,-2.2763,-2.2781,-2.2815,-2.2815,-2.2735,-2.2566,-2.2566,-2.2466,-2.231,-2.2101,-2.1998,0.0,0.0,0.0,0.0,-2.1589,-2.1481,-2.1309,-2.1309,-2.081,-1.9927,-1.8419,-1.7309,-1.6623,-1.6759,-1.6811,-1.6785,-1.6649,-1.6691,-1.6785,-1.6649,-1.6623,-1.6623,-1.6623,-1.6554,-1.6501,-1.6409,-1.6355,-1.6274,-1.6151,-1.6095,-1.6067,-1.5942,-1.5885,-1.5856,-1.5668,-1.5551,-1.5477,-1.5418,-1.5344,-1.5283,-1.5222,-1.5088,-1.5196,-1.5783,-1.5758,-1.5778,-1.6001,-1.5949,-1.579,-1.5616,-1.5401,-1.512,-1.4771,-1.4902,-1.4825,-1.4385,-1.4496,-1.4441,-1.402,-1.3621,-1.3314,-1.3218,-1.2754,-1.2529,-1.2529,-1.2274,-1.2175,-1.2323,-1.2431,-1.2397,-1.2141,-1.1999,-1.1764,-1.149,-1.1425,-1.1507,-1.1719,-1.2016,-1.2258,-1.2544,-1.272,-1.2978,-1.3232,-1.3232,-1.3472,-1.3888,-2.231,-2.2338,-2.2366,-2.2366,-2.2349,-2.2377,-2.2377,-2.2432,-2.2515,-2.2569,-2.2579,-2.2649,-2.2685,-2.2738,-2.2764,-2.2764,-2.2816,-2.3068,-2.3542,-2.3594,-2.3826,-2.4384,-2.4419,-2.4087,-2.3419,-2.3346,-2.3005,-2.2377,-2.213,-2.1998,-2.1998,0.0,0.0,0.0,-2.1589,-2.1481,-2.1309,-2.1309,-2.0536,-1.9193,-1.8239,-1.7417,-1.6759,-1.6853,-1.6905,-1.6946,-1.6853,-1.6853,-1.6879,-1.6811,-1.6785,-1.6743,-1.6743,-1.6665,-1.6554,-1.6474,-1.6474,-1.6421,-1.6301,-1.6207,-1.6166,-1.6067,-1.597,-1.59,-1.5827,-1.5697,-1.5551,-1.5477,-1.5418,-1.5344,-1.5208,-1.5088,-1.5165,-1.5656,-1.6298,-1.6692,-1.6664,-1.6914,-1.6956,-1.6645,-1.6453,-1.6039,-1.538,-1.549,-1.5413,-1.4913,-1.4732,-1.4441,-1.402,-1.3621,-1.3314,-1.3218,-1.2861,-1.2627,-1.2627,-1.248,-1.2421,-1.2421,-1.2578,-1.2291,-1.1694,-1.1894,-1.1706,-1.1218,-1.1378,-1.1623,-1.1859,-1.2066,-1.2365,-1.2662,-1.292,-1.3267,-1.3654,-1.3654,-1.3874,-1.417,-2.2377,-2.2405,-2.2432,-2.2432,-2.246,-2.2487,-2.246,-2.2515,-2.2569,-2.2596,-2.2659,-2.2712,-2.2738,-2.2816,-2.2825,-2.2825,-2.3206,-2.3571,-2.3962,-2.4292,-2.4646,-2.5029,-2.5046,-2.4781,-2.4236,-2.3807,-2.3346,-2.2881,-2.2343,-2.2044,-2.1998,0.0,0.0,0.0,-2.1589,-2.1481,-2.1309,-2.1262,-2.0408,-1.9013,-1.8555,-1.7759,0.0,-1.6921,-1.6972,-1.7014,-1.6998,-1.6972,-1.6946,-1.6905,-1.6879,-1.6853,-1.6853,-1.6785,-1.6665,-1.6554,-1.6528,-1.6474,-1.6382,-1.6274,-1.6234,-1.6151,-1.6055,-1.5942,-1.59,-1.5741,-1.558,-1.5507,-1.5448,-1.5329,-1.5163,-1.5287,-1.5645,-1.6292,-1.6995,-1.7366,-1.7182,-1.7262,-1.7282,-1.7002,-1.6748,-1.6409,-1.5855,-1.5799,-1.557,-1.5108,-1.48,-1.4441,-1.402,-1.3668,-1.342,-1.3218,-1.291,-1.2783,-1.2676,-1.2578,-1.2529,-1.2578,-1.2725,-1.2422,-1.1669,-1.1974,-1.1768,-1.125,-1.1485,-1.1734,-1.2029,-1.2246,-1.2508,-1.2838,-1.3232,-1.3607,-1.3894,-1.4007,-1.4138,-1.4332,-2.2515,-2.2515,-2.2515,-2.2525,-2.2579,-2.2605,-2.2569,-2.2579,-2.2649,-2.2649,-2.2738,-2.2816,-2.2816,-2.285,-2.2954,-2.3058,-2.3711,-2.4208,-2.44,-2.5,-2.539,-2.542,-2.5409,-2.5288,-2.5102,-2.4315,-2.3784,-2.3493,-2.2738,-2.2236,0.0,0.0,0.0,-2.1603,-2.162,-2.1481,-2.1294,-2.123,-2.0394,-1.909,-1.9049,-1.8171,-1.6921,-1.6998,-1.6998,-1.7023,-1.7083,-1.7057,-1.6998,-1.6946,-1.6905,-1.6905,-1.6905,-1.6879,-1.6785,-1.6649,-1.6596,-1.6528,-1.6436,-1.6355,-1.6301,-1.6234,-1.6123,-1.6011,-1.5942,-1.577,-1.561,-1.5522,-1.5448,-1.5329,-1.5043,-1.5581,-1.6295,-1.7111,-1.7607,-1.7788,-1.7475,-1.7323,-1.7115,-1.6876,-1.665,0.0,-1.6156,-1.5893,-1.5525,-1.5108,-1.48,-1.4441,-1.402,-1.3763,-1.3515,-1.3218,-1.3007,-1.2881,-1.2725,-1.2627,-1.2627,-1.2725,-1.2881,-1.2609,-1.194,-1.2146,-1.1953,-1.1432,-1.1645,-1.1892,-1.215,-1.2437,-1.2685,-1.3035,-1.3607,-1.3894,-1.4065,-1.4287,-1.4365,-1.4429,-2.2515,-2.2525,-2.2605,-2.2659,-2.2712,-2.279,-2.2816,-2.279,-2.2764,-2.2764,-2.2842,-2.2893,-2.2893,-2.2944,-2.3239,-2.3911,-2.4138,-2.4769,-2.6009,-2.6219,-2.6493,-2.7061,-2.7022,-2.6697,-2.5992,-2.5704,-2.4915,-2.3579,-2.3316,-2.2782,0.0,0.0,-2.1811,-2.1694,-2.1603,-2.1481,-2.1309,-2.1294,-2.0439,-1.9119,-1.9131,-1.8291,-1.6998,-1.7074,-1.7083,-1.7083,-1.7083,-1.7083,-1.7083,-1.7057,-1.7023,-1.6972,-1.6972,-1.6946,-1.6879,-1.6785,-1.6759,-1.6717,-1.6528,-1.6474,-1.6448,-1.6301,-1.6234,-1.6123,-1.6011,-1.5913,-1.577,-1.5551,-1.5448,-1.5329,-1.5043,-1.5693,-1.6399,-1.6875,-1.7396,-1.7625,-1.7282,-1.724,-1.7031,-1.6607,-1.6479,-1.6262,-1.5925,-1.576,-1.5525,-1.5108,-1.4903,-1.4545,-1.402,-1.3868,-1.3621,-1.3362,-1.3162,-1.3027,-1.3027,-1.3036,-1.3036,-1.3027,-1.3094,-1.2822,-1.2146,-1.2361,-1.2105,-1.1485,-1.187,-1.215,-1.2365,-1.2591,-1.2943,-1.3412,-1.3741,-1.404,-1.4287,-1.4556,-1.4714,-1.4808,-2.2712,-2.2738,-2.2764,-2.2816,-2.2842,-2.285,-2.2893,-2.2893,-2.2893,-2.2868,-2.2919,-2.2944,-2.2944,-2.337,-2.3823,-2.4217,-2.5015,-2.5805,-2.6503,-2.6906,-2.7245,-2.7539,-2.7513,-2.7278,-2.6835,-2.6329,-2.5468,-2.4206,-2.3697,-2.2975,-2.2106,-2.2015,-2.1899,-2.1738,-2.1556,-2.1433,-2.134,-2.1309,-2.0469,-1.9159,-1.9188,-1.8346,-1.7048,-1.7083,-1.7108,-1.7149,-1.7149,-1.7158,-1.7183,-1.7133,-1.7083,-1.7048,-1.7048,-1.6998,-1.6946,-1.6905,-1.6879,-1.6811,-1.6691,-1.6596,-1.6501,-1.6382,-1.6262,-1.6166,-1.6039,-1.597,-1.5827,-1.5551,-1.5448,-1.5503,-1.5787,-1.6069,-1.65,-1.7285,-1.7437,-1.7378,-1.724,-1.7044,-1.6833,-1.6522,-1.6392,-1.6188,-1.5836,-1.5659,-1.5424,-1.5051,-1.4857,-1.4592,-1.414,-1.3962,-1.3773,-1.3515,-1.3334,-1.32,-1.3152,-1.3152,-1.32,-1.3248,-1.3372,-1.3042,-1.2393,-1.2605,-1.2327,-1.1712,-1.2004,-1.2258,-1.2591,-1.2978,-1.3357,-1.3728,-1.4007,-1.4268,-1.4525,-1.4746,-1.4932,-1.5117,-2.2893,-2.2893,-2.2902,-2.2919,-2.2927,-2.2944,-2.297,-2.302,-2.3028,-2.2952,-2.2995,-2.3045,-2.307,-2.3847,-2.44,-2.4558,-2.5842,-2.6739,-2.6898,-2.7432,-2.7719,-2.7665,-2.7617,-2.7557,-2.7438,-2.6736,-2.5855,-2.4859,-2.4125,-2.3231,-2.2214,-2.2089,-2.1911,-2.1768,-2.154,-2.1448,-2.1386,-2.134,-2.0513,-1.92,-1.9216,-1.8373,-1.7108,-1.7133,-1.7174,-1.7224,-1.7224,-1.7248,-1.7281,-1.7183,-1.7133,-1.7133,-1.7133,-1.7099,-1.7039,-1.7023,-1.6972,-1.6905,-1.6853,-1.6717,-1.6596,-1.6479,-1.6344,-1.6207,-1.6067,-1.5955,-1.5856,-1.5551,-1.5389,-1.5494,-1.6207,-1.6247,-1.6495,-1.7476,-1.7368,-1.7199,-1.7157,-1.6876,-1.6577,-1.6436,-1.6275,-1.6057,-1.5748,-1.5603,-1.5322,-1.4949,-1.4846,-1.4627,-1.4269,-1.4104,-1.3915,-1.3668,-1.3515,-1.3409,-1.3266,-1.3266,-1.3362,-1.3515,-1.3517,-1.3223,-1.2679,-1.2781,-1.2496,-1.1945,-1.2138,-1.2437,-1.2885,-1.3357,-1.3728,-1.3974,-1.4254,-1.4511,-1.4763,-1.4949,-1.5178,-1.5358,-2.2893,-2.2893,-2.2919,-2.2995,-2.3045,-2.3095,-2.3168,-2.3241,-2.3217,-2.3095,-2.3144,-2.3217,-2.3265,-2.3996,-2.4739,-2.5428,-2.6277,-2.7073,-2.7826,-2.7864,-2.7888,-2.7859,-2.7694,-2.7587,-2.7587,-2.7382,-2.6515,-2.4971,-2.479,-2.3845,-2.2282,-2.2073,-2.1899,-2.1724,-2.1678,-2.1587,-2.1386,-2.1386,-2.0527,-1.92,-1.9272,-1.8443,-1.7215,-1.7257,-1.7281,-1.7281,-1.7281,-1.7281,-1.7306,-1.7281,-1.7281,-1.7281,-1.7281,-1.7248,-1.7174,-1.7124,-1.7048,-1.6972,-1.6905,-1.6853,-1.6743,-1.6623,-1.6463,-1.6344,-1.6151,-1.6039,-1.5898,-1.5566,-1.5193,-1.5068,-1.5446,-1.5782,-1.617,-1.6637,-1.6981,-1.7157,-1.696,-1.6693,-1.6436,-1.6231,-1.6088,-1.5901,-1.5558,-1.5513,-1.5322,-1.4949,-1.4846,-1.4684,-1.4373,-1.4233,-1.4046,-1.3763,-1.3668,-1.3563,-1.3563,-1.3563,-1.3621,-1.3763,-1.3517,-1.3226,-1.2879,-1.2702,-1.2442,-1.2113,-1.2484,-1.2908,-1.3357,-1.3641,-1.3941,-1.4189,-1.4388,-1.4655,-1.4932,-1.5254,-1.5463,-1.561,-2.3144,-2.3144,-2.3144,-2.3168,-2.3193,-2.3241,-2.3265,-2.3289,-2.3289,-2.3289,-2.3265,-2.3442,-2.3968,-2.4711,-2.549,-2.6269,-2.7065,-2.7677,-2.7979,-2.7957,-2.7929,-2.7888,-2.783,-2.7724,-2.7587,-2.7061,-2.6207,-2.4982,-2.4437,-2.354,-2.2366,-2.222,-2.2061,-2.1827,-2.1738,-2.1664,-2.1587,-2.1542,-2.0662,-1.9311,-1.9355,-1.8506,-1.7257,-1.7281,-1.7306,-1.7371,-1.7362,-1.7394,-1.7434,-1.7465,-1.741,-1.7306,-1.7306,-1.7281,-1.7248,-1.7232,-1.7174,-1.7099,-1.7032,-1.6956,-1.6879,-1.6649,-1.6543,-1.6409,-1.6207,-1.6067,-1.5911,-1.5639,-1.5193,-1.4991,-1.5344,-1.5706,-1.6069,-1.6479,-1.682,-1.696,-1.6693,-1.6522,-1.6349,-1.6088,-1.5957,-1.578,-1.5513,-1.5435,-1.5289,-1.5051,-1.4903,-1.473,-1.4523,-1.4326,-1.4129,-1.4046,-1.3905,-1.3821,-1.3821,-1.3905,-1.385,-1.3675,-1.3651,-1.3365,-1.2856,-1.2771,-1.2672,-1.2544,-1.2943,-1.3288,-1.356,-1.3908,-1.4157,-1.4388,-1.4655,-1.4935,-1.5224,-1.5448,-1.5668,-1.5854,-2.3289,-2.3289,-2.3289,-2.3289,-2.3336,-2.336,-2.336,-2.3383,-2.343,-2.3476,-2.3453,-2.3709,-2.4491,-2.5255,-2.6037,-2.681,-2.7619,-2.8081,-2.8071,-2.8042,-2.8014,-2.7946,-2.7917,-2.7725,-2.7327,-2.6731,-2.5877,-2.4757,-2.4063,-2.3271,-2.2432,-2.231,-2.2152,-2.1911,-2.1811,-2.1738,-2.1724,-2.1664,-2.0767,-1.9394,-1.9438,-1.8585,-1.733,-1.7354,-1.7403,-1.7427,-1.7448,-1.7496,-1.7536,-1.7589,-1.7512,-1.7386,-1.7386,-1.7362,-1.7345,-1.7338,-1.7281,-1.7207,-1.7183,-1.7099,-1.6972,-1.6785,-1.6623,-1.6474,-1.6289,-1.6123,-1.5911,-1.558,-1.5163,-1.4903,-1.5076,-1.5513,-1.5918,-1.6177,-1.6565,-1.6748,-1.6522,-1.6392,-1.6219,-1.5957,-1.5836,-1.5659,-1.5468,-1.5345,-1.5255,-1.5108,-1.4937,-1.4811,-1.4708,-1.4466,-1.4373,-1.4326,-1.4244,-1.4161,-1.4161,-1.4093,-1.398,-1.374,-1.3572,-1.3279,-1.2873,-1.2837,-1.2889,-1.2978,-1.3323,-1.3581,-1.3782,-1.4138,-1.4401,-1.4641,-1.4918,-1.5193,-1.5477,-1.5697,-1.5883,-1.6108,-2.3289,-2.3289,-2.3289,-2.3289,-2.3407,-2.3494,-2.3494,-2.3611,-2.37,-2.37,-2.37,-2.3983,-2.4705,-2.55,-2.629,-2.7028,-2.7834,-2.8273,-2.8209,-2.8126,-2.8099,-2.8099,-2.7975,-2.7518,-2.6725,-2.6567,-2.5701,-2.4112,-2.3915,-2.3354,-2.2487,-2.2282,-2.2123,-2.1998,-2.194,-2.1869,-2.1781,-2.1724,-2.0825,-1.9411,-1.9465,-1.8654,-1.7411,-1.7482,-1.7512,-1.7512,-1.7566,-1.7612,-1.7612,-1.7612,-1.7612,-1.7589,-1.7589,-1.7549,-1.7486,-1.7408,-1.7353,-1.7297,-1.7306,-1.7207,-1.7083,-1.6998,-1.6811,-1.6543,-1.634,-1.6207,-1.5955,-1.5418,-1.5025,-1.4714,-1.4461,-1.5152,-1.575,-1.5537,-1.6186,-1.6675,-1.6522,-1.6207,-1.5957,-1.5836,-1.576,-1.5582,-1.5312,-1.5312,-1.5255,-1.5108,-1.496,-1.4903,-1.4903,-1.4857,-1.473,-1.4581,-1.4581,-1.4581,-1.4581,-1.4072,-1.3905,-1.4068,-1.3208,-1.2896,-1.3103,-1.2974,-1.3082,-1.3391,-1.3547,-1.3815,-1.4203,-1.4332,-1.4588,-1.4932,-1.5192,-1.5418,-1.5639,-1.5983,-1.6163,-1.6313,-2.3567,-2.3567,-2.3567,-2.3567,-2.3611,-2.3634,-2.3634,-2.3678,-2.37,-2.37,-2.3743,-2.4068,-2.4838,-2.508,-2.5721,-2.7043,-2.7402,-2.7753,-2.8255,-2.8246,-2.7959,-2.7317,-2.7244,-2.679,-2.5896,-2.5305,-2.4734,-2.4174,-2.3449,-2.2926,-2.2487,-2.2338,-2.2225,-2.2123,-2.2015,-2.1969,-2.194,-2.1911,-2.105,-1.9674,-1.9717,-1.8835,-1.7536,-1.7559,-1.7566,-1.7589,-1.7698,-1.7743,-1.7766,-1.7833,-1.7856,-1.7856,-1.7856,-1.7726,-1.7549,-1.7526,-1.7479,-1.7432,-1.7377,-1.7256,-1.715,-1.7083,-1.6873,-1.6633,-1.6474,-1.6163,-1.5799,-1.5373,-1.5025,-1.4714,-1.4461,-1.485,-1.5224,-1.5322,-1.5772,-1.6137,-1.6269,-1.6057,-1.5836,-1.576,-1.5537,-1.5402,-1.5312,-1.521,-1.5165,-1.5108,-1.5062,-1.5006,-1.4903,-1.4857,-1.4776,-1.473,-1.473,-1.4597,-1.4239,-1.4169,-1.3879,-1.3368,-1.3202,-1.3089,-1.2974,-1.3156,-1.3344,-1.3547,-1.3861,-1.4124,-1.4365,-1.4651,-1.4902,-1.5208,-1.5477,-1.5711,-1.5983,-1.6191,-1.6436,-1.6591,-2.37,-2.37,-2.37,-2.37,-2.3721,-2.3743,-2.3747,-2.3768,-2.3789,-2.381,-2.385,-2.407,-2.4538,-2.4508,-2.5095,-2.6651,-2.6795,-2.6968,-2.7412,-2.7404,-2.7137,-2.656,-2.6481,-2.6056,-2.5181,-2.4627,-2.4163,-2.3788,-2.3094,-2.2712,-2.2569,-2.2432,-2.2338,-2.2282,-2.2163,-2.2089,-2.2089,-2.2027,-2.1145,-1.9805,-1.9805,-1.8918,-1.7612,-1.7658,-1.7698,-1.7681,-1.7833,-1.7895,-1.7895,-1.7961,-1.8005,-1.8027,-1.8027,-1.7922,-1.7772,-1.7704,-1.7658,-1.7595,-1.7502,-1.7384,-1.724,-1.715,-1.6975,-1.6727,-1.6463,-1.6095,-1.5712,-1.5373,-1.5025,-1.4714,-1.4429,-1.4654,-1.4963,-1.5221,-1.554,-1.5853,-1.6157,-1.5925,-1.5748,-1.5614,-1.5435,-1.5267,-1.521,-1.5165,-1.5108,-1.5108,-1.5108,-1.5108,-1.5051,-1.4983,-1.5006,-1.5006,-1.4857,-1.4639,-1.4339,-1.4067,-1.3639,-1.3165,-1.3238,-1.3203,-1.3138,-1.3459,-1.3661,-1.3848,-1.4176,-1.4415,-1.462,-1.4932,-1.5208,-1.5492,-1.5769,-1.6024,-1.6234,-1.6463,-1.6659,-1.685,-2.3721,-2.3721,-2.3721,-2.3721,-2.3765,-2.3807,-2.3795,-2.3876,-2.3917,-2.3996,-2.3996,-2.3976,-2.3917,-2.3917,-2.4454,-2.5827,-2.6007,-2.6015,-2.6015,-2.5942,-2.59,-2.5821,-2.5697,-2.529,-2.4526,-2.4385,-2.3915,-2.3095,-2.2842,-2.2712,-2.2685,-2.2569,-2.2487,-2.2405,-2.2338,-2.2282,-2.2197,-2.2022,-2.1122,-1.9814,-1.9764,-1.8909,-1.7635,-1.7766,-1.7811,-1.7833,-1.7961,-1.8005,-1.8005,-1.8027,-1.807,-1.8095,-1.8095,-1.8095,-1.8091,-1.7878,-1.7811,-1.7789,-1.7658,-1.7519,-1.7384,-1.724,-1.7117,-1.6869,-1.6332,-1.5998,-1.5712,-1.5373,-1.5056,-1.47,-1.4397,-1.4614,-1.491,-1.5131,-1.541,-1.5761,-1.6108,-1.5869,-1.5614,-1.5513,-1.539,-1.5255,-1.5108,-1.5108,-1.5108,-1.5108,-1.5108,-1.5142,-1.5266,-1.5254,-1.5254,-1.5254,-1.4873,-1.4622,-1.4587,-1.3765,-1.3343,-1.3407,-1.3272,-1.3323,-1.3547,-1.3808,-1.404,-1.4222,-1.4452,-1.4672,-1.4963,-1.5208,-1.5492,-1.5782,-1.6095,-1.6316,-1.6463,-1.6712,-1.6917,-1.7068,-2.3852,-2.3855,-2.3873,-2.3915,-2.3935,-2.3955,-2.3937,-2.3976,-2.3976,-2.3996,-2.3996,-2.3996,-2.3976,-2.3976,-2.4121,-2.4463,-2.4958,-2.5488,-2.6033,-2.6045,-2.5763,-2.5094,-2.5028,-2.4605,-2.3709,-2.3644,-2.3459,-2.3095,-2.2995,-2.2868,-2.2712,-2.2659,-2.2579,-2.2487,-2.246,-2.2432,-2.2398,-2.1793,-2.0994,-2.0059,-1.9498,-1.8716,-1.7917,-1.7939,-1.7983,-1.8048,-1.813,-1.8155,-1.8163,-1.8225,-1.8246,-1.8249,-1.8249,-1.8249,-1.8225,-1.8074,-1.8005,-1.7922,-1.7789,-1.7704,-1.7572,-1.7384,-1.7109,-1.6753,-1.6425,-1.6151,-1.587,-1.5522,-1.5179,-1.4859,-1.4515,-1.4395,-1.4439,-1.4611,-1.4866,-1.5147,-1.5553,-1.5584,-1.5558,-1.5513,-1.5289,-1.5108,-1.5108,-1.5108,-1.5108,-1.5108,-1.521,-1.5093,-1.4699,-1.4936,-1.5022,-1.4838,-1.4417,-1.4038,-1.3697,-1.3664,-1.3569,-1.3478,-1.3442,-1.3581,-1.3901,-1.4124,-1.4287,-1.4452,-1.4752,-1.4996,-1.5222,-1.5507,-1.5797,-1.6123,-1.6382,-1.6596,-1.6738,-1.7018,-1.7191,-1.7337,-2.3955,-2.3955,-2.3976,-2.3996,-2.3996,-2.4016,-2.4036,-2.4054,-2.4054,-2.4094,-2.4094,-2.4074,-2.4054,-2.4054,-2.4036,-2.3996,-2.4296,-2.4668,-2.5081,-2.5073,-2.4843,-2.4361,-2.4275,-2.4009,-2.3494,-2.3448,-2.3313,-2.3144,-2.3095,-2.2952,-2.2842,-2.2816,-2.2712,-2.2579,-2.2579,-2.2569,-2.2463,-2.1702,-2.0943,-2.014,-1.9429,-1.8694,-1.8048,-1.8074,-1.81,-1.8142,-1.8222,-1.8263,-1.8287,-1.8328,-1.8406,-1.8445,-1.8445,-1.8445,-1.8406,-1.8304,-1.8197,-1.8065,-1.7983,-1.7839,-1.7681,-1.7432,-1.7101,-1.6789,-1.6517,-1.6246,-1.594,-1.5566,-1.5225,-1.4907,-1.4564,-1.4337,-1.4273,-1.4488,-1.446,-1.4673,-1.5319,-1.5241,-1.5254,-1.5478,-1.5244,-1.5108,-1.5108,-1.5108,-1.5108,-1.521,-1.5047,-1.4879,-1.4728,-1.4434,-1.432,-1.4464,-1.4074,-1.3782,-1.3617,-1.3617,-1.3649,-1.3695,-1.3715,-1.3901,-1.4246,-1.4433,-1.4592,-1.4752,-1.5074,-1.5329,-1.5522,-1.5797,-1.6108,-1.6425,-1.6686,-1.6892,-1.7052,-1.7288,-1.7479,-1.7664,-2.4016,-2.4016,-2.4016,-2.4016,-2.4036,-2.4056,-2.4113,-2.4133,-2.4152,-2.4209,-2.4209,-2.419,-2.4133,-2.4113,-2.4094,-2.4054,-2.3976,-2.3917,-2.3896,-2.385,-2.3807,-2.3804,-2.3696,-2.3629,-2.3607,-2.3494,-2.336,-2.3241,-2.3168,-2.3095,-2.3003,-2.297,-2.2868,-2.2738,-2.2738,-2.2607,-2.2346,-2.161,-2.0822,-2.0041,-1.9344,-1.868,-1.8138,-1.8205,-1.8246,-1.8249,-1.8328,-1.8368,-1.8426,-1.8426,-1.8502,-1.8598,-1.8598,-1.8598,-1.8598,-1.8524,-1.8383,-1.8236,-1.8134,-1.7966,-1.7726,-1.7415,-1.7134,-1.6876,-1.6607,-1.6355,-1.6039,-1.5653,-1.5315,-1.4968,-1.4627,-1.4369,-1.4266,-1.4371,-1.4192,-1.4275,-1.5061,-1.4893,-1.49,-1.5348,-1.5242,-1.5108,-1.5108,-1.5039,-1.505,-1.5151,-1.472,-1.4521,-1.4731,-1.3961,-1.3636,-1.4048,-1.3752,-1.3704,-1.3863,-1.3702,-1.3728,-1.3974,-1.4046,-1.4246,-1.4596,-1.4794,-1.4949,-1.5104,-1.5448,-1.5653,-1.5811,-1.6123,-1.6425,-1.6701,-1.6968,-1.7175,-1.7392,-1.7589,-1.7772,-1.7971,-2.4074,-2.4094,-2.4094,-2.417,-2.4153,-2.4173,-2.4173,-2.4229,-2.4266,-2.4284,-2.4229,-2.421,-2.4191,-2.419,-2.417,-2.417,-2.4094,-2.4016,-2.3917,-2.3896,-2.3852,-2.3804,-2.3783,-2.3739,-2.3678,-2.3544,-2.3448,-2.336,-2.3289,-2.3217,-2.3077,-2.3052,-2.2995,-2.2868,-2.2868,-2.2521,-2.1853,-2.1056,-2.0275,-1.9534,-1.8753,-1.8371,-1.8287,-1.8328,-1.8406,-1.8465,-1.8522,-1.8561,-1.8584,-1.8584,-1.8584,-1.8603,-1.8603,-1.8603,-1.8603,-1.8584,-1.8544,-1.848,-1.8246,-1.8035,-1.7816,-1.7612,-1.7361,-1.7093,-1.6815,-1.6543,-1.6274,-1.5968,-1.5653,-1.5299,-1.4918,-1.4574,-1.4262,-1.3973,-1.4057,-1.4136,-1.3975,-1.4558,-1.4898,-1.4853,-1.5077,-1.521,-1.5108,-1.4773,-1.4575,-1.463,-1.4322,-1.399,-1.3667,-1.3752,-1.3667,-1.3355,-1.3303,-1.3462,-1.3817,-1.3901,-1.4046,-1.4332,-1.4388,-1.4596,-1.4937,-1.5133,-1.5298,-1.5448,-1.5769,-1.6011,-1.6151,-1.6409,-1.6701,-1.6968,-1.724,-1.7455,-1.7664,-1.7856,-1.8031,-1.8166,-2.4153,-2.4153,-2.4172,-2.4247,-2.4247,-2.4266,-2.4266,-2.4284,-2.4284,-2.4284,-2.4266,-2.4266,-2.4266,-2.4247,-2.4228,-2.4191,-2.4172,-2.4114,-2.4016,-2.3976,-2.3935,-2.3852,-2.3831,-2.3768,-2.37,-2.3634,-2.3562,-2.3453,-2.3407,-2.3336,-2.3217,-2.3217,-2.3168,-2.3035,-2.2614,-2.2205,-2.1779,-2.0573,-1.9856,-1.9489,-1.8761,-1.8445,-1.8465,-1.8505,-1.8526,-1.8565,-1.862,-1.8677,-1.8715,-1.8752,-1.8752,-1.8771,-1.8771,-1.8771,-1.8753,-1.877,-1.8657,-1.8502,-1.8307,-1.8142,-1.7966,-1.7794,-1.7549,-1.7296,-1.7027,-1.6738,-1.6409,-1.6123,-1.5769,-1.5389,-1.5027,-1.4686,-1.4324,-1.3947,-1.3848,-1.3829,-1.3828,-1.4004,-1.4189,-1.434,-1.4463,-1.4476,-1.4464,-1.4266,-1.418,-1.4263,-1.3943,-1.3694,-1.358,-1.352,-1.3496,-1.3438,-1.3527,-1.3674,-1.3927,-1.4163,-1.4388,-1.462,-1.4704,-1.4937,-1.5255,-1.5448,-1.5624,-1.5826,-1.6108,-1.6301,-1.6474,-1.6712,-1.6968,-1.724,-1.7502,-1.7732,-1.7936,-1.8142,-1.8287,-1.843,-2.421,-2.421,-2.4247,-2.4284,-2.4303,-2.4321,-2.4321,-2.4339,-2.4358,-2.4358,-2.4339,-2.4321,-2.4321,-2.4321,-2.4284,-2.4229,-2.421,-2.421,-2.4152,-2.4075,-2.4016,-2.3917,-2.3876,-2.3792,-2.3725,-2.3721,-2.3656,-2.3562,-2.3562,-2.3494,-2.336,-2.336,-2.323,-2.2965,-2.2346,-2.1829,-2.1356,-2.0181,-1.9565,-1.9333,-1.8847,-1.8637,-1.8656,-1.8658,-1.8659,-1.8678,-1.8734,-1.877,-1.8825,-1.8878,-1.8914,-1.8895,-1.8895,-1.8895,-1.8895,-1.8896,-1.8733,-1.8544,-1.8388,-1.8246,-1.8117,-1.7966,-1.771,-1.7439,-1.7175,-1.6892,-1.657,-1.6234,-1.5854,-1.5507,-1.5134,-1.4797,-1.4438,-1.4052,-1.3735,-1.3565,-1.3738,-1.3569,-1.3586,-1.3915,-1.391,-1.39,-1.3888,-1.3783,-1.3764,-1.3923,-1.3512,-1.3349,-1.3557,-1.3376,-1.3425,-1.3782,-1.3927,-1.4026,-1.413,-1.4438,-1.4718,-1.4932,-1.5058,-1.5285,-1.5624,-1.5769,-1.5953,-1.6191,-1.6436,-1.6633,-1.6825,-1.7027,-1.7288,-1.7526,-1.7794,-1.7997,-1.8211,-1.8408,-1.8545,-1.8698,-2.4284,-2.4284,-2.4284,-2.4284,-2.4339,-2.4394,-2.4394,-2.4447,-2.4482,-2.4482,-2.443,-2.4394,-2.4394,-2.4339,-2.4284,-2.4284,-2.4284,-2.4284,-2.4303,-2.421,-2.4115,-2.3996,-2.3917,-2.3876,-2.3795,-2.3789,-2.3761,-2.3678,-2.3678,-2.3634,-2.3585,-2.3585,-2.3146,-2.2367,-2.2295,-2.1455,-2.0045,-1.9925,-1.9445,-1.8786,-1.8787,-1.8806,-1.8788,-1.8843,-1.8878,-1.8878,-1.8896,-1.8895,-1.8895,-1.8895,-1.8895,-1.8895,-1.8895,-1.8895,-1.8895,-1.8895,-1.8825,-1.8732,-1.8544,-1.8388,-1.8246,-1.8031,-1.7789,-1.7526,-1.7264,-1.6993,-1.6727,-1.6436,-1.6163,-1.5826,-1.5344,-1.4996,-1.4606,-1.4098,-1.3769,-1.3506,-1.3283,-1.3507,-1.3617,-1.349,-1.3804,-1.4021,-1.3929,-1.3545,-1.3388,-1.3464,-1.3059,-1.2969,-1.3226,-1.3382,-1.3749,-1.4319,-1.43,-1.4351,-1.447,-1.4718,-1.4994,-1.5268,-1.5403,-1.5624,-1.5968,-1.6095,-1.6289,-1.6501,-1.6747,-1.6977,-1.7191,-1.7368,-1.7618,-1.7883,-1.8023,-1.8249,-1.8485,-1.8622,-1.8753,-1.8895,-2.4358,-2.4358,-2.4394,-2.4411,-2.4446,-2.4462,-2.4462,-2.4532,-2.4566,-2.4566,-2.4532,-2.4515,-2.4462,-2.4445,-2.441,-2.4358,-2.4358,-2.4339,-2.4303,-2.4284,-2.421,-2.4074,-2.3996,-2.3937,-2.3917,-2.3915,-2.3894,-2.3813,-2.3813,-2.3789,-2.37,-2.3214,-2.2794,-2.2389,-2.1386,-2.0596,-1.9987,-1.9487,-1.9093,-1.8825,-1.8861,-1.8861,-1.8861,-1.8949,-1.8967,-1.8967,-1.8999,-1.9014,-1.9033,-1.9067,-1.9102,-1.9102,-1.9102,-1.9102,-1.9086,-1.9035,-1.8966,-1.8896,-1.8732,-1.8563,-1.8406,-1.8225,-1.8031,-1.7789,-1.7519,-1.7199,-1.6901,-1.6596,-1.6274,-1.5911,-1.5507,-1.5149,-1.4797,-1.4374,-1.4052,-1.3735,-1.3425,-1.3396,-1.3286,-1.3047,-1.3155,-1.3201,-1.3164,-1.3022,-1.2938,-1.3011,-1.3031,-1.3116,-1.3323,-1.3695,-1.4124,-1.4588,-1.4651,-1.4732,-1.4814,-1.5088,-1.5329,-1.5536,-1.574,-1.5968,-1.6246,-1.6398,-1.6596,-1.6841,-1.7052,-1.7296,-1.7526,-1.7687,-1.7888,-1.8103,-1.827,-1.8487,-1.8714,-1.8878,-1.9018,-1.9101,-2.4429,-2.4429,-2.4446,-2.4534,-2.453,-2.4528,-2.4528,-2.4564,-2.4599,-2.4599,-2.4599,-2.458,-2.4547,-2.4528,-2.4513,-2.4464,-2.4446,-2.4446,-2.4393,-2.4357,-2.4303,-2.4171,-2.4095,-2.4057,-2.4057,-2.4036,-2.4016,-2.3958,-2.3701,-2.3531,-2.3469,-2.2652,-2.2126,-2.1798,-2.0697,-2.0029,-1.9759,-1.9217,-1.8982,-1.8947,-1.8982,-1.8982,-1.9,-1.9052,-1.9052,-1.9069,-1.9117,-1.9115,-1.915,-1.9184,-1.9202,-1.9202,-1.9202,-1.9202,-1.9202,-1.9119,-1.907,-1.9002,-1.8861,-1.8715,-1.8544,-1.8351,-1.8159,-1.7939,-1.7658,-1.7361,-1.7052,-1.6738,-1.6409,-1.6052,-1.5653,-1.5315,-1.4968,-1.4564,-1.4214,-1.3901,-1.3628,-1.3369,-1.3129,-1.2955,-1.2838,-1.2768,-1.2768,-1.2768,-1.2803,-1.2908,-1.3129,-1.3391,-1.3628,-1.4059,-1.4433,-1.478,-1.498,-1.5133,-1.5285,-1.5404,-1.5609,-1.5868,-1.6065,-1.6301,-1.6543,-1.6686,-1.6892,-1.7142,-1.7344,-1.7602,-1.7827,-1.7992,-1.8163,-1.8351,-1.8526,-1.8715,-1.8914,-1.9086,-1.92,-1.9277,-2.4495,-2.4495,-2.4512,-2.4599,-2.4599,-2.4599,-2.4599,-2.4599,-2.4599,-2.4599,-2.4599,-2.4599,-2.4599,-2.4599,-2.4599,-2.4599,-2.4599,-2.4599,-2.4599,-2.4551,-2.4429,-2.4321,-2.4247,-2.421,-2.421,-2.4152,-2.4094,-2.4094,-2.3231,-2.2792,-2.2773,-2.1972,-2.117,-2.0405,-2.0387,-1.9914,-1.9115,-1.9184,-1.915,-1.9115,-1.9184,-1.9184,-1.9184,-1.9184,-1.9184,-1.9184,-1.9184,-1.9184,-1.9184,-1.9184,-1.9184,-1.9184,-1.9184,-1.9184,-1.9184,-1.9115,-1.9101,-1.907,-1.8948,-1.8843,-1.8732,-1.8388,-1.8142,-1.7939,-1.7658,-1.7401,-1.7142,-1.6866,-1.6596,-1.6274,-1.5796,-1.5492,-1.5134,-1.4596,-1.4214,-1.3947,-1.3808,-1.345,-1.3198,-1.3198,-1.3012,-1.2896,-1.2896,-1.2896,-1.2978,-1.3198,-1.3323,-1.3628,-1.417,-1.4388,-1.4658,-1.4982,-1.5255,-1.5551,-1.59,-1.5769,-1.5868,-1.6222,-1.6409,-1.6607,-1.6815,-1.7002,-1.7199,-1.7408,-1.7681,-1.791,-1.8111,-1.8328,-1.8467,-1.8604,-1.8735,-1.8931,-1.912,-1.9261,-1.935,-1.9423,-2.4564,-2.4564,-2.4564,-2.4599,-2.465,-2.4682,-2.466,-2.4711,-2.4742,-2.4738,-2.4753,-2.4723,-2.4676,-2.4676,-2.4645,-2.4615,-2.4599,-2.4599,-2.4599,-2.4582,-2.4549,-2.4497,-2.4357,-2.4266,-2.4266,-2.4247,-2.3953,-2.34,-2.3143,-2.2703,-2.208,-2.1272,-2.0759,-2.0451,-1.9884,-1.9481,-1.9243,-1.9259,-1.9261,-1.9243,-1.9259,-1.9277,-1.9277,-1.9311,-1.9344,-1.9344,-1.9375,-1.9408,-1.9408,-1.9408,-1.9375,-1.9344,-1.9277,-1.9264,-1.9266,-1.9251,-1.9166,-1.9084,-1.9052,-1.8967,-1.8806,-1.8561,-1.8365,-1.8142,-1.7922,-1.7635,-1.732,-1.7018,-1.6686,-1.6367,-1.5981,-1.5653,-1.5329,-1.4907,-1.4564,-1.4246,-1.398,-1.3682,-1.3425,-1.3232,-1.3094,-1.299,-1.2908,-1.3047,-1.3129,-1.3198,-1.3581,-1.4,-1.4388,-1.4655,-1.4935,-1.5255,-1.5492,-1.5769,-1.6111,-1.6067,-1.6207,-1.649,-1.667,-1.6876,-1.7093,-1.7296,-1.7502,-1.7681,-1.7915,-1.8166,-1.8388,-1.8545,-1.8679,-1.8825,-1.8947,-1.9099,-1.9261,-1.9394,-1.9513,-1.9628,-2.4629,-2.4629,-2.4645,-2.4676,-2.4711,-2.4742,-2.4738,-2.4768,-2.4802,-2.4794,-2.4794,-2.4779,-2.4734,-2.4753,-2.4723,-2.4676,-2.4676,-2.4676,-2.4679,-2.4645,-2.4647,-2.465,-2.4498,-2.441,-2.441,-2.4077,-2.3671,-2.3189,-2.2525,-2.1918,-2.1387,-2.0572,-2.0169,-2.012,-1.9638,-1.9416,-1.9416,-1.9416,-1.9416,-1.9416,-1.9398,-1.9383,-1.9383,-1.942,-1.9438,-1.9453,-1.9501,-1.9501,-1.9501,-1.9501,-1.9468,-1.9438,-1.9357,-1.9326,-1.9329,-1.9316,-1.9232,-1.9184,-1.912,-1.9019,-1.8896,-1.8731,-1.8485,-1.8266,-1.8048,-1.7749,-1.7455,-1.7142,-1.6799,-1.6485,-1.6148,-1.5797,-1.5418,-1.5074,-1.4721,-1.4406,-1.4111,-1.3848,-1.3594,-1.3391,-1.3301,-1.3232,-1.3138,-1.3254,-1.3357,-1.3514,-1.3914,-1.4292,-1.4641,-1.4918,-1.5193,-1.5521,-1.5484,-1.5613,-1.5914,-1.6046,-1.6344,-1.6763,-1.6977,-1.7199,-1.7392,-1.7595,-1.7777,-1.7971,-1.8166,-1.8408,-1.8638,-1.8752,-1.8896,-1.9034,-1.9166,-1.9274,-1.9394,-1.9536,-1.9662,-1.9788,-2.4467,-2.4538,-2.4625,-2.4666,-2.4756,-2.4808,-2.4827,-2.4827,-2.4808,-2.4842,-2.4842,-2.4808,-2.4808,-2.4827,-2.4827,-2.4808,-2.4794,-2.4798,-2.4806,-2.4738,-2.4711,-2.4698,-2.4572,-2.4519,-2.4519,-2.3726,-2.3231,-2.3082,-2.1563,-2.0767,-2.0693,-1.995,-1.9615,-1.9615,-1.9615,-1.9615,-1.9615,-1.9615,-1.9615,-1.9597,-1.9532,-1.9532,-1.9518,-1.9526,-1.953,-1.953,-1.9497,-1.9497,-1.9497,-1.9497,-1.9497,-1.9483,-1.9438,-1.9405,-1.939,-1.9332,-1.9298,-1.9266,-1.9137,-1.9053,-1.8984,-1.8843,-1.8582,-1.827,-1.8074,-1.7811,-1.7542,-1.7264,-1.6952,-1.6617,-1.627,-1.5883,-1.5492,-1.5074,-1.4752,-1.4452,-1.4254,-1.3974,-1.3741,-1.3615,-1.356,-1.348,-1.348,-1.3514,-1.3682,-1.4,-1.4273,-1.4588,-1.4932,-1.5178,-1.5463,-1.5754,-1.5339,-1.5247,-1.5539,-1.5799,-1.6281,-1.6946,-1.728,-1.7526,-1.7732,-1.7944,-1.8095,-1.8249,-1.8445,-1.8657,-1.8843,-1.8984,-1.9102,-1.9232,-1.9375,-1.946,-1.9536,-1.9669,-1.9788,-1.9919,-2.2806,-2.3366,-2.3851,-2.3865,-2.4422,-2.4903,-2.495,-2.4959,-2.4985,-2.5031,-2.5031,-2.4999,-2.4953,-2.4959,-2.495,-2.4884,-2.4842,-2.4794,-2.4798,-2.4798,-2.4783,-2.4783,-2.4162,-2.3823,-2.3823,-2.3524,-2.2738,-2.1428,-2.1059,-2.0555,-1.9921,-1.9753,-1.9692,-1.9692,-1.9692,-1.9692,-1.9692,-1.9692,-1.9692,-1.9679,-1.966,-1.966,-1.966,-1.9665,-1.9665,-1.9647,-1.9606,-1.9574,-1.9574,-1.9518,-1.9504,-1.9489,-1.9483,-1.9438,-1.939,-1.9375,-1.9329,-1.9266,-1.9202,-1.9137,-1.9036,-1.8896,-1.8715,-1.8469,-1.827,-1.7992,-1.7681,-1.7408,-1.7043,-1.6686,-1.634,-1.6039,-1.5712,-1.5298,-1.4949,-1.4637,-1.4397,-1.4072,-1.3854,-1.3775,-1.3594,-1.348,-1.348,-1.3695,-1.3941,-1.4287,-1.4543,-1.4871,-1.5192,-1.5477,-1.5769,-1.6067,-1.5645,-1.5539,-1.5799,-1.5527,-1.5742,-1.6456,-1.7305,-1.7833,-1.8009,-1.8163,-1.831,-1.8452,-1.8658,-1.8843,-1.9036,-1.917,-1.928,-1.9365,-1.9499,-1.9628,-1.9732,-1.9823,-1.9915,-2.0,-2.2357,-2.2729,-2.3208,-2.3619,-2.4062,-2.453,-2.4974,-2.5044,-2.5057,-2.5101,-2.5101,-2.5089,-2.5057,-2.5044,-2.5031,-2.5004,-2.4959,-2.4945,-2.4945,-2.4912,-2.4898,-2.4898,-2.4058,-2.3421,-2.3043,-2.2539,-2.1877,-2.0996,-2.0602,-2.022,-1.9788,-1.9788,-1.9788,-1.9788,-1.9788,-1.9788,-1.9788,-1.9788,-1.9788,-1.9788,-1.9757,-1.9751,-1.9738,-1.9707,-1.9712,-1.9705,-1.9673,-1.9628,-1.9582,-1.9555,-1.9546,-1.9536,-1.9508,-1.9479,-1.9431,-1.9405,-1.9393,-1.9329,-1.9266,-1.9186,-1.9086,-1.8967,-1.8807,-1.8585,-1.8351,-1.81,-1.7811,-1.7502,-1.715,-1.6789,-1.6448,-1.6136,-1.5827,-1.5403,-1.5102,-1.478,-1.4461,-1.4203,-1.3974,-1.3854,-1.3741,-1.3728,-1.3828,-1.4026,-1.4268,-1.4588,-1.4871,-1.5163,-1.5477,-1.5769,-1.5927,-1.5863,-1.5453,-1.5149,-1.5033,-1.4924,-1.5271,-1.6116,-1.7003,-1.7735,-1.8284,-1.8408,-1.8529,-1.8698,-1.8878,-1.9035,-1.9216,-1.9311,-1.9413,-1.9541,-1.9655,-1.9757,-1.9866,-1.9918,-2.0021,-2.0115,-2.1983,-2.214,-2.2517,-2.3255,-2.361,-2.406,-2.4784,-2.5012,-2.512,-2.512,-2.512,-2.512,-2.512,-2.5107,-2.5107,-2.5114,-2.5101,-2.5101,-2.5101,-2.5057,-2.4949,-2.4797,-2.3929,-2.3057,-2.2224,-2.1355,-2.0915,-2.0891,-2.0224,-1.9896,-1.9896,-1.9896,-1.9915,-1.9926,-1.9926,-1.9908,-1.9896,-1.9896,-1.9896,-1.9903,-1.9842,-1.9825,-1.982,-1.9757,-1.9732,-1.9712,-1.9712,-1.9673,-1.9614,-1.9596,-1.9606,-1.9597,-1.9532,-1.9518,-1.9504,-1.9416,-1.9405,-1.9375,-1.9314,-1.9216,-1.9099,-1.9035,-1.8878,-1.8678,-1.841,-1.818,-1.7939,-1.7595,-1.7248,-1.6901,-1.6581,-1.6231,-1.5883,-1.5477,-1.5165,-1.4859,-1.4511,-1.4332,-1.4138,-1.3974,-1.3941,-1.4007,-1.4203,-1.4365,-1.4556,-1.4825,-1.5178,-1.5463,-1.5754,-1.5973,-1.592,-1.558,-1.5043,-1.457,-1.4164,-1.4424,-1.5034,-1.5956,-1.6738,-1.7617,-1.8544,-1.8622,-1.8753,-1.8948,-1.9086,-1.9216,-1.9335,-1.9409,-1.9555,-1.9738,-1.9788,-1.9877,-1.995,-2.0012,-2.0133,-2.0238,-2.0314,-2.0934,-2.1496,-2.1621,-2.2866,-2.3941,-2.4036,-2.4709,-2.519,-2.519,-2.519,-2.519,-2.519,-2.5187,-2.5172,-2.5101,-2.5101,-2.5107,-2.5101,-2.5101,-2.4746,-2.4004,-2.3168,-2.2331,-2.1475,-2.0589,-2.0118,-2.0054,-1.9953,-1.9896,-1.99,-1.99,-1.993,-2.0001,-2.0001,-1.9941,-1.99,-1.99,-1.9908,-1.9896,-1.9884,-1.9884,-1.9892,-1.9873,-1.983,-1.9794,-1.9776,-1.9738,-1.9673,-1.9628,-1.9601,-1.9601,-1.9597,-1.955,-1.9504,-1.9504,-1.9464,-1.939,-1.9323,-1.9246,-1.9168,-1.9104,-1.8967,-1.8824,-1.8622,-1.8307,-1.8009,-1.7732,-1.7368,-1.6977,-1.6633,-1.6301,-1.5955,-1.5536,-1.5195,-1.4921,-1.47,-1.4461,-1.4268,-1.417,-1.417,-1.4203,-1.4268,-1.4525,-1.4763,-1.4951,-1.533,-1.5696,-1.6039,-1.5754,-1.5659,-1.5839,-1.4782,-1.4264,-1.4372,-1.464,-1.5228,-1.6168,-1.7081,-1.795,-1.8769,-1.8825,-1.8983,-1.9168,-1.9246,-1.935,-1.9481,-1.9614,-1.9751,-1.9873,-1.9881,-1.996,-2.0088,-2.02,-2.0313,-2.0373,-2.0108,-2.0432,-2.0852,-2.134,-2.2048,-2.2873,-2.3803,-2.4283,-2.4697,-2.5196,-2.5253,-2.5253,-2.5253,-2.5252,-2.5239,-2.5157,-2.5164,-2.5164,-2.5153,-2.4752,-2.4301,-2.393,-2.2647,-2.174,-2.1358,-2.0508,-2.004,-2.0009,-1.9969,-1.9958,-1.9958,-1.9958,-1.9969,-2.0009,-2.0009,-1.9979,-1.9958,-1.9958,-1.9958,-1.9947,-1.9955,-1.9952,-1.9949,-1.9919,-1.9866,-1.9842,-1.9806,-1.9757,-1.9707,-1.9662,-1.9623,-1.9601,-1.9606,-1.9578,-1.955,-1.9518,-1.9479,-1.9453,-1.9372,-1.9314,-1.9235,-1.9135,-1.9,-1.8843,-1.8659,-1.8408,-1.8121,-1.7816,-1.7502,-1.715,-1.6789,-1.6436,-1.608,-1.5667,-1.5359,-1.5072,-1.4794,-1.4525,-1.4332,-1.4268,-1.4268,-1.4332,-1.4556,-1.4749,-1.4996,-1.5255,-1.5609,-1.5981,-1.6301,-1.5908,-1.5631,-1.5501,-1.4695,-1.417,-1.3956,-1.4586,-1.5394,-1.6386,-1.7317,-1.8192,-1.8967,-1.9035,-1.9166,-1.9323,-1.938,-1.9513,-1.9681,-1.9776,-1.9866,-1.9958,-2.0,-2.0088,-2.0227,-2.0321,-2.0377,-2.0404]}]]